[[{"header":{"parameterUnit":"m.s-1","parameterCategory":1,"la1":30.6,"la2":28.766,"lo1":-90.7593,"lo2":-88.6598,"dy":0.0162,"dx":0.0183,"nx":116,"ny":114,"refTime":"2023-06-27T12:00:00:Z","depth":0,"parameterNumber":2,"parameterNumberName":"U-component_of_WINDS"},"data":[0.0,0.0,0.0,0.0,0.0,0.0,0.0,0.0,0.0,0.0,0.0,0.0,0.0,0.0,0.0,0.0,0.0,0.0,0.0,0.0,0.0,0.0,0.0,0.0,0.0,0.0,0.0,0.0,0.0,0.0,0.0,0.0,0.0,0.0,0.0,0.0,0.0,0.0,0.0,0.0,0.0,0.0,0.0,0.0,0.0,0.0,0.0,0.0,0.0,0.0,0.0,0.0,0.0,0.0,0.0,0.0,0.0,0.0,0.0,0.0,0.0,0.0,0.0,0.0,0.0,0.0,0.0,0.0,0.0,0.0,0.0,0.0,0.0,0.0,0.0,0.0,0.0,0.0,0.0,0.0,0.0,0.0,0.0,0.0,0.0,0.0,0.0,0.0,0.0,0.0,0.0,0.0,0.0,0.0,0.0,0.0,0.0,0.0,0.0,0.0,0.0,0.0,0.0,0.0,0.0,0.0,0.0,0.0,0.0,0.0,0.0,0.0,0.0,0.0,0.0,0.0,0.0,0.0,0.0,0.0,0.0,0.0,0.0,0.0,0.0,0.0,0.0,0.0,0.0,0.0,0.0,0.0,0.0,0.0,0.0,0.0,0.0,0.0,0.0,0.0,0.0,0.0,0.0,0.0,0.0,0.0,0.0,0.0,0.0,0.0,0.0,0.0,0.0,0.0,0.0,0.0,0.0,0.0,0.0,0.0,0.0,0.0,0.0,0.0,0.0,0.0,0.0,0.0,0.0,0.0,0.0,0.0,0.0,0.0,0.0,0.0,0.0,0.0,0.0,0.0,0.0,0.0,0.0,0.0,0.0,0.0,0.0,0.0,0.0,0.0,0.0,0.0,0.0,0.0,0.0,0.0,0.0,0.0,0.0,0.0,0.0,0.0,0.0,0.0,0.0,0.0,0.0,0.0,0.0,0.0,0.0,0.0,0.0,0.0,0.0,0.0,0.0,0.0,0.0,0.0,0.0,0.0,0.0,0.0,0.0,0.0,0.0,0.0,0.0,0.0,0.0,0.0,0.0,0.0,0.0,0.0,0.0,0.0,0.0,0.0,0.0,0.0,0.0,0.0,0.0,0.0,0.0,0.0,0.0,0.0,0.0,0.0,0.0,0.0,0.0,0.0,0.0,0.0,0.0,0.0,0.0,0.0,0.0,0.0,0.0,0.0,0.0,0.0,0.0,0.0,0.0,0.0,0.0,0.0,0.0,0.0,0.0,0.0,0.0,0.0,0.0,0.0,0.0,0.0,0.0,0.0,0.0,0.0,0.0,0.0,0.0,0.0,0.0,0.0,0.0,0.0,0.0,0.0,0.0,0.0,0.0,0.0,0.0,0.0,0.0,0.0,0.0,0.0,0.0,0.0,0.0,0.0,0.0,0.0,0.0,0.0,0.0,0.0,0.0,0.0,0.0,0.0,0.0,0.0,0.0,0.0,0.0,0.0,0.0,0.0,0.0,0.0,0.0,0.0,0.0,0.0,0.0,0.0,0.0,0.0,0.0,0.0,0.0,0.0,0.0,0.0,0.0,0.0,0.0,0.0,0.0,0.0,0.0,0.0,0.0,0.0,0.0,0.0,0.0,0.0,0.0,0.0,0.0,0.0,0.0,0.0,0.0,0.0,0.0,0.0,0.0,0.0,0.0,0.0,0.0,0.0,0.0,0.0,0.0,0.0,0.0,0.0,0.0,0.0,0.0,0.0,0.0,0.0,0.0,0.0,0.0,0.0,0.0,0.0,0.0,0.0,0.0,0.0,0.0,0.0,0.0,0.0,0.0,0.0,0.0,0.0,0.0,0.0,0.0,0.0,0.0,0.0,0.0,0.0,0.0,0.0,0.0,0.0,0.0,0.0,0.0,0.0,0.0,0.0,0.0,0.0,0.0,0.0,0.0,0.0,0.0,0.0,0.0,0.0,0.0,0.0,0.0,0.0,0.0,0.0,0.0,0.0,0.0,0.0,0.0,0.0,0.0,0.0,0.0,0.0,0.0,0.0,0.0,0.0,0.0,0.0,0.0,0.0,0.0,0.0,0.0,0.0,0.0,0.0,0.0,0.0,0.0,0.0,0.0,0.0,0.0,0.0,0.0,0.0,0.0,0.0,0.0,0.0,0.0,0.0,0.0,0.0,0.0,0.0,0.0,0.0,0.0,0.0,0.0,0.0,0.0,0.0,0.0,0.0,0.0,0.0,0.0,0.0,0.0,0.0,0.0,0.0,0.0,0.0,0.0,0.0,0.0,0.0,0.0,0.0,0.0,0.0,0.0,0.0,0.0,0.0,0.0,0.0,0.0,0.0,0.0,0.0,0.0,0.0,0.0,0.0,0.0,0.0,0.0,0.0,0.0,0.0,0.0,0.0,0.0,0.0,0.0,0.0,0.0,0.0,0.0,0.0,0.0,0.0,0.0,0.0,0.0,0.0,0.0,0.0,0.0,0.0,0.0,0.0,0.0,0.0,0.0,0.0,0.0,0.0,0.0,0.0,0.0,0.0,0.0,0.0,0.0,0.0,0.0,0.0,0.0,0.0,0.0,0.0,0.0,0.0,0.0,0.0,0.0,0.0,0.0,0.0,0.0,0.0,0.0,0.0,0.0,0.0,0.0,0.0,0.0,0.0,0.0,0.0,0.0,0.0,0.0,0.0,0.0,0.0,0.0,0.0,0.0,0.0,0.0,0.0,0.0,0.0,0.0,0.0,0.0,0.0,0.0,0.0,0.0,0.0,0.0,0.0,0.0,0.0,0.0,0.0,0.0,0.0,0.0,0.0,0.0,0.0,0.0,0.0,0.0,0.0,0.0,0.0,0.0,0.0,0.0,0.0,0.0,0.0,0.0,0.0,0.0,0.0,0.0,0.0,0.0,0.0,0.0,0.0,0.0,0.0,0.0,0.0,0.0,0.0,0.0,0.0,0.0,0.0,0.0,0.0,0.0,0.0,0.0,0.0,0.0,0.0,0.0,0.0,0.0,0.0,0.0,0.0,0.0,0.0,0.0,0.0,0.0,0.0,0.0,0.0,0.0,0.0,0.0,0.0,0.0,0.0,0.0,0.0,0.0,0.0,0.0,0.0,0.0,0.0,0.0,0.0,0.0,0.0,0.0,0.0,0.0,0.0,0.0,0.0,0.0,0.0,0.0,0.0,0.0,0.0,0.0,0.0,0.0,0.0,0.0,0.0,0.0,0.0,0.0,0.0,0.0,0.0,0.0,0.0,0.0,0.0,0.0,0.0,0.0,0.0,0.0,0.0,0.0,0.0,0.0,0.0,0.0,0.0,0.0,0.0,0.0,0.0,0.0,0.0,0.0,0.0,0.0,0.0,0.0,0.0,0.0,0.0,0.0,0.0,0.0,0.0,0.0,0.0,0.0,0.0,0.0,0.0,0.0,0.0,0.0,0.0,0.0,0.0,0.0,0.0,0.0,0.0,0.0,0.0,0.0,0.0,0.0,0.0,0.0,0.0,0.0,0.0,0.0,0.0,0.0,0.0,0.0,0.0,0.0,0.0,0.0,0.0,0.0,0.0,0.0,0.0,0.0,0.0,0.0,0.0,0.0,0.0,0.0,0.0,0.0,0.0,0.0,0.0,0.0,0.0,0.0,0.0,0.0,0.0,0.0,0.0,0.0,0.0,0.0,0.0,0.0,0.0,0.0,0.0,0.0,0.0,0.0,0.0,0.0,0.0,0.0,0.0,0.0,0.0,0.0,0.0,0.0,0.0,0.0,0.0,0.0,0.0,0.0,0.0,0.0,0.0,0.0,0.0,0.0,0.0,0.0,0.0,0.0,0.0,0.0,0.0,0.0,0.0,0.0,0.0,0.0,0.0,0.0,0.0,0.0,0.0,0.0,0.0,0.0,0.0,0.0,0.0,0.0,0.0,0.0,0.0,0.0,0.0,0.0,0.0,0.0,0.0,0.0,0.0,0.0,0.0,0.0,0.0,0.0,0.0,0.0,0.0,0.0,0.0,0.0,0.0,0.0,0.0,0.0,0.0,0.0,0.0,0.0,0.0,0.0,0.0,0.0,0.0,0.0,0.0,0.0,0.0,0.0,0.0,0.0,0.0,0.0,0.0,0.0,0.0,0.0,0.0,0.0,0.0,0.0,0.0,0.0,0.0,0.0,0.0,0.0,0.0,0.0,0.0,0.0,0.0,0.0,0.0,0.0,0.0,0.0,0.0,0.0,0.0,0.0,0.0,0.0,0.0,0.0,0.0,0.0,0.0,0.0,0.0,0.0,0.0,0.0,0.0,0.0,0.0,0.0,0.0,0.0,0.0,0.0,0.0,0.0,0.0,0.0,0.0,0.0,0.0,0.0,0.0,0.0,0.0,0.0,0.0,0.0,0.0,0.0,0.0,0.0,0.0,0.0,0.0,0.0,0.0,0.0,0.0,0.0,0.0,0.0,0.0,0.0,0.0,0.0,0.0,0.0,0.0,0.0,0.0,0.0,0.0,0.0,0.0,0.0,0.0,0.0,0.0,0.0,0.0,0.0,0.0,0.0,0.0,0.0,0.0,0.0,0.0,0.0,0.0,0.0,0.0,0.0,0.0,0.0,0.0,0.0,0.0,0.0,0.0,0.0,0.0,0.0,0.0,0.0,0.0,0.0,0.0,0.0,0.0,0.0,0.0,0.0,0.0,0.0,0.0,0.0,0.0,0.0,0.0,0.0,0.0,0.0,0.0,0.0,0.0,0.0,0.0,0.0,0.0,0.0,0.0,0.0,0.0,0.0,0.0,0.0,0.0,0.0,0.0,0.0,0.0,0.0,0.0,0.0,0.0,0.0,0.0,0.0,0.0,0.0,0.0,0.0,0.0,0.0,0.0,0.0,0.0,0.0,0.0,0.0,0.0,0.0,0.0,0.0,0.0,0.0,0.0,0.0,0.0,0.0,0.0,0.0,0.0,0.0,0.0,0.0,0.0,0.0,0.0,0.0,0.0,0.0,0.0,0.0,0.0,0.0,0.0,0.0,0.0,0.0,0.0,0.0,0.0,0.0,0.0,0.0,0.0,0.0,0.0,0.0,0.0,0.0,0.0,0.0,0.0,0.0,0.0,0.0,0.0,0.0,0.0,0.0,0.0,0.0,0.0,0.0,0.0,0.0,0.0,0.0,0.0,0.0,0.0,0.0,0.0,0.0,0.0,0.0,0.0,0.0,0.0,0.0,0.0,0.0,0.0,0.0,0.0,0.0,0.0,0.0,0.0,0.0,0.0,0.0,0.0,0.0,0.0,0.0,0.0,0.0,0.0,0.0,0.0,0.0,0.0,0.0,0.0,0.0,0.0,0.0,0.0,0.0,0.0,0.0,0.0,0.0,0.0,0.0,0.0,0.0,0.0,0.0,0.0,0.0,0.0,0.0,0.0,0.0,0.0,0.0,0.0,0.0,0.0,0.0,0.0,0.0,0.0,0.0,0.0,0.0,0.0,0.0,0.0,0.0,0.0,0.0,0.0,0.0,0.0,0.0,0.0,0.0,0.0,0.0,0.0,0.0,0.0,0.0,0.0,0.0,0.0,0.0,0.0,0.0,0.0,0.0,0.0,0.0,0.0,0.0,0.0,0.0,0.0,0.0,0.0,0.0,0.0,0.0,0.0,0.0,0.0,0.0,0.0,0.0,0.0,0.0,0.0,0.0,0.0,0.0,0.0,0.0,0.0,0.0,0.0,0.0,0.0,0.0,0.0,0.0,0.0,0.0,0.0,0.0,0.0,0.0,0.0,0.0,0.0,0.0,0.0,0.0,0.0,0.0,0.0,0.0,0.0,0.0,0.0,0.0,0.0,0.0,0.0,0.0,0.0,0.0,0.0,0.0,0.0,0.0,0.0,0.0,0.0,0.0,0.0,0.0,0.0,0.0,0.0,0.0,0.0,0.0,0.0,0.0,0.0,0.0,0.0,0.0,0.0,0.0,0.0,0.0,0.0,0.0,0.0,0.0,0.0,0.0,0.0,0.0,0.0,0.0,0.0,0.0,0.0,0.0,0.0,0.0,0.0,0.0,0.0,0.0,0.0,0.0,0.0,0.0,0.0,0.0,0.0,0.0,0.0,0.0,0.0,0.0,0.0,0.0,0.0,0.0,0.0,0.0,0.0,0.0,0.0,0.0,0.0,-4.8363,0.0,0.0,0.0,0.0,0.0,0.0,0.0,0.0,0.0,0.0,0.0,0.0,0.0,0.0,0.0,0.0,0.0,0.0,0.0,0.0,0.0,0.0,0.0,0.0,0.0,0.0,0.0,0.0,0.0,0.0,0.0,0.0,0.0,0.0,0.0,0.0,0.0,0.0,0.0,-3.8715,-3.888,-3.9101,-3.9165,-3.9383,-3.9713,0.0,0.0,0.0,0.0,0.0,0.0,0.0,0.0,0.0,0.0,0.0,0.0,0.0,0.0,0.0,0.0,0.0,0.0,0.0,0.0,0.0,0.0,0.0,0.0,0.0,0.0,0.0,0.0,0.0,0.0,0.0,0.0,0.0,0.0,0.0,0.0,0.0,0.0,0.0,0.0,0.0,0.0,0.0,0.0,0.0,0.0,0.0,0.0,0.0,0.0,0.0,0.0,0.0,0.0,0.0,0.0,0.0,0.0,0.0,0.0,0.0,0.0,0.0,0.0,0.0,0.0,0.0,0.0,0.0,0.0,0.0,-4.8306,0.0,0.0,0.0,0.0,0.0,0.0,0.0,0.0,0.0,0.0,0.0,0.0,0.0,0.0,0.0,0.0,0.0,0.0,0.0,0.0,0.0,0.0,0.0,0.0,0.0,0.0,0.0,0.0,0.0,0.0,0.0,0.0,0.0,0.0,0.0,-3.7578,-3.772,-3.8033,-3.8194,-3.848,-3.8847,-3.8937,-3.9119,-3.9364,-3.9683,0.0,0.0,0.0,0.0,0.0,0.0,0.0,0.0,0.0,0.0,0.0,0.0,0.0,0.0,0.0,0.0,0.0,0.0,0.0,0.0,0.0,0.0,0.0,0.0,0.0,0.0,0.0,0.0,0.0,0.0,0.0,0.0,0.0,0.0,0.0,0.0,0.0,0.0,0.0,0.0,0.0,0.0,0.0,0.0,0.0,0.0,0.0,0.0,0.0,0.0,0.0,0.0,0.0,0.0,0.0,0.0,0.0,0.0,0.0,0.0,0.0,0.0,0.0,0.0,0.0,-4.9138,-4.8863,-4.8746,-4.8746,-4.8746,-4.8581,-4.8306,0.0,0.0,0.0,0.0,0.0,0.0,0.0,0.0,0.0,0.0,0.0,0.0,0.0,0.0,0.0,0.0,0.0,0.0,0.0,0.0,0.0,0.0,0.0,0.0,0.0,0.0,0.0,0.0,0.0,0.0,0.0,0.0,0.0,-3.7248,-3.7078,-3.7249,-3.7754,-3.7771,-3.7822,-3.789,-3.8305,-3.8569,-3.8726,-3.9288,-3.9702,-3.9896,0.0,0.0,0.0,0.0,0.0,0.0,0.0,0.0,0.0,0.0,0.0,0.0,0.0,0.0,0.0,0.0,0.0,0.0,0.0,0.0,0.0,0.0,0.0,0.0,0.0,0.0,0.0,0.0,0.0,0.0,0.0,0.0,0.0,0.0,0.0,0.0,0.0,0.0,0.0,0.0,0.0,-5.1056,-5.074,0.0,0.0,0.0,0.0,0.0,0.0,0.0,0.0,0.0,0.0,0.0,0.0,0.0,0.0,-5.0712,-5.0542,-5.0517,-5.0608,-5.04,-5.0387,-5.0533,-5.0492,-5.0472,-5.0472,-5.0472,0.0,-4.8306,-4.8306,0.0,0.0,0.0,0.0,0.0,0.0,0.0,0.0,0.0,0.0,0.0,0.0,0.0,0.0,0.0,0.0,0.0,0.0,0.0,0.0,0.0,0.0,0.0,0.0,0.0,0.0,0.0,0.0,0.0,0.0,0.0,-3.6156,-3.6536,-3.6512,-3.6761,-3.7306,-3.747,-3.7578,-3.7718,-3.8062,-3.8261,-3.8339,-3.9027,-3.9508,-3.9772,-3.9671,0.0,0.0,0.0,0.0,0.0,0.0,0.0,0.0,0.0,0.0,0.0,0.0,0.0,0.0,0.0,0.0,0.0,0.0,0.0,0.0,0.0,0.0,0.0,0.0,0.0,0.0,0.0,0.0,0.0,0.0,0.0,0.0,0.0,0.0,0.0,0.0,0.0,0.0,0.0,-5.1163,-5.1022,-5.0833,-5.0793,-5.0767,0.0,0.0,0.0,0.0,0.0,0.0,0.0,0.0,0.0,-5.1375,-5.1856,-5.2096,-5.2055,-5.1844,-5.1801,-5.1927,-5.1296,-5.1144,-5.1359,-5.0983,-5.0802,-5.0802,-5.0802,-5.038,-4.9682,-4.9224,-4.8746,-4.8287,0.0,0.0,0.0,0.0,0.0,0.0,0.0,0.0,0.0,0.0,0.0,0.0,0.0,0.0,0.0,0.0,0.0,0.0,0.0,0.0,0.0,-3.81,0.0,0.0,0.0,0.0,0.0,0.0,0.0,-3.591,-3.5954,-3.6079,-3.6364,-3.6801,-3.6995,-3.7171,-3.7343,-3.7667,-3.7861,-3.7948,-3.8651,-3.9195,-3.958,-3.9705,-3.9392,-3.8775,0.0,0.0,0.0,0.0,0.0,0.0,0.0,0.0,0.0,0.0,0.0,0.0,0.0,0.0,0.0,0.0,0.0,0.0,0.0,0.0,0.0,0.0,0.0,0.0,0.0,0.0,0.0,0.0,0.0,0.0,0.0,0.0,0.0,0.0,0.0,0.0,0.0,-5.1058,-5.0966,-5.0855,-5.0758,-5.0712,0.0,0.0,0.0,0.0,0.0,0.0,-5.101,-5.1798,-5.2231,-5.2231,-5.2856,-5.3172,-5.3108,-5.2889,-5.2831,-5.2946,-5.218,-5.1927,-5.2133,-5.1632,-5.1408,-5.1408,-5.1408,-5.1298,-5.1041,-5.0233,-4.9389,-4.8617,-4.8382,-4.8174,0.0,-4.7783,-4.7717,-4.7717,0.0,0.0,0.0,0.0,0.0,0.0,0.0,0.0,0.0,0.0,0.0,0.0,0.0,0.0,-3.8083,-3.734,-3.721,-3.6823,0.0,0.0,0.0,-3.5622,-3.5622,-3.5667,-3.5817,-3.5932,-3.6101,-3.6229,-3.6251,-3.6297,-3.6388,-3.6843,-3.719,-3.745,-3.8062,-3.8663,-3.9216,-3.898,-3.883,-3.867,-3.7155,0.0,0.0,0.0,0.0,0.0,0.0,0.0,0.0,0.0,0.0,0.0,0.0,0.0,0.0,0.0,0.0,0.0,0.0,0.0,0.0,0.0,0.0,0.0,0.0,0.0,0.0,0.0,0.0,0.0,0.0,0.0,0.0,0.0,0.0,0.0,0.0,0.0,0.0,-5.073,-5.0693,0.0,0.0,0.0,0.0,-5.0712,-5.1414,-5.1846,-5.1846,-5.2654,-5.3126,-5.3126,-5.3183,-5.3172,-5.3108,-5.3015,-5.3016,-5.3075,-5.298,-5.2976,-5.312,-5.3078,-5.3096,-5.3096,-5.3096,-5.2656,-5.1867,-5.1077,-5.0251,-4.9517,-4.9241,-4.8666,-4.7972,-4.7783,-4.7717,-4.7717,0.0,0.0,0.0,0.0,0.0,0.0,0.0,0.0,0.0,0.0,0.0,0.0,0.0,-3.7878,-3.756,-3.7229,-3.6686,-3.6232,-3.5898,0.0,0.0,-3.4857,-3.5195,-3.5481,-3.5667,-3.5711,-3.5844,-3.6062,-3.6062,-3.6084,-3.6127,-3.6492,-3.6716,-3.6873,-3.7667,-3.8162,-3.8397,-3.8939,-3.8954,-3.8512,-3.8156,-3.7426,0.0,0.0,0.0,0.0,0.0,0.0,0.0,0.0,0.0,0.0,0.0,0.0,0.0,0.0,0.0,0.0,0.0,0.0,0.0,0.0,0.0,0.0,0.0,0.0,0.0,0.0,0.0,0.0,0.0,0.0,0.0,0.0,0.0,0.0,0.0,0.0,0.0,-5.085,-5.0749,0.0,-5.1414,-5.1471,-5.1702,-5.226,-5.2568,-5.2741,-5.2741,-5.3568,-5.4049,-5.4049,-5.4498,-5.4713,-5.4645,-5.4358,-5.4206,-5.4201,-5.369,-5.3479,-5.3504,-5.3314,-5.3185,-5.3185,-5.3185,-5.3041,-5.2747,-5.2472,-5.1573,-5.0342,-5.0081,-4.9794,-4.9445,-4.8723,-4.8456,-4.8384,0.0,0.0,0.0,0.0,0.0,0.0,0.0,0.0,0.0,0.0,0.0,-3.8087,-3.7756,-3.7451,-3.7117,-3.6788,-3.6236,-3.582,-3.5638,0.0,0.0,-3.4358,-3.4754,-3.5165,-3.5487,-3.5503,-3.5622,-3.5866,-3.5866,-3.591,-3.5997,-3.6255,-3.644,-3.6544,-3.7207,-3.7596,-3.7773,-3.8589,-3.8855,-3.8749,-3.8727,-3.8147,-3.7247,0.0,0.0,0.0,0.0,0.0,0.0,0.0,0.0,0.0,0.0,0.0,0.0,0.0,0.0,0.0,0.0,0.0,0.0,0.0,0.0,0.0,0.0,0.0,0.0,0.0,0.0,0.0,0.0,0.0,0.0,0.0,0.0,0.0,0.0,0.0,-5.1056,-5.1217,-5.1153,-5.1433,-5.225,-5.2327,-5.2577,-5.3164,-5.3472,-5.3645,-5.3645,-5.4434,-5.4895,-5.4895,-5.536,-5.5562,-5.5504,-5.5198,-5.4924,-5.4623,-5.4139,-5.3758,-5.3524,-5.3314,-5.3185,-5.3185,-5.3185,-5.3185,-5.3185,-5.3185,-5.2582,-5.1571,-5.103,-5.0633,-5.0302,-4.9579,-4.9311,-4.9202,0.0,0.0,0.0,0.0,0.0,0.0,0.0,0.0,0.0,0.0,-3.8052,-3.7809,-3.7266,-3.719,-3.6825,-3.5955,-3.5868,-3.5638,-3.5088,-3.4504,0.0,-3.4169,-3.4309,-3.4658,-3.5245,-3.5268,-3.536,-3.5566,-3.5566,-3.5723,-3.6022,-3.6169,-3.6341,-3.6551,-3.6692,-3.7018,-3.7464,-3.7844,-3.8551,-3.9327,-3.8689,-3.862,-3.8728,0.0,0.0,0.0,0.0,0.0,0.0,0.0,0.0,0.0,0.0,0.0,0.0,0.0,0.0,0.0,0.0,0.0,0.0,0.0,0.0,0.0,0.0,0.0,0.0,0.0,0.0,0.0,0.0,0.0,0.0,0.0,0.0,0.0,-5.1047,-5.1027,-5.1249,-5.1819,-5.1923,-5.2269,-5.3164,-5.3241,-5.326,-5.328,-5.4068,-5.453,-5.453,-5.528,-5.5703,-5.5703,-5.5629,-5.5562,-5.5504,-5.5432,-5.5009,-5.4315,-5.4298,-5.3889,-5.3185,-5.3185,-5.3185,-5.3185,-5.3185,-5.3185,-5.3185,-5.3185,-5.3185,-5.3091,-5.2053,-5.1164,-5.0447,-5.0214,-5.0112,-4.9945,0.0,0.0,0.0,0.0,0.0,0.0,0.0,0.0,0.0,0.0,-3.807,-3.7809,-3.7266,-3.6865,-3.634,-3.5599,-3.523,-3.4738,-3.407,0.0,0.0,-3.3777,-3.3951,-3.4143,-3.435,-3.4448,-3.4628,-3.4866,-3.4866,-3.5447,-3.6521,-3.6643,-3.702,-3.7604,-3.7983,-3.8221,-3.836,-3.8419,-3.8724,-3.9195,-3.9262,-3.8999,-3.8586,0.0,0.0,0.0,0.0,0.0,0.0,0.0,0.0,0.0,0.0,0.0,0.0,0.0,0.0,0.0,0.0,0.0,0.0,0.0,0.0,0.0,0.0,0.0,0.0,0.0,0.0,0.0,0.0,0.0,0.0,0.0,0.0,-5.131,-5.1098,-5.1561,-5.1949,-5.1981,-5.2492,-5.3183,-5.4068,-5.4145,-5.4376,-5.4972,-5.5222,-5.5376,-5.5376,-5.5568,-5.5703,-5.5703,-5.5585,-5.5516,-5.5504,-5.5132,-5.4746,-5.4298,-5.4016,-5.3641,-5.3185,-5.3185,-5.3185,-5.3185,-5.3185,-5.3185,-5.3185,-5.3185,-5.3185,-5.3146,-5.2656,-5.235,-5.2051,-5.1248,-5.0234,-4.9202,0.0,0.0,0.0,0.0,0.0,0.0,0.0,0.0,0.0,0.0,-3.802,-3.7757,-3.7226,-3.6623,-3.6041,-3.5442,-3.4697,-3.4036,-3.3547,0.0,-3.3156,-3.314,-3.3319,-3.3566,-3.3873,-3.3952,-3.4261,-3.48,-3.473,-3.5224,-3.6247,-3.6544,-3.6978,-3.7554,-3.8156,-3.8515,-3.8685,-3.8713,-3.8968,-3.9373,-3.9761,-3.9528,-3.8943,-3.8765,-3.846,-3.825,-3.8801,-3.9042,-3.9226,-4.02,0.0,0.0,0.0,0.0,0.0,0.0,0.0,0.0,0.0,0.0,0.0,0.0,0.0,0.0,0.0,0.0,0.0,0.0,0.0,0.0,0.0,0.0,0.0,0.0,-5.1398,-5.1485,-5.1698,-5.2067,-5.2486,-5.2983,-5.3464,-5.4087,-5.4914,-5.4991,-5.5203,-5.5665,-5.5703,-5.5703,-5.5703,-5.5703,-5.5703,-5.5703,-5.5596,-5.5527,-5.5504,-5.5204,-5.4806,-5.4298,-5.407,-5.3699,-5.3185,-5.3185,-5.3185,0.0,-5.3185,-5.3185,-5.3185,-5.3185,-5.3185,0.0,0.0,0.0,0.0,0.0,-5.0778,-4.9401,0.0,0.0,0.0,0.0,0.0,0.0,0.0,0.0,0.0,0.0,0.0,-3.7703,-3.7166,-3.6536,-3.5946,-3.5419,-3.4333,-3.3598,0.0,-3.2841,-3.2516,-3.2415,-3.2715,-3.3096,-3.3516,-3.3593,-3.4094,-3.4938,-3.4763,-3.5011,-3.5673,-3.6163,-3.6643,-3.7116,-3.7791,-3.8382,-3.8869,-3.8933,-3.9287,-3.9787,-4.009,-3.9989,-3.9595,-3.8914,-3.8766,-3.8956,-3.9004,-3.9042,-3.9147,-4.0014,0.0,0.0,0.0,0.0,0.0,0.0,0.0,0.0,0.0,0.0,0.0,0.0,0.0,0.0,0.0,0.0,0.0,0.0,0.0,0.0,0.0,0.0,0.0,0.0,-5.1481,-5.183,-5.2635,-5.266,-5.3081,-5.438,-5.4592,-5.4925,-5.5626,-5.5703,-5.5703,-5.5703,-5.5703,-5.5703,-5.5703,0.0,0.0,0.0,0.0,-5.5562,-5.5504,-5.5432,-5.505,-5.4366,-5.4332,-5.3926,-5.3269,-5.3227,-5.3185,-5.3185,-5.3185,-5.3185,-5.3185,-5.3185,-5.3185,-5.3143,-5.289,-5.2802,-5.2757,-5.2572,-5.1466,0.0,0.0,0.0,0.0,0.0,0.0,0.0,0.0,0.0,0.0,-3.8428,-3.8104,-3.7703,-3.7166,-3.6736,-3.6143,-3.5311,-3.4633,-3.3793,-3.2668,-3.2492,-3.2272,-3.1877,-3.2915,-3.3185,-3.2437,-3.3036,-3.3576,-3.3981,-3.3949,-3.4614,-3.6014,-3.6287,-3.7028,-3.8204,-3.8566,-3.9133,-3.9819,-3.9517,-3.9723,-4.0232,-3.9833,-3.982,-4.0091,-4.0145,-4.003,-3.984,-3.985,-3.9879,-3.9909,-4.0202,-4.0326,-4.0423,-4.0636,-4.074,0.0,0.0,0.0,0.0,0.0,0.0,0.0,0.0,0.0,0.0,0.0,0.0,0.0,0.0,0.0,0.0,0.0,0.0,0.0,-5.1404,-5.1991,-5.273,-5.353,-5.417,-5.4576,-5.4653,-5.5199,-5.5583,-5.5695,-5.5703,-5.5703,-5.5703,-5.5703,-5.5703,-5.5703,-5.5703,0.0,-5.5703,-5.5629,-5.5562,-5.5504,-5.5432,-5.5164,-5.47,0.0,0.0,-5.3584,-5.3316,-5.3185,-5.3185,-5.3185,-5.3185,-5.3185,-5.3185,-5.306,-5.2868,-5.2806,-5.269,-5.2549,-5.2521,-5.1466,-5.0112,0.0,0.0,0.0,0.0,0.0,0.0,0.0,0.0,0.0,0.0,-3.833,-3.793,-3.7505,-3.688,-3.6143,-3.5232,-3.4087,0.0,-3.2437,-3.2398,-3.2299,-3.2061,-3.2451,-3.2594,-3.2382,-3.2549,-3.3048,-3.3906,-3.382,-3.4299,-3.5255,-3.5595,-3.6245,-3.7186,-3.7697,-3.8492,-3.9378,-3.9269,-3.9698,-4.0452,-3.9831,-3.9742,-3.9969,-4.017,-4.0095,-3.9892,-3.9943,-3.9986,-4.0077,-4.0168,-4.0241,-4.0315,-4.0457,-4.0584,-4.0717,0.0,0.0,0.0,0.0,0.0,0.0,0.0,0.0,0.0,0.0,0.0,0.0,0.0,0.0,-4.9687,0.0,0.0,-5.1543,-5.1972,-5.2422,-5.3144,-5.4423,-5.4912,-5.5213,-5.5378,-5.567,-5.5817,-5.5766,-5.5724,-5.5703,-5.5703,-5.5703,-5.5703,-5.5703,-5.5703,-5.5703,-5.5703,-5.5682,-5.5618,-5.5551,-5.548,-5.5243,-5.4851,-5.4479,-5.4088,-5.3701,-5.3339,-5.3185,-5.3185,-5.3185,-5.3185,-5.3185,-5.3124,-5.2977,-5.2783,-5.2739,-5.2622,-5.2498,-5.2498,-5.1737,-5.0633,0.0,0.0,0.0,0.0,0.0,0.0,0.0,0.0,0.0,0.0,-3.8542,-3.818,-3.7826,-3.7018,-3.6088,0.0,0.0,-3.2574,-3.2425,-3.2398,-3.237,-3.2259,-3.2014,-3.2035,-3.2392,-3.2285,-3.272,-3.3702,-3.3811,-3.3951,-3.4196,-3.4677,-3.5225,-3.5853,-3.6599,-3.7597,-3.8734,-3.8897,-3.9493,-4.0281,-3.9782,-3.9547,-3.9488,-3.9648,-3.9614,-3.9549,-3.9682,-3.9804,-3.9903,-3.9965,-4.006,-4.0157,-4.0248,-4.0412,-4.0597,-4.0602,-4.0675,0.0,0.0,0.0,0.0,0.0,0.0,0.0,0.0,0.0,-4.8105,-4.8965,-4.9707,-5.0254,-5.0391,-5.0957,-5.1699,-5.2558,-5.2832,-5.3496,-5.5078,-5.5403,-5.5639,-5.609,-5.6027,-5.5913,-5.5817,-5.5756,-5.5714,-5.5703,-5.5703,-5.5703,-5.5703,-5.5703,-5.5703,-5.5703,-5.5703,-5.5682,-5.5596,-5.5539,-5.532,-5.499,-5.4588,-5.4174,-5.3796,-5.3461,-5.3251,-5.3185,-5.3185,-5.3185,-5.3185,-5.3082,-5.2955,-5.2783,-5.2676,-5.2581,-5.2498,-5.2498,-5.1991,-5.1176,0.0,0.0,0.0,0.0,0.0,0.0,0.0,0.0,0.0,0.0,0.0,0.0,0.0,0.0,0.0,0.0,-3.391,-3.3235,-3.2453,-3.2398,-3.2203,-3.1796,-3.2222,-3.2154,-3.1394,-3.2421,-3.2768,-3.2317,-3.3218,-3.3556,-3.3444,-3.3962,-3.481,-3.5915,-3.6415,-3.744,-3.8816,-3.9104,-3.9259,-3.9248,-3.9204,-3.8999,-3.8755,-3.8869,-3.8913,-3.8948,-3.9313,-3.9489,-3.9563,-3.9556,-3.9568,-3.9644,-4.0002,-4.0129,-4.0221,-4.0503,-4.0602,-4.1001,-4.2724,-4.4287,-4.5527,-4.592,-4.6597,-4.7248,0.0,0.0,-4.9002,-4.9862,-5.0136,-5.043,-5.1133,-5.1348,-5.1699,-5.2558,-5.3359,-5.4199,-5.5156,-5.5957,-5.6393,-5.6292,-5.6154,-5.5998,-5.5827,-5.5787,-5.5766,-5.5695,-5.5703,-5.5703,-5.5703,-5.5703,-5.5703,-5.5703,-5.5703,-5.5682,-5.5596,-5.5539,-5.5456,-5.5339,-5.4938,-5.4557,-5.421,-5.3833,-5.3482,-5.3185,-5.3185,-5.3185,-5.3185,-5.3185,-5.3039,-5.2806,-5.2783,-5.2667,-5.2498,-5.2498,-5.1991,-5.1176,0.0,0.0,0.0,0.0,0.0,0.0,0.0,0.0,0.0,0.0,0.0,0.0,0.0,0.0,0.0,-3.4948,-3.4415,-3.3742,-3.2922,-3.2949,-3.2707,-3.2148,-3.1994,-3.1945,-3.1911,-3.2065,-3.2209,-3.2274,-3.2691,-3.2853,-3.2792,-3.3089,-3.3563,-3.417,-3.4559,-3.5468,-3.6654,-3.6876,-3.7357,-3.7902,-3.7556,-3.7604,-3.7889,-3.7749,-3.7936,-3.8348,-3.9004,-3.9298,0.0,-3.9389,-3.9414,-3.9502,-3.981,-4.002,-4.0148,-4.0417,-4.0542,-4.0981,-4.2736,-4.4443,-4.579,-4.5964,-4.668,-4.7538,-4.8206,-4.8997,-4.9858,-5.0718,-5.0896,-5.0995,-5.1347,-5.1406,-5.1855,0.0,-5.3769,-5.4473,-5.5859,-5.6367,-5.6534,-5.6313,-5.6247,-5.613,-5.5933,-5.5846,-5.5787,-5.5756,-5.5724,-5.5703,-5.5703,-5.5703,-5.5703,-5.5703,-5.5703,-5.5692,-5.5671,-5.5585,-5.5527,-5.5456,-5.505,-5.4758,-5.4576,-5.3979,-5.3524,-5.3185,-5.3185,-5.3185,-5.3185,-5.3103,-5.2977,-5.2783,-5.2698,-5.2622,-5.2498,-5.2498,-5.2281,-5.181,0.0,0.0,0.0,0.0,0.0,0.0,0.0,0.0,0.0,0.0,0.0,0.0,0.0,0.0,0.0,-3.538,-3.4901,-3.4284,-3.3547,-3.3572,-3.3313,-3.2641,-3.2173,-3.1977,-3.2153,-3.1838,-3.1806,-3.1971,-3.2272,-3.2327,-3.223,-3.244,-3.2694,-3.2991,-3.3377,-3.4148,-3.5175,-3.551,-3.6103,-3.6837,-3.6532,-3.6729,-3.7178,-3.7051,-3.7377,-3.7997,-3.8673,-3.9017,-3.9124,-3.9105,-3.9132,-3.9227,-3.9477,-3.9747,-3.9982,-4.0196,-4.0715,-4.1563,-4.3073,-4.4573,-4.5757,-4.5934,-4.6843,-4.7905,-4.869,-4.9695,-5.0635,-5.1279,-5.14,-5.1403,-5.1403,-5.1405,-5.1972,-5.3711,-5.4004,-5.4609,-5.6348,-5.6601,-5.6536,-5.6381,-5.6324,-5.623,-5.607,-5.5933,-5.5846,-5.5797,-5.5756,-5.5724,-5.5703,-5.5703,-5.5703,-5.5703,-5.5703,-5.5703,-5.5703,-5.5607,-5.5551,-5.5492,-5.5197,-5.4957,-5.4776,-5.4051,-5.3524,-5.3185,-5.3185,-5.3185,-5.3185,-5.3103,-5.2955,-5.2783,-5.2698,-5.2581,-5.2498,-5.2498,-5.2498,-5.2263,0.0,0.0,0.0,0.0,0.0,0.0,0.0,0.0,0.0,0.0,0.0,0.0,0.0,0.0,-3.6542,-3.5742,-3.5363,-3.4878,-3.4211,-3.4186,-3.3887,-3.3209,-3.3039,-3.2516,-3.1538,-3.1946,-3.1757,-3.0962,-3.1928,-3.2198,-3.1828,-3.223,-3.2691,-3.3223,-3.3698,-3.4397,-3.534,-3.62,-3.6437,-3.6269,-3.6774,-3.6879,-3.6761,-3.7076,-3.7523,-3.8035,-3.8318,-3.8562,-3.8704,-3.8634,-3.8631,-3.8673,-3.8943,-3.9244,-3.9564,-3.9838,-4.1294,-4.3041,-4.3933,-4.4843,-4.5563,-4.5841,-4.7195,-4.8521,-4.874,-5.0134,-5.137,-5.139,-5.1395,-5.1398,-5.1398,-5.1402,-5.1971,-5.3729,-5.4003,-5.4609,-5.6348,-5.6601,-5.658,-5.6491,-5.6377,-5.6271,0.0,-5.607,-5.5933,-5.5816,-5.5787,-5.5766,-5.5695,-5.5703,-5.5703,-5.5703,-5.5703,-5.5703,-5.5703,-5.5573,-5.5504,-5.5504,-5.5415,-5.5187,-5.4776,-5.4051,-5.3524,-5.3185,-5.3185,-5.3185,-5.3185,-5.3185,-5.3039,-5.2806,-5.2783,-5.2667,-5.2498,-5.2498,-5.2498,-5.2263,0.0,0.0,0.0,0.0,0.0,0.0,0.0,0.0,0.0,0.0,0.0,0.0,0.0,0.0,0.0,0.0,-3.6228,-3.5666,-3.4793,-3.4728,-3.4407,-3.3688,-3.3135,-3.268,-3.2228,-3.1835,-3.1457,-3.1174,-3.1484,-3.1602,-3.1466,-3.1827,-3.2109,-3.2286,-3.2605,-3.324,-3.4064,-3.4542,-3.5079,-3.5636,-3.5989,-3.6354,-3.6726,-3.6921,-3.7376,-3.7933,0.0,-3.8103,-3.8302,-3.8267,-3.8348,-3.8507,-3.8729,-3.9088,-3.9642,-4.0708,-4.2298,-4.3762,-4.4106,-4.4806,-4.551,-4.5757,-4.7144,-4.8505,-4.8744,-5.0159,-5.1392,-5.1398,-5.1407,-5.1393,-5.1393,-5.1397,-5.1967,-5.3726,-5.4002,-5.4608,-5.6347,-5.6601,-5.658,-5.6513,-5.6377,0.0,0.0,0.0,0.0,-5.5933,-5.5846,-5.5787,-5.5766,-5.5724,-5.5703,-5.5703,-5.5703,-5.5703,-5.5703,-5.5671,-5.5585,-5.5504,-5.5428,-5.5187,-5.4776,-5.4311,-5.3888,-5.3524,-5.3314,-5.3185,-5.3185,-5.3185,-5.3082,-5.2915,-5.2828,-5.2694,-5.2559,-5.2503,-5.2154,-5.1538,0.0,0.0,0.0,0.0,0.0,0.0,0.0,0.0,0.0,0.0,0.0,0.0,0.0,0.0,0.0,0.0,0.0,-3.6374,-3.5654,-3.5413,-3.4944,-3.4226,-3.3387,-3.2815,-3.2547,-3.161,-3.1102,-3.1102,-3.1102,-3.1102,-3.1146,-3.1424,-3.1683,-3.1925,-3.2163,-3.2776,-3.3624,-3.3995,-3.4617,-3.5367,-3.5749,-3.619,-3.6641,-3.6801,-3.7167,0.0,-3.7558,-3.7667,-3.7845,-3.7966,-3.8188,-3.8399,-3.8573,-3.9217,-4.0162,-4.1547,-4.2918,-4.4074,-4.4459,-4.4949,-4.5438,-4.5736,-4.7107,-4.8472,-4.8746,-5.014,-5.1394,-5.1406,-5.1394,-5.1402,-5.1403,-5.1391,-5.1865,-5.329,-5.3803,-5.4508,-5.5934,-5.6405,-5.6582,-5.6534,-5.6397,-5.6285,0.0,0.0,0.0,-5.5999,-5.5924,-5.5846,-5.5797,-5.5756,-5.5724,-5.5703,-5.5703,-5.5703,-5.5703,-5.5682,-5.5596,-5.5468,-5.5421,-5.5195,-5.4791,-5.4576,-5.4192,-5.3682,-5.3482,-5.3295,-5.3185,-5.3185,-5.3082,-5.2934,-5.2828,-5.2694,-5.2522,-5.2177,-5.1737,-5.1176,0.0,0.0,0.0,0.0,0.0,0.0,0.0,0.0,0.0,0.0,0.0,0.0,0.0,0.0,0.0,0.0,0.0,0.0,-3.6748,-3.6161,-3.5532,-3.4811,-3.3793,-3.3002,-3.2508,-3.1408,-3.0881,-3.0881,-3.0881,-3.0881,-3.091,-3.1102,-3.1538,-3.213,-3.2355,-3.3002,-3.4036,-3.4577,-3.5038,-3.547,-3.6067,-3.6381,-3.6506,-3.6753,-3.6913,-3.7066,-3.7278,-3.7353,-3.741,-3.7793,-3.8089,-3.8338,-3.8546,-3.9644,-4.1103,-4.2305,-4.3238,-4.4067,-4.4952,-4.5235,-4.537,-4.5706,-4.7101,-4.846,-4.8727,-5.0143,-5.1397,-5.1394,-5.1399,-5.1401,0.0,0.0,-5.1681,-5.2561,-5.3426,-5.4308,-5.5188,-5.6051,-5.6599,0.0,0.0,0.0,0.0,0.0,0.0,-5.5999,0.0,-5.5933,-5.5797,-5.5797,-5.5766,-5.5714,-5.5703,-5.5703,-5.5703,-5.5629,-5.5539,-5.5408,-5.5408,-5.5191,-5.4821,-5.4806,-5.4409,-5.3739,-5.372,-5.3504,-5.3185,-5.3185,-5.3039,-5.2806,-5.2769,-5.2635,-5.2358,-5.1543,-5.1194,-5.1067,0.0,0.0,0.0,0.0,0.0,0.0,0.0,0.0,0.0,0.0,0.0,0.0,0.0,0.0,0.0,0.0,0.0,0.0,-3.7232,-3.6651,-3.6113,-3.5698,-3.4552,-3.3809,-3.3523,-3.2425,-3.1951,-3.2145,-3.1951,-3.1951,-3.2145,-3.2284,-3.2477,-3.2625,-3.2884,-3.3371,-3.4036,-3.4577,-3.5108,-3.5583,-3.611,-3.6381,-3.6547,-3.7052,-3.7337,-3.7503,-3.7916,-3.8037,-3.8037,-3.7984,-3.8251,-3.878,-3.9802,-4.0857,-4.1927,-4.313,-4.4064,-4.476,-4.5057,-4.5136,-4.5237,-4.5569,-4.6947,-4.8321,-4.8645,-5.0072,-5.1343,-5.1397,-5.1391,-5.1399,-5.1401,0.0,0.0,-5.2552,-5.3437,0.0,-5.5181,-5.6045,0.0,-5.6599,0.0,-5.6347,-5.6297,-5.6205,0.0,0.0,-5.5998,-5.5971,-5.5885,-5.5826,-5.5766,-5.5714,-5.5703,-5.5703,-5.5703,-5.5629,-5.5585,-5.5551,-5.5456,-5.5358,-5.5249,-5.4938,-5.4557,-5.4123,-5.3833,-5.3504,-5.3185,-5.3185,-5.3164,-5.3027,-5.2214,-5.1868,-5.1712,-5.0754,-5.0017,-4.9492,0.0,0.0,0.0,0.0,0.0,0.0,0.0,0.0,0.0,0.0,0.0,0.0,0.0,0.0,0.0,0.0,0.0,0.0,0.0,-3.7271,-3.6713,-3.6449,-3.5341,-3.4549,-3.4219,-3.3187,-3.2579,-3.2473,-3.2379,-3.2364,-3.2473,-3.2664,-3.2917,-3.3261,-3.3652,-3.4186,-3.4878,-3.5414,-3.5873,0.0,0.0,-3.6719,-3.688,-3.7266,-3.7487,-3.765,-3.8052,-3.8336,-3.8515,-3.8462,-3.8685,-3.9184,-4.0447,-4.1443,-4.2378,-4.3448,-4.4329,-4.4967,-4.5045,-4.5106,-4.522,-4.5522,-4.6943,-4.8361,-4.868,-5.0077,-5.1303,-5.1343,-5.1352,-5.1364,-5.1396,-5.1403,-5.1566,0.0,0.0,0.0,-5.4664,-5.5803,-5.6591,0.0,-5.6481,0.0,-5.6301,-5.6233,-5.6134,0.0,-5.6005,-5.5989,-5.5953,-5.5885,-5.5816,-5.5745,-5.5724,-5.5703,-5.5703,-5.5651,-5.5629,-5.5596,-5.5492,-5.5432,-5.5395,-5.5162,-5.4855,-5.4495,0.0,-5.3757,-5.342,-5.3251,-5.2962,-5.2514,-5.1849,-5.1362,-5.0856,-4.992,-4.9293,-4.8837,0.0,0.0,0.0,0.0,0.0,0.0,0.0,0.0,0.0,0.0,0.0,0.0,0.0,0.0,0.0,0.0,0.0,0.0,0.0,0.0,0.0,-3.7197,-3.6186,-3.5392,-3.4887,-3.3999,-3.332,-3.2808,-3.2887,-3.2887,-3.2808,-3.3035,-3.3492,-3.4129,-3.4634,-3.5268,-3.602,-3.6507,-3.6845,-3.7001,-3.702,-3.7136,-3.7324,0.0,0.0,-3.7737,-3.81,-3.851,-3.891,-3.9142,-3.9349,-3.9683,-4.0803,-4.1815,-4.2754,-4.3606,-4.4345,-4.4907,-4.4991,-4.5102,-4.5265,-4.5538,-4.7022,-4.8474,-4.8736,-5.0089,-5.1304,-5.1303,-5.1291,-5.1323,-5.1389,-5.1396,-5.1401,-5.139,0.0,-5.3873,-5.3971,-5.5404,-5.6466,-5.6591,-5.6503,-5.6397,-5.632,-5.6241,-5.6168,-5.6043,-5.6001,-5.6005,-5.5999,-5.5933,-5.5885,-5.5797,-5.5735,-5.5703,-5.5703,-5.5703,-5.5662,-5.5607,-5.5539,-5.5468,-5.5408,-5.539,-5.5159,-5.4716,0.0,0.0,-5.3604,-5.3205,-5.2556,-5.1791,-5.1408,-5.0772,-4.9955,-4.9082,-4.8728,-4.8637,0.0,0.0,0.0,0.0,0.0,0.0,0.0,0.0,0.0,0.0,0.0,0.0,0.0,0.0,0.0,0.0,0.0,0.0,0.0,0.0,0.0,-3.8178,-3.7343,-3.6704,-3.6249,-3.5672,-3.5389,-3.544,-3.5228,-3.5267,-3.544,-3.5484,-3.5567,-3.5715,-3.6027,-3.625,-3.6429,-3.679,-3.6965,-3.7004,-3.7116,-3.7249,-3.7398,0.0,0.0,0.0,-3.8691,-3.8984,-3.9344,-4.0194,-4.0496,-4.071,-4.1675,-4.2678,-4.3625,-4.4459,-4.4781,-4.4931,-4.5125,-4.518,-4.5275,-4.5603,-4.7042,-4.8472,-4.8681,-5.0068,-5.13,-5.1304,-5.13,-5.1294,-5.132,-5.1364,-5.1399,-5.1401,-5.2269,-5.3171,-5.3893,-5.4871,-5.5794,0.0,-5.6589,-5.6523,-5.6399,-5.6322,0.0,0.0,0.0,0.0,-5.5999,-5.599,-5.5924,-5.5797,-5.5735,-5.5703,-5.5703,-5.5703,-5.5684,-5.5673,-5.5562,-5.5492,-5.548,-5.5434,-5.5028,-5.438,0.0,0.0,-5.3238,-5.2514,-5.2123,-5.1807,-5.0227,-4.9521,-4.9242,-4.827,-4.7895,-4.7877,0.0,0.0,0.0,0.0,0.0,0.0,0.0,0.0,0.0,0.0,0.0,0.0,0.0,0.0,0.0,0.0,0.0,0.0,0.0,0.0,0.0,0.0,0.0,0.0,-3.7601,-3.7307,-3.7059,-3.6821,0.0,-3.6767,-3.6821,-3.6796,-3.6775,-3.6794,-3.705,-3.7178,-3.7215,-3.7666,-3.7875,-3.7945,-3.8013,-3.8097,0.0,0.0,0.0,0.0,-3.9489,-3.9784,-4.0034,-4.1078,-4.1763,-4.2303,-4.2824,-4.3365,-4.3965,-4.4821,-4.5117,-4.5186,-4.529,-4.539,-4.5627,-4.6274,-4.75,-4.8706,-4.9253,-5.0373,-5.13,-5.13,-5.1308,-5.13,-5.1291,-5.1352,-5.1408,-5.1396,-5.213,-5.2995,-5.3873,-5.4752,-5.5615,-5.6502,-5.6602,-5.6557,0.0,-5.635,0.0,0.0,0.0,0.0,-5.5996,-5.5961,-5.5895,-5.5756,-5.5724,-5.5703,-5.5703,-5.5703,-5.5703,-5.5703,-5.5596,-5.5539,-5.5492,-5.5415,-5.5208,-5.4825,0.0,0.0,-5.3051,-5.1885,-5.1132,-5.0655,-4.9667,-4.8999,-4.85,-4.799,-4.7759,-4.7717,0.0,0.0,0.0,0.0,0.0,0.0,0.0,0.0,0.0,0.0,0.0,0.0,0.0,0.0,0.0,0.0,0.0,0.0,0.0,0.0,0.0,0.0,0.0,0.0,0.0,0.0,0.0,-3.794,-3.8028,0.0,0.0,0.0,0.0,0.0,-3.8088,-3.8193,-3.8209,-3.8637,-3.89,0.0,0.0,0.0,0.0,0.0,0.0,0.0,0.0,-4.0541,-4.0745,-4.1964,-4.2918,-4.3637,-4.3961,-4.4105,-4.4359,-4.5046,-4.533,-4.541,-4.5448,-4.572,-4.618,-4.6946,-4.8066,-4.9156,-4.9831,-5.0677,-5.13,-5.13,-5.13,-5.1308,-5.131,-5.1346,-5.14,-5.1396,-5.1974,-5.2722,-5.36,-5.4478,-5.5341,-5.6227,-5.6481,0.0,-5.6444,-5.6376,0.0,0.0,0.0,0.0,0.0,-5.5933,-5.5846,-5.5745,-5.5714,-5.5703,-5.5703,-5.5703,-5.5703,-5.5703,-5.5629,-5.5573,-5.5516,-5.5272,-5.5097,-5.4949,0.0,0.0,0.0,-5.1212,-5.022,-4.9572,-4.9252,-4.8676,-4.7992,-4.7925,-4.7819,-4.7717,0.0,0.0,0.0,0.0,0.0,0.0,0.0,0.0,0.0,0.0,0.0,0.0,0.0,0.0,0.0,0.0,0.0,0.0,0.0,0.0,0.0,0.0,0.0,0.0,0.0,0.0,0.0,-3.9331,-3.9331,0.0,0.0,0.0,0.0,0.0,0.0,0.0,-3.9432,-3.9551,0.0,0.0,0.0,0.0,0.0,0.0,0.0,0.0,0.0,-4.1048,-4.1298,-4.3057,-4.3735,-4.4009,-4.4872,-4.5195,-4.5285,-4.5362,-4.539,-4.5438,-4.5545,-4.6256,-4.7023,-4.7231,-4.8579,-4.9894,-4.9976,-5.0677,-5.13,-5.13,-5.13,-5.1308,-5.131,-5.1346,-5.14,-5.1396,-5.1466,-5.1824,-5.2704,-5.3561,-5.4439,-5.532,0.0,0.0,-5.6587,0.0,0.0,0.0,0.0,0.0,0.0,-5.5933,-5.5895,-5.5885,-5.5756,-5.5703,-5.5703,-5.5703,-5.5703,-5.5703,-5.5629,-5.5596,-5.5566,-5.4702,-5.4104,-5.3703,0.0,0.0,0.0,-5.0452,-4.988,-4.9499,-4.8649,-4.8183,-4.7992,-4.7925,-4.7819,-4.7717,0.0,0.0,0.0,0.0,0.0,0.0,0.0,0.0,0.0,0.0,0.0,0.0,0.0,0.0,0.0,0.0,0.0,0.0,0.0,0.0,0.0,0.0,0.0,0.0,0.0,0.0,0.0,0.0,0.0,0.0,0.0,0.0,0.0,0.0,0.0,0.0,0.0,0.0,0.0,0.0,0.0,0.0,0.0,0.0,0.0,0.0,0.0,0.0,-4.2873,-4.4236,-4.4747,-4.4892,-4.5433,-4.5616,-4.5621,-4.5549,-4.5573,-4.5661,-4.5759,-4.6481,-4.7367,-4.7981,-4.9078,-5.0131,-5.0657,-5.1047,-5.13,-5.13,-5.13,-5.1308,-5.131,-5.1346,-5.14,-5.1396,-5.1408,-5.1707,-5.2587,-5.3444,-5.4322,-5.5201,-5.6079,0.0,0.0,0.0,0.0,0.0,0.0,0.0,0.0,-5.596,-5.5914,-5.5836,-5.5776,-5.5745,-5.5703,-5.5703,-5.5703,-5.5684,-5.5182,-5.4918,-5.4847,-5.3947,-5.341,-5.3131,0.0,0.0,0.0,-4.9787,-4.9211,-4.9067,-4.8492,-4.8208,-4.811,-4.8008,-4.7886,-4.7819,0.0,0.0,0.0,0.0,0.0,0.0,0.0,0.0,0.0,0.0,0.0,0.0,0.0,0.0,0.0,0.0,0.0,0.0,0.0,0.0,0.0,0.0,0.0,0.0,0.0,0.0,0.0,0.0,0.0,0.0,0.0,0.0,0.0,0.0,0.0,0.0,0.0,0.0,0.0,0.0,0.0,0.0,0.0,0.0,0.0,0.0,0.0,0.0,0.0,0.0,0.0,-4.5543,-4.5715,-4.5798,-4.5814,-4.57,-4.5734,-4.5906,-4.6209,-4.6985,-4.7923,-4.8852,-4.9733,-5.056,-5.1164,-5.13,-5.13,-5.13,-5.1304,-5.1316,-5.1336,-5.1369,-5.14,-5.1401,-5.1408,-5.1605,-5.2234,-5.3073,-5.3932,-5.481,0.0,0.0,0.0,0.0,0.0,0.0,0.0,0.0,0.0,-5.5996,-5.5952,-5.5836,-5.5816,-5.5766,-5.5703,-5.5453,-5.5338,-5.5338,-5.4511,-5.4086,-5.4005,-5.3119,-5.265,0.0,0.0,0.0,0.0,-4.9531,-4.8984,-4.8781,-4.855,-4.8344,-4.8187,-4.805,-4.7968,-4.7881,0.0,0.0,0.0,0.0,0.0,0.0,0.0,0.0,0.0,0.0,0.0,0.0,0.0,0.0,0.0,0.0,0.0,0.0,0.0,0.0,0.0,0.0,0.0,0.0,0.0,0.0,0.0,0.0,0.0,0.0,0.0,0.0,0.0,0.0,0.0,0.0,0.0,0.0,0.0,0.0,0.0,0.0,0.0,0.0,0.0,0.0,0.0,0.0,0.0,0.0,0.0,0.0,0.0,-4.5793,-4.5893,-4.5827,-4.5854,-4.6086,-4.6945,-4.7925,-4.888,-4.9775,-5.0648,-5.13,-5.13,-5.13,-5.13,-5.13,-5.1296,-5.1317,-5.1391,-5.1394,-5.1403,-5.139,-5.1406,-5.1403,-5.1412,-5.2156,-5.3034,0.0,0.0,0.0,0.0,0.0,0.0,0.0,0.0,0.0,0.0,0.0,-5.5959,-5.5905,-5.5836,-5.5766,-5.5703,-5.4914,-5.4511,-5.4491,-5.3626,-5.3222,-5.3173,-5.2237,0.0,0.0,0.0,0.0,0.0,-4.9803,-4.9394,-4.8799,-4.8799,-4.855,-4.8187,-4.805,-4.7968,-4.7881,0.0,0.0,0.0,0.0,0.0,0.0,0.0,0.0,0.0,0.0,0.0,0.0,0.0,0.0,0.0,0.0,0.0,0.0,0.0,0.0,0.0,0.0,0.0,0.0,0.0,0.0,0.0,0.0,0.0,0.0,0.0,0.0,0.0,0.0,0.0,0.0,0.0,0.0,0.0,0.0,0.0,0.0,0.0,0.0,0.0,0.0,0.0,0.0,0.0,0.0,0.0,0.0,0.0,0.0,0.0,-4.5933,-4.6366,-4.6926,-4.7179,-4.8404,-4.9648,-4.9932,-5.0669,-5.13,-5.13,-5.1292,-5.1147,-5.0598,-5.0947,-5.1193,-5.0614,-5.1004,-5.1397,-5.1405,-5.1405,-5.1408,0.0,0.0,0.0,-5.3891,-5.5298,0.0,0.0,0.0,0.0,0.0,0.0,0.0,0.0,0.0,-5.6091,-5.5981,-5.5905,-5.5547,-5.49,-5.4628,-5.4203,-5.3606,-5.2741,-5.2308,-5.2269,-5.1432,0.0,0.0,0.0,0.0,0.0,-4.9884,-4.9674,-4.9439,-4.8984,-4.8711,-4.855,-4.8152,-4.7644,-4.7128,0.0,0.0,0.0,0.0,0.0,0.0,0.0,0.0,0.0,0.0,0.0,0.0,0.0,0.0,0.0,0.0,0.0,0.0,0.0,0.0,0.0,0.0,0.0,0.0,0.0,0.0,0.0,0.0,0.0,0.0,0.0,0.0,0.0,0.0,0.0,0.0,0.0,0.0,0.0,0.0,0.0,0.0,-4.1019,0.0,0.0,0.0,0.0,0.0,0.0,0.0,0.0,0.0,0.0,0.0,0.0,0.0,-4.6654,-4.7378,-4.734,-4.8424,-4.9554,-4.9543,-5.019,-5.0735,-5.0424,-5.0357,-5.0212,-4.9708,-5.003,-5.0355,-5.0146,-5.053,-5.1015,-5.1355,-5.1388,-5.1375,0.0,0.0,0.0,-5.3852,0.0,0.0,0.0,0.0,0.0,0.0,0.0,0.0,0.0,0.0,-5.5682,-5.5594,-5.5495,-5.5008,-5.4053,-5.3715,-5.3281,-5.2692,-5.1856,-5.1452,-5.1433,0.0,0.0,0.0,0.0,0.0,0.0,-5.0076,-4.9844,-4.957,-4.9145,-4.8646,-4.8125,-4.7751,-4.7083,-4.6331,0.0,0.0,0.0,0.0,0.0,0.0,0.0,0.0,0.0,0.0,0.0,0.0,0.0,0.0,0.0,0.0,0.0,0.0,0.0,0.0,0.0,0.0,0.0,0.0,0.0,0.0,0.0,-4.0891,-4.095,-4.0989,-4.0989,0.0,0.0,0.0,0.0,0.0,0.0,0.0,0.0,0.0,0.0,0.0,0.0,0.0,0.0,0.0,0.0,0.0,0.0,0.0,0.0,0.0,0.0,0.0,0.0,0.0,0.0,0.0,0.0,-4.8039,-4.8806,-4.881,-4.9352,-4.9722,-4.8966,-4.8791,0.0,-4.8717,-4.876,-4.9058,-4.9853,-5.0056,-5.0381,-5.1252,-5.134,-5.1323,0.0,-5.1457,0.0,0.0,0.0,0.0,0.0,0.0,0.0,0.0,0.0,0.0,0.0,0.0,0.0,-5.4724,-5.4587,-5.4118,-5.3215,-5.2416,-5.1944,-5.1808,-5.1048,-5.0712,-5.0712,0.0,0.0,0.0,0.0,0.0,0.0,-5.0302,-4.9904,-4.9284,-4.9239,-4.8338,-4.7077,-4.6964,-4.6337,-4.5493,0.0,0.0,0.0,0.0,0.0,0.0,0.0,0.0,0.0,0.0,0.0,0.0,0.0,0.0,0.0,0.0,0.0,0.0,0.0,0.0,0.0,0.0,0.0,0.0,0.0,0.0,0.0,-4.0825,-4.1485,-4.182,-4.1839,-4.244,0.0,0.0,0.0,0.0,0.0,0.0,0.0,0.0,0.0,0.0,0.0,0.0,0.0,0.0,-4.5488,-4.5937,0.0,0.0,0.0,0.0,0.0,0.0,0.0,0.0,-4.632,-4.6508,-4.6482,0.0,-4.8791,-4.8805,-4.8934,-4.9028,0.0,-4.8808,-4.8616,-4.795,-4.833,-4.886,-4.9076,-4.9655,-5.0368,-5.1183,-5.1312,-5.1323,-5.1394,0.0,0.0,0.0,0.0,0.0,0.0,0.0,0.0,0.0,0.0,0.0,0.0,0.0,0.0,-5.2956,-5.2874,-5.2697,-5.2385,-5.2126,-5.1655,-5.0971,-5.0789,-5.0712,-5.0712,0.0,0.0,0.0,0.0,0.0,0.0,-5.0314,-4.983,-4.9093,-4.8588,-4.78,-4.6874,-4.6286,-4.5497,-4.4673,0.0,0.0,0.0,0.0,0.0,0.0,0.0,0.0,0.0,0.0,0.0,0.0,0.0,0.0,0.0,0.0,0.0,0.0,0.0,0.0,0.0,0.0,0.0,0.0,0.0,0.0,0.0,0.0,0.0,-4.2647,0.0,0.0,0.0,0.0,0.0,0.0,0.0,0.0,0.0,0.0,-4.2022,0.0,0.0,0.0,0.0,0.0,-4.5799,-4.6097,0.0,-4.6102,-4.6127,-4.615,0.0,0.0,0.0,0.0,-4.6147,-4.6155,-4.6197,-4.7179,-4.8103,-4.771,-4.7902,-4.8097,-4.7702,-4.761,-4.7476,-4.7043,-4.7611,-4.833,-4.873,-4.9505,-5.0355,-5.1163,-5.1323,0.0,0.0,0.0,-5.2429,0.0,0.0,0.0,0.0,0.0,0.0,0.0,0.0,0.0,0.0,0.0,0.0,0.0,-5.1997,-5.1696,-5.1541,-5.1478,-5.1192,-5.0702,-5.0702,-5.0712,-5.0712,0.0,0.0,0.0,0.0,0.0,-4.9789,-4.9767,-4.9167,-4.8249,-4.7864,-4.7074,-4.6047,-4.5594,-4.4765,-4.3853,0.0,0.0,0.0,0.0,0.0,0.0,0.0,0.0,0.0,0.0,0.0,0.0,0.0,0.0,0.0,0.0,0.0,0.0,0.0,0.0,0.0,0.0,0.0,0.0,0.0,0.0,0.0,0.0,0.0,0.0,0.0,0.0,-4.375,0.0,0.0,0.0,0.0,0.0,0.0,0.0,-4.3358,0.0,0.0,0.0,0.0,0.0,0.0,0.0,0.0,-4.6076,-4.6083,-4.6093,-4.609,0.0,0.0,0.0,0.0,0.0,-4.6171,-4.6718,-4.7114,-4.6387,-4.6755,-4.7103,-4.6387,-4.6211,-4.6233,-4.6286,-4.6943,-4.7774,-4.864,-4.9513,-5.038,0.0,0.0,0.0,-5.1396,-5.1408,0.0,0.0,0.0,0.0,0.0,0.0,0.0,0.0,0.0,0.0,0.0,0.0,0.0,0.0,-5.1568,-5.1056,-5.0929,-5.0836,-5.0775,-5.0701,-5.0693,-5.0712,-5.0712,-5.0558,0.0,0.0,0.0,0.0,-4.893,-4.892,-4.8216,-4.7169,-4.7131,-4.6313,-4.5115,-4.4923,-4.4183,-4.3268,0.0,0.0,0.0,0.0,0.0,0.0,0.0,0.0,0.0,0.0,0.0,0.0,0.0,0.0,0.0,0.0,0.0,0.0,0.0,0.0,0.0,0.0,0.0,0.0,0.0,0.0,0.0,0.0,0.0,0.0,-4.6515,-4.652,-4.5761,-4.4362,0.0,-4.3305,-4.3305,-4.3305,-4.3305,-4.3292,-4.3312,0.0,0.0,0.0,0.0,0.0,0.0,0.0,0.0,-4.5928,-4.6018,-4.6083,-4.6022,0.0,0.0,0.0,0.0,0.0,-4.6103,-4.6205,-4.6308,-4.63,-4.6333,-4.6389,-4.6292,-4.6288,-4.6286,-4.6296,-4.6999,-4.7834,-4.8643,-4.9501,-5.0374,0.0,0.0,-5.1396,0.0,0.0,0.0,0.0,0.0,0.0,0.0,0.0,0.0,0.0,0.0,0.0,0.0,0.0,0.0,0.0,0.0,-5.1152,-5.1069,-5.089,-5.0775,-5.0701,-5.0693,-5.0712,-5.0673,-4.9933,-4.9586,0.0,0.0,0.0,-4.817,-4.8107,-4.7515,-4.6595,-4.6377,-4.5698,-4.48,-4.4337,-4.3968,-4.3644,0.0,0.0,0.0,0.0,0.0,0.0,0.0,0.0,0.0,0.0,0.0,0.0,0.0,0.0,0.0,0.0,0.0,0.0,0.0,0.0,0.0,0.0,0.0,0.0,0.0,0.0,0.0,0.0,0.0,-4.6924,-4.775,-4.7272,-4.6623,-4.5862,0.0,-4.4629,-4.465,-4.465,-4.4645,-4.4639,0.0,0.0,0.0,0.0,0.0,0.0,0.0,0.0,0.0,0.0,-4.5941,-4.5989,-4.596,0.0,0.0,0.0,0.0,0.0,-4.6089,-4.6097,-4.6113,-4.6229,-4.6211,-4.6211,-4.623,-4.6248,-4.6379,-4.6849,-4.764,-4.8504,-4.9356,-5.0215,-5.0935,-5.1321,0.0,0.0,0.0,0.0,0.0,0.0,0.0,0.0,0.0,0.0,0.0,0.0,0.0,0.0,0.0,0.0,0.0,0.0,0.0,0.0,-5.1157,-5.0992,-5.0871,-5.0747,-5.0287,-5.0038,-4.9971,-4.9086,-4.8702,0.0,0.0,-4.778,-4.7298,-4.7268,-4.6689,-4.584,-4.5722,-4.5228,-4.4506,-4.3889,-4.3565,-4.3392,0.0,0.0,0.0,0.0,0.0,0.0,0.0,0.0,0.0,0.0,0.0,0.0,0.0,0.0,0.0,0.0,0.0,0.0,0.0,0.0,0.0,0.0,0.0,0.0,0.0,0.0,-4.6175,-4.7003,-4.7196,-4.764,-4.8276,-4.7593,-4.7072,0.0,0.0,-4.5731,-4.5773,-4.5795,-4.5791,-4.5793,0.0,0.0,0.0,0.0,0.0,0.0,0.0,0.0,0.0,0.0,0.0,0.0,0.0,0.0,0.0,-4.5986,-4.5983,-4.5982,-4.6063,-4.6084,-4.608,-4.6139,-4.6189,-4.6241,-4.6436,-4.6498,-4.6758,-4.7617,-4.8507,-4.9306,-4.9987,-5.0809,0.0,-5.1394,-5.1408,0.0,0.0,0.0,0.0,0.0,0.0,0.0,0.0,0.0,0.0,0.0,0.0,0.0,0.0,0.0,0.0,0.0,0.0,0.0,-5.0917,-5.0786,-5.0653,-5.0501,-4.9823,-4.9373,-4.9086,-4.8221,-4.7817,-4.7817,-4.7605,-4.7088,-4.6397,-4.6397,-4.5954,-4.5307,-4.5307,-4.4929,-4.4332,-4.3747,-4.3358,-4.3105,0.0,0.0,0.0,0.0,0.0,0.0,0.0,0.0,0.0,0.0,0.0,0.0,0.0,0.0,0.0,0.0,0.0,0.0,0.0,0.0,0.0,0.0,0.0,0.0,0.0,-4.5708,-4.6132,-4.7,-4.7811,-4.8235,-4.8293,-4.8165,-4.7279,-4.5785,-4.5785,-4.5765,-4.5715,-4.5771,-4.5805,-4.5795,-4.5793,0.0,0.0,0.0,0.0,0.0,0.0,0.0,0.0,0.0,0.0,0.0,0.0,0.0,-4.5911,-4.5911,-4.5917,-4.5923,-4.5983,-4.6014,-4.6,-4.6017,-4.6109,-4.6397,-4.7137,-4.7356,-4.7656,-4.8535,-4.9405,-5.0026,-5.0085,-5.0809,-5.1394,-5.1394,0.0,0.0,0.0,0.0,0.0,0.0,0.0,0.0,0.0,0.0,0.0,0.0,0.0,0.0,0.0,0.0,0.0,0.0,0.0,0.0,-5.01,-4.9945,-4.9815,-4.9682,-4.9571,-4.9074,-4.8265,-4.7373,-4.6981,-4.6942,-4.6124,-4.5676,-4.5477,-4.5477,-4.5418,-4.5307,-4.5307,-4.4929,-4.4355,-4.4079,-4.3614,-4.3196,0.0,0.0,0.0,0.0,0.0,0.0,0.0,0.0,0.0,0.0,0.0,0.0,0.0,0.0,0.0,0.0,0.0,0.0,0.0,0.0,0.0,0.0,0.0,-4.5671,-4.5646,-4.5671,-4.6025,-4.6676,-4.752,-4.7843,-4.7657,-4.7473,0.0,0.0,-4.5823,-4.5679,-4.5706,-4.5719,-4.5743,-4.5731,-4.5746,-4.5734,0.0,0.0,0.0,0.0,0.0,0.0,0.0,0.0,-4.5814,-4.5847,-4.5847,-4.5867,-4.5899,-4.5899,-4.5893,-4.5911,-4.5923,-4.5949,-4.5955,-4.5983,-4.644,-4.6967,-4.7271,-4.7392,-4.7832,-4.9242,-4.9843,-5.0265,-5.0813,0.0,-5.1394,-5.1394,0.0,0.0,0.0,0.0,0.0,0.0,0.0,0.0,0.0,0.0,0.0,0.0,0.0,0.0,0.0,0.0,0.0,0.0,0.0,0.0,0.0,-4.9148,-4.8807,-4.8164,-4.8058,-4.7786,-4.736,-4.6523,-4.6131,-4.6067,-4.5748,-4.5559,-4.5448,-4.5419,-4.538,-4.5338,-4.5098,-4.4745,-4.4374,-4.4091,-4.3647,-4.3214,0.0,0.0,0.0,0.0,0.0,0.0,0.0,0.0,0.0,0.0,0.0,0.0,0.0,0.0,0.0,0.0,0.0,0.0,0.0,0.0,0.0,0.0,0.0,-4.5513,-4.5466,-4.5429,-4.5629,-4.609,-4.6835,-4.7101,-4.6916,0.0,0.0,-4.5954,-4.5551,-4.54,-4.5419,-4.5428,-4.5456,-4.5455,-4.5454,-4.5454,0.0,0.0,0.0,0.0,0.0,0.0,0.0,0.0,-4.5673,-4.5681,-4.5766,-4.5821,-4.586,-4.586,-4.588,-4.5861,-4.5893,-4.5893,-4.5905,-4.5955,-4.662,-4.7344,-4.7645,-4.7957,-4.8607,-5.0076,-5.043,-5.0663,-5.1267,0.0,0.0,0.0,0.0,0.0,0.0,0.0,0.0,0.0,0.0,0.0,0.0,0.0,0.0,0.0,0.0,0.0,0.0,0.0,0.0,0.0,0.0,0.0,0.0,-4.8333,-4.7864,-4.6943,-4.6837,-4.6705,-4.6542,-4.5957,-4.5657,-4.5594,-4.5594,-4.5568,-4.5495,-4.5429,-4.538,-4.5338,-4.4957,-4.4637,-4.4374,-4.4091,-4.3647,-4.3214,0.0,0.0,0.0,0.0,0.0,0.0,0.0,0.0,0.0,0.0,0.0,0.0,0.0,0.0,0.0,0.0,0.0,0.0,0.0,0.0,0.0,0.0,0.0,-4.5201,-4.5201,-4.4919,-4.4938,-4.5201,-4.5786,-4.6082,-4.6082,-4.6095,0.0,-4.4788,-4.4879,-4.4861,-4.48,-4.4874,-4.4905,-4.4896,-4.4897,-4.4901,-4.4935,0.0,0.0,0.0,0.0,0.0,0.0,0.0,-4.5399,-4.5444,-4.5723,-4.5807,-4.5807,-4.5807,-4.5807,-4.5814,-4.5886,-4.59,-4.5906,-4.5899,-4.6564,-4.7462,-4.8392,-4.9275,-5.0155,-5.1028,-5.1241,-5.1297,-5.1297,-5.1341,0.0,0.0,0.0,0.0,0.0,0.0,0.0,0.0,0.0,0.0,0.0,0.0,0.0,0.0,0.0,0.0,0.0,0.0,0.0,0.0,0.0,0.0,0.0,-4.7528,-4.7063,-4.6202,-4.6134,-4.5996,-4.5808,-4.5719,-4.5657,-4.5594,-4.5594,-4.5568,-4.5495,-4.5429,-4.5361,-4.5256,-4.4934,-4.4637,-4.4374,-4.4091,-4.3664,-4.3214,0.0,0.0,0.0,0.0,0.0,0.0,0.0,0.0,0.0,0.0,0.0,0.0,0.0,0.0,0.0,0.0,0.0,0.0,0.0,0.0,0.0,0.0,0.0,0.0,0.0,0.0,-4.4559,-4.4637,-4.4817,-4.4819,0.0,0.0,-4.4947,-4.4519,-4.4739,-4.4812,-4.48,-4.4818,-4.4837,-4.4825,-4.483,-4.483,-4.4842,0.0,0.0,0.0,0.0,0.0,0.0,0.0,0.0,0.0,-4.5704,-4.5761,-4.5803,-4.5803,-4.5805,-4.5807,-4.5821,-4.5821,-4.5827,-4.5887,-4.7017,-4.8186,-4.8471,-4.9192,-5.0086,-5.1012,-5.1241,-5.1297,-5.1297,-5.1325,0.0,0.0,0.0,0.0,0.0,0.0,0.0,0.0,0.0,0.0,0.0,0.0,0.0,0.0,0.0,0.0,0.0,0.0,0.0,0.0,0.0,0.0,0.0,0.0,-4.6521,-4.6267,-4.6204,-4.6033,-4.5808,-4.5777,-4.5723,-4.5594,-4.5594,-4.5586,-4.5568,-4.5438,-4.538,-4.5348,-4.5205,-4.4946,-4.465,-4.4388,-4.3992,-4.3577,0.0,0.0,0.0,0.0,0.0,0.0,0.0,0.0,0.0,0.0,-4.4562,0.0,0.0,0.0,0.0,0.0,0.0,0.0,0.0,0.0,0.0,0.0,0.0,0.0,0.0,-4.4318,-4.425,0.0,0.0,0.0,0.0,0.0,-4.4402,-4.425,-4.4416,-4.4484,-4.4484,-4.4484,-4.4484,-4.4484,-4.4484,-4.4484,-4.4479,0.0,0.0,0.0,0.0,0.0,0.0,0.0,0.0,0.0,-4.5361,-4.5408,-4.5463,-4.556,-4.561,-4.5665,-4.5764,-4.5793,-4.5814,-4.5854,-4.717,-4.8648,-4.9341,-4.9912,-5.0485,-5.1069,-5.123,-5.1264,-5.1264,-5.1268,0.0,0.0,0.0,0.0,0.0,0.0,0.0,0.0,0.0,0.0,0.0,0.0,0.0,0.0,0.0,0.0,0.0,0.0,0.0,0.0,0.0,0.0,0.0,0.0,0.0,-4.6308,-4.6265,-4.6123,-4.592,-4.5842,-4.5769,-4.5676,-4.562,-4.5586,-4.5559,-4.5438,-4.539,-4.5379,-4.5328,-4.5098,-4.4776,-4.4612,-4.4227,-4.367,0.0,0.0,0.0,0.0,0.0,0.0,0.0,0.0,0.0,0.0,-4.4401,-4.4505,0.0,0.0,0.0,0.0,0.0,0.0,0.0,0.0,0.0,0.0,0.0,0.0,0.0,0.0,0.0,0.0,0.0,0.0,0.0,-4.4005,-4.4005,-4.4005,-4.4005,-4.4005,-4.4005,-4.4005,-4.4005,-4.4005,-4.4005,-4.4005,-4.4036,-4.4279,0.0,0.0,0.0,0.0,0.0,0.0,0.0,0.0,-4.4796,-4.489,-4.4946,-4.5197,-4.5323,-4.5435,-4.57,-4.5776,-4.58,-4.58,-4.7115,-4.8851,-5.0494,-5.0984,-5.1114,-5.1171,0.0,-5.1196,-5.1202,0.0,0.0,0.0,0.0,0.0,0.0,0.0,0.0,0.0,0.0,0.0,0.0,0.0,0.0,0.0,0.0,0.0,0.0,0.0,0.0,0.0,0.0,0.0,0.0,0.0,0.0,0.0,-4.6348,-4.6245,-4.6113,-4.5906,-4.5796,-4.5778,-4.5643,-4.5568,-4.5504,-4.5429,-4.54,-4.5389,-4.5328,-4.5071,-4.473,-4.4662,-4.4186,-4.3426,0.0,0.0,0.0,0.0,0.0,0.0,0.0,0.0,0.0,0.0,0.0,0.0,0.0,0.0,0.0,0.0,0.0,0.0,0.0,0.0,0.0,0.0,0.0,0.0,0.0,0.0,0.0,0.0,0.0,0.0,-4.4005,-4.4005,-4.4005,-4.4005,-4.4005,-4.4005,-4.4005,-4.4005,-4.4005,-4.4005,-4.4005,-4.4005,-4.402,-4.4064,-4.4048,0.0,0.0,0.0,0.0,0.0,0.0,0.0,-4.4793,-4.4853,-4.49,-4.4977,-4.5144,-4.5333,-4.5399,-4.5605,-4.5803,-4.5803,-4.7112,-4.8677,-4.9739,-5.0516,-5.1029,-5.1114,-5.1127,-5.1133,0.0,0.0,0.0,0.0,0.0,0.0,0.0,0.0,0.0,0.0,0.0,0.0,0.0,0.0,0.0,0.0,0.0,0.0,0.0,0.0,0.0,0.0,0.0,0.0,-4.8613,-4.7754,-4.7324,0.0,-4.6621,-4.6288,-4.6243,-4.5997,-4.5795,-4.5646,-4.5612,-4.5586,-4.5568,-4.5448,-4.54,-4.54,-4.5319,-4.4845,-4.4119,-4.3706,-4.2986,-4.2108,0.0,0.0,0.0,0.0,0.0,0.0,0.0,0.0,0.0,0.0,0.0,0.0,0.0,0.0,0.0,0.0,0.0,0.0,0.0,0.0,0.0,0.0,0.0,0.0,0.0,0.0,0.0,0.0,0.0,-4.4005,-4.4005,-4.4005,-4.4005,-4.4005,-4.4005,-4.4005,-4.4005,-4.4005,-4.4005,-4.4005,-4.4005,-4.4005,-4.4005,-4.4005,-4.4005,-4.402,-4.4166,0.0,0.0,0.0,0.0,0.0,0.0,0.0,-4.4479,-4.4624,-4.4775,-4.495,-4.5061,-4.5236,-4.5504,-4.608,-4.6937,-4.7882,-4.8871,-4.9434,-4.9778,-4.9834,-5.0183,0.0,0.0,0.0,0.0,0.0,0.0,0.0,0.0,0.0,0.0,0.0,0.0,0.0,0.0,0.0,0.0,0.0,0.0,0.0,0.0,0.0,0.0,0.0,0.0,0.0,-4.8281,-4.6992,-4.6152,-4.5723,-4.5273,-4.5037,-4.5003,-4.5238,-4.501,-4.445,-4.4408,-4.4393,-4.4393,-4.4295,-4.423,-4.4192,-4.4125,-4.3827,-4.3384,-4.2972,-4.2365,-4.1633,0.0,0.0,0.0,0.0,0.0,0.0,0.0,0.0,0.0,0.0,0.0,0.0,0.0,0.0,0.0,0.0,0.0,0.0,0.0,0.0,0.0,0.0,0.0,0.0,0.0,0.0,0.0,0.0,0.0,-4.4005,-4.4005,-4.4005,-4.4005,-4.4005,-4.4005,-4.4005,-4.4005,-4.4005,-4.4005,-4.4005,-4.4005,-4.4005,-4.4005,-4.4005,-4.4005,-4.4005,-4.4005,-4.4005,-4.4005,-4.4005,0.0,0.0,0.0,0.0,-4.4033,-4.4279,-4.4397,-4.4533,-4.4751,-4.4865,-4.5148,-4.6176,-4.6608,-4.7006,-4.7917,-4.828,-4.8426,-4.85,-4.9058,0.0,0.0,0.0,0.0,0.0,0.0,0.0,0.0,0.0,0.0,0.0,0.0,0.0,0.0,0.0,0.0,0.0,0.0,0.0,0.0,0.0,0.0,0.0,0.0,-4.826,-4.7383,-4.5801,-4.4648,-4.3926,-4.3769,-4.3589,-4.3402,-4.4007,-4.3894,-4.3195,-4.3138,-4.3104,-4.3077,-4.3026,-4.2944,-4.2889,-4.2824,-4.2718,-4.2545,-4.2267,-4.1788,-4.1152,0.0,0.0,0.0,0.0,0.0,0.0,0.0,0.0,0.0,0.0,-4.4036,-4.4371,0.0,0.0,0.0,0.0,0.0,0.0,0.0,0.0,0.0,0.0,0.0,0.0,0.0,0.0,0.0,0.0,-4.4005,-4.4005,-4.4005,-4.4005,-4.4005,-4.4005,-4.4005,-4.4005,-4.4005,-4.4005,-4.4005,-4.4005,-4.4005,-4.4005,-4.4005,-4.4005,-4.4005,-4.4005,-4.4005,-4.4005,-4.4005,-4.4005,-4.4005,0.0,0.0,0.0,-4.402,-4.4033,-4.4221,-4.4411,-4.4452,-4.4688,-4.4981,-4.5241,-4.6032,-4.6761,-4.6968,-4.773,-4.8426,0.0,0.0,0.0,0.0,0.0,0.0,0.0,0.0,0.0,0.0,0.0,0.0,0.0,0.0,0.0,0.0,0.0,0.0,0.0,0.0,0.0,0.0,0.0,-4.8708,-4.8131,-4.7881,0.0,-4.6483,-4.5488,-4.4941,-4.4824,-4.4062,-4.33,-4.2554,-4.2596,-4.2833,-4.3208,-4.3135,-4.3104,-4.3096,-4.2961,-4.2898,-4.2889,-4.2824,-4.2345,-4.1647,-4.1374,-4.0568,-3.9548,0.0,0.0,0.0,0.0,0.0,0.0,0.0,0.0,0.0,0.0,0.0,-4.4321,0.0,0.0,0.0,0.0,0.0,0.0,0.0,0.0,0.0,0.0,-4.616,0.0,0.0,0.0,0.0,0.0,-4.3974,-4.3974,-4.3926,-4.3974,-4.4005,-4.4005,-4.4005,-4.4005,-4.4005,-4.4005,-4.4005,-4.4005,-4.4005,-4.4005,-4.4005,-4.4005,-4.4005,-4.4005,-4.4005,-4.4005,-4.4005,-4.4005,-4.4005,-4.4005,-4.4005,0.0,0.0,0.0,-4.4094,-4.4181,-4.4181,-4.4341,-4.4549,-4.4714,-4.515,-4.5578,-4.5799,-4.6291,-4.6747,0.0,0.0,0.0,0.0,0.0,0.0,0.0,0.0,0.0,0.0,0.0,0.0,0.0,0.0,0.0,0.0,0.0,0.0,0.0,0.0,0.0,0.0,-4.8135,-4.7962,-4.7602,-4.665,0.0,-4.4842,-4.3984,-4.332,-4.2871,-4.248,-4.2109,-4.1718,-4.1614,-4.1685,-4.1853,-4.1777,-4.1708,-4.1643,-4.1577,-4.1534,-4.1499,-4.1427,-4.117,-4.0797,-4.0539,-3.9934,-3.9192,0.0,0.0,0.0,0.0,0.0,0.0,0.0,0.0,0.0,0.0,0.0,0.0,0.0,0.0,0.0,0.0,0.0,0.0,0.0,0.0,0.0,-4.6252,-4.6162,-4.5459,-4.4011,0.0,0.0,-4.3883,-4.3929,-4.3929,-4.3883,-4.3945,-4.3974,-4.3974,-4.3989,-4.4005,-4.4005,-4.4005,-4.4005,-4.4005,-4.4005,-4.4005,-4.4005,-4.4005,-4.4005,-4.4005,-4.4005,-4.4005,-4.4005,-4.4005,-4.4005,-4.4005,-4.4005,-4.4005,0.0,0.0,0.0,-4.4005,-4.4005,-4.407,-4.4192,-4.4383,-4.4498,-4.465,0.0,0.0,-4.5343,0.0,0.0,0.0,0.0,0.0,0.0,0.0,0.0,0.0,0.0,0.0,0.0,0.0,0.0,0.0,0.0,0.0,0.0,0.0,0.0,0.0,-4.6944,-4.6942,-4.6733,-4.6291,-4.5027,-4.3919,-4.3044,-4.2402,-4.1797,-4.1191,-4.1191,-4.1191,-4.1172,-4.1074,-4.0936,-4.0803,-4.0726,-4.0615,-4.0489,-4.0491,-4.0441,-4.0379,-4.0326,-4.03,-4.0282,-4.0077,-3.9721,-3.9288,0.0,0.0,0.0,0.0,0.0,0.0,0.0,0.0,0.0,0.0,0.0,0.0,-4.4061,-4.4804,-4.5324,-4.5417,0.0,0.0,0.0,0.0,0.0,-4.5398,-4.5243,0.0,-4.3915,0.0,-4.3804,-4.3804,-4.3804,-4.3804,-4.3804,-4.3883,-4.3915,-4.3897,-4.3974,-4.4005,-4.4005,-4.4005,-4.4005,-4.4005,-4.4005,-4.4005,-4.4005,-4.4005,-4.4005,-4.4005,-4.4005,-4.4005,-4.4005,0.0,0.0,0.0,0.0,-4.4005,-4.4005,0.0,0.0,0.0,-4.4005,-4.4005,-4.4036,-4.418,-4.4355,-4.4546,0.0,0.0,0.0,0.0,0.0,0.0,0.0,0.0,0.0,0.0,0.0,0.0,0.0,0.0,0.0,0.0,0.0,0.0,0.0,0.0,0.0,0.0,0.0,0.0,-4.5189,-4.5146,-4.4387,-4.2728,-4.258,-4.2118,-4.1244,-4.1249,-4.123,-4.1191,-4.1191,-4.1172,-4.1092,-4.1108,-4.099,-4.0803,-4.0726,-4.0615,-4.0508,-4.043,-4.0407,-4.0398,-4.0328,-4.031,-4.0301,-4.0272,-4.0017,-3.9628,0.0,0.0,0.0,0.0,0.0,0.0,0.0,0.0,0.0,0.0,0.0,0.0,0.0,-4.4283,-4.4692,-4.5249,-4.603,0.0,0.0,0.0,0.0,-4.5206,-4.5136,-4.4698,-4.3853,-4.382,-4.3753,-4.3667,-4.3753,-4.3771,-4.3667,-4.3786,-4.3867,-4.3897,-4.3958,-4.4005,-4.4005,-4.4005,-4.4005,-4.4005,-4.4005,-4.4005,-4.4005,-4.4005,-4.4005,-4.4005,-4.4005,0.0,0.0,0.0,0.0,0.0,0.0,-4.3958,-4.3945,-4.3945,-4.3958,-4.3989,-4.3961,-4.3958,-4.4005,-4.407,-4.4124,-4.421,-4.4345,-4.4584,0.0,0.0,0.0,0.0,0.0,0.0,0.0,0.0,0.0,0.0,0.0,0.0,0.0,0.0,0.0,0.0,0.0,0.0,0.0,0.0,0.0,0.0,-4.4958,-4.3929,-4.306,-4.2415,-4.1857,-4.1416,-4.1091,-4.1112,-4.1152,-4.1191,-4.1191,-4.1191,-4.1152,-4.1129,-4.0996,-4.0805,-4.0772,-4.0661,-4.0489,-4.0463,-4.0441,-4.0379,-4.0326,-4.03,-4.0301,-4.0301,-4.0026,-3.958,0.0,0.0,0.0,0.0,0.0,0.0,0.0,0.0,0.0,-4.4005,0.0,0.0,0.0,0.0,-4.4228,-4.4804,-4.5342,-4.5658,-4.5658,-4.5626,-4.5352,-4.473,-4.4628,-4.4338,-4.3754,-4.3703,-4.3669,-4.3565,-4.3669,-4.3651,-4.3565,-4.3667,-4.3769,-4.38,-4.3929,-4.3974,-4.4005,-4.4005,-4.4005,-4.4005,-4.4005,-4.4005,-4.4005,-4.4005,-4.4005,0.0,0.0,0.0,0.0,0.0,0.0,0.0,0.0,-4.3897,-4.3867,-4.3881,-4.3913,-4.3929,-4.3915,-4.3929,-4.3974,-4.3989,-4.4005,-4.4039,-4.4169,0.0,0.0,0.0,0.0,0.0,0.0,0.0,0.0,0.0,0.0,0.0,0.0,0.0,0.0,0.0,0.0,0.0,0.0,0.0,0.0,0.0,0.0,0.0,-4.4082,-4.2997,-4.2279,-4.1967,-4.1408,-4.1103,-4.1091,-4.1091,-4.1132,-4.1191,-4.1191,-4.1191,-4.1152,-4.1129,-4.0996,-4.0809,-4.0809,-4.0684,-4.0489,-4.0507,-4.0458,-4.0379,-4.0325,-4.029,-4.0301,-4.0301,-4.0046,-3.9647,0.0,0.0,0.0,0.0,0.0,0.0,0.0,0.0,-4.4005,-4.4005,0.0,0.0,0.0,0.0,0.0,-4.4005,-4.4005,-4.4005,-4.4005,-4.3945,-4.3915,-4.3881,0.0,0.0,0.0,-4.3531,-4.3515,-4.3515,-4.3515,-4.3515,-4.3515,-4.3565,-4.3599,-4.3599,-4.38,-4.3929,-4.4005,-4.4005,-4.4005,-4.4005,-4.4005,-4.4005,-4.4005,-4.4005,0.0,0.0,-4.4005,-4.3961,0.0,-4.3897,0.0,0.0,0.0,-4.3788,-4.382,-4.3883,-4.3851,-4.382,0.0,0.0,0.0,-4.3918,0.0,0.0,-4.4094,0.0,0.0,0.0,0.0,0.0,0.0,0.0,0.0,0.0,0.0,0.0,0.0,0.0,0.0,0.0,0.0,0.0,0.0,0.0,0.0,0.0,0.0,-4.4103,-4.248,-4.2373,-4.1967,-4.1129,-4.1095,-4.1101,-4.1107,-4.1091,-4.1132,-4.1191,-4.1191,-4.1172,-4.1092,-4.1109,-4.0992,-4.0812,-4.08,-4.0684,-4.0489,-4.0507,-4.0458,-4.0388,-4.0325,-4.0299,-4.0301,-4.0301,-4.0127,-3.9826,0.0,0.0,0.0,0.0,0.0,0.0,0.0,0.0,-4.4005,0.0,0.0,0.0,-4.4005,-4.4005,-4.4005,-4.4005,-4.4005,-4.3974,-4.3929,-4.3913,-4.3832,-4.3682,-4.3632,-4.3565,-4.3513,-4.3515,0.0,0.0,0.0,0.0,0.0,0.0,0.0,-4.3599,-4.3649,-4.3765,-4.3929,-4.3974,-4.4005,-4.4005,-4.4005,-4.4005,0.0,0.0,0.0,0.0,0.0,-4.3961,-4.3897,0.0,-4.3783,-4.3651,0.0,-4.3719,-4.3769,-4.3701,-4.3753,-4.3658,-4.298,0.0,0.0,0.0,0.0,0.0,0.0,0.0,0.0,0.0,0.0,0.0,0.0,0.0,0.0,0.0,0.0,0.0,0.0,0.0,0.0,0.0,0.0,0.0,0.0,0.0,0.0,0.0,0.0,-4.2815,-4.2346,-4.1774,-4.1343,-4.1109,-4.1091,-4.1095,-4.1101,-4.1106,-4.111,-4.1132,-4.1172,-4.1191,-4.1172,-4.1129,-4.0996,-4.0809,-4.0809,-4.0684,-4.0496,-4.05,-4.0463,-4.0407,-4.0379,-4.0336,-4.0301,-4.0301,-4.0036,-3.9635,0.0,0.0,0.0,0.0,0.0,0.0,0.0,-4.3974,-4.4005,0.0,0.0,0.0,-4.4005,-4.4005,-4.3989,-4.3958,-4.3961,-4.3929,-4.3867,-4.38,-4.3716,-4.3599,-4.3565,-4.3531,-4.3515,-4.3515,0.0,0.0,0.0,0.0,0.0,0.0,0.0,-4.3548,-4.3582,-4.3684,-4.3783,-4.3913,-4.3974,0.0,-4.4005,0.0,0.0,-4.4005,-4.4005,0.0,0.0,0.0,-4.3851,-4.3783,-4.3684,0.0,0.0,0.0,-4.3669,-4.3599,-4.3395,-4.3061,-4.2529,-4.221,-4.1942,-4.1558,0.0,0.0,-4.1549,-4.1605,0.0,0.0,0.0,0.0,0.0,0.0,0.0,0.0,0.0,0.0,0.0,0.0,0.0,0.0,0.0,0.0,0.0,0.0,0.0,0.0,-4.2545,-4.2159,-4.1824,-4.1347,-4.1101,-4.1109,-4.1109,-4.1093,-4.1098,-4.1102,-4.1107,-4.1092,-4.1132,-4.1172,-4.1191,-4.1105,-4.0771,-4.0295,-4.0281,-3.9952,-3.9457,-3.9457,-3.9615,-3.9851,-3.9851,-3.9588,-3.9221,-3.9221,-3.8953,-3.8557,0.0,0.0,0.0,0.0,0.0,0.0,0.0,-4.3945,-4.3974,0.0,-4.3989,-4.3989,-4.4005,-4.3989,-4.3958,-4.3915,-4.3881,-4.3867,-4.3788,-4.3667,-4.3599,-4.3582,-4.3531,-4.3515,-4.3515,-4.3515,0.0,0.0,0.0,0.0,0.0,0.0,0.0,0.0,0.0,0.0,-4.3599,-4.38,0.0,-4.3974,-4.3989,-4.4005,0.0,0.0,-4.3989,-4.3958,-4.3913,-4.3835,-4.3753,-4.3634,-4.3548,0.0,0.0,0.0,0.0,0.0,-4.2979,-4.2284,-4.2257,-4.1666,-4.1056,-4.1111,0.0,0.0,-4.1215,-4.1271,-4.1326,0.0,0.0,0.0,0.0,0.0,0.0,0.0,0.0,0.0,0.0,0.0,0.0,0.0,0.0,0.0,0.0,0.0,0.0,-4.2107,-4.2117,-4.1837,-4.1131,-4.1093,-4.1092,-4.1095,-4.1091,-4.1093,-4.1098,-4.1098,-4.1103,-4.1091,-4.1092,-4.1073,-4.1055,-4.092,-4.0343,-3.9447,-3.9384,-3.8839,-3.8007,-3.8007,-3.8385,-3.8966,-3.8977,-3.8448,-3.7702,-3.7693,-3.7462,-3.7111,-4.3515,0.0,0.0,0.0,0.0,0.0,0.0,-4.3837,-4.3835,-4.3835,-4.3899,-4.3945,-4.3989,-4.3942,-4.3913,-4.3897,-4.3851,-4.3769,-4.3651,-4.3599,-4.3565,-4.3513,-4.3515,-4.3515,-4.3515,-4.3515,-4.3515,0.0,0.0,0.0,0.0,0.0,0.0,0.0,0.0,0.0,-4.3599,0.0,0.0,-4.3851,-4.3961,0.0,-4.3913,-4.3913,-4.3899,-4.3853,-4.3818,-4.3753,-4.3634,-4.3549,-4.3515,-4.3496,0.0,0.0,0.0,-4.3532,0.0,0.0,0.0,0.0,0.0,0.0,0.0,0.0,-3.9464,-3.9507,-3.9532,0.0,0.0,0.0,0.0,0.0,0.0,0.0,0.0,0.0,0.0,0.0,0.0,0.0,0.0,0.0,0.0,0.0,-4.1162,-4.1159,-4.1214,-4.1198,-4.1025,-4.1065,-4.1094,-4.1093,-4.1101,-4.1109,-4.1091,-4.1097,-4.1099,-4.1102,-4.1109,-4.078,-4.0155,-4.0064,-3.9487,-3.8544,-3.8486,-3.8273,-3.8007,-3.8007,-3.8055,-3.8135,-3.8123,-3.7986,-3.7764,-3.7729,-3.7344,-3.688,-4.3515,0.0,0.0,0.0,0.0,0.0,0.0,0.0,-4.3804,-4.3804,-4.3837,-4.3867,-4.3915,-4.3867,-4.3835,-4.3767,-4.3718,-4.3651,-4.3548,-4.3548,-4.3549,-4.3515,-4.3515,-4.3515,-4.3515,-4.3515,-4.3515,0.0,0.0,0.0,0.0,0.0,0.0,0.0,-4.3515,-4.3513,-4.3548,0.0,-4.3651,-4.3701,-4.3851,0.0,-4.3851,-4.3851,-4.3837,-4.3788,-4.3719,-4.3634,-4.3531,-4.3515,-4.3515,0.0,0.0,-4.3515,-4.3515,0.0,-4.2653,-4.1625,0.0,0.0,0.0,-3.8827,0.0,0.0,0.0,-3.8939,-3.895,0.0,0.0,0.0,0.0,0.0,0.0,0.0,0.0,0.0,0.0,0.0,0.0,0.0,0.0,0.0,0.0,0.0,-4.0642,-4.0872,-4.0935,-4.0953,-4.101,-4.1027,-4.1062,-4.1094,-4.1091,-4.1102,-4.1109,-4.1093,-4.0901,-4.0494,-4.05,-4.0054,-3.9257,-3.9159,-3.8597,-3.7683,-3.7559,-3.7218,-3.6747,-3.6745,-3.6709,-3.6684,-3.7095,-3.6944,-3.6495,-3.6427,-3.6062,-3.5579,-4.3239,-4.3404,0.0,0.0,0.0,0.0,0.0,0.0,-4.3754,-4.3753,-4.3753,-4.3771,-4.3788,-4.3788,-4.3719,-4.3599,-4.3582,-4.3548,-4.3496,-4.3515,-4.3515,-4.3515,-4.3515,-4.3515,-4.3515,-4.3515,-4.3515,-4.3515,0.0,0.0,0.0,0.0,0.0,0.0,-4.3515,-4.3515,-4.3496,0.0,0.0,-4.3582,0.0,-4.3754,-4.3753,-4.3753,-4.3736,-4.3719,-4.3617,-4.3566,-4.3515,-4.3515,-4.3515,-4.3515,-4.3515,-4.3515,0.0,0.0,0.0,0.0,0.0,0.0,0.0,0.0,0.0,-3.8777,0.0,0.0,0.0,-3.891,0.0,0.0,0.0,0.0,0.0,0.0,0.0,0.0,0.0,0.0,0.0,0.0,0.0,0.0,0.0,0.0,-4.0185,-4.0569,-4.0621,-4.076,-4.0963,-4.0981,-4.1015,-4.1089,-4.1093,-4.1092,-4.1098,-4.1093,-4.0683,-3.9887,-3.9889,-3.9349,-3.832,-3.8209,-3.7665,-3.6819,-3.6654,-3.6158,-3.5502,-3.5501,-3.5453,-3.5448,-3.609,-3.5883,-3.5209,-3.5127,-3.4793,-3.4357,-4.2304,-4.3002,-4.3515,0.0,0.0,0.0,0.0,0.0,-4.3566,-4.3599,-4.3615,-4.3667,-4.3788,-4.3684,-4.3634,-4.3599,-4.3566,0.0,-4.3515,0.0,-4.3515,-4.3515,-4.3515,-4.3515,-4.3515,-4.3515,-4.3515,-4.3515,0.0,0.0,0.0,0.0,0.0,0.0,-4.3515,-4.3515,-4.3515,0.0,-4.3515,0.0,-4.3532,-4.3583,0.0,-4.3615,-4.3583,-4.3532,-4.3532,-4.3515,-4.3515,0.0,-4.3515,-4.3515,0.0,-4.3515,-4.3368,-4.2653,0.0,0.0,0.0,0.0,0.0,0.0,-3.8707,0.0,0.0,0.0,-3.8837,-3.8896,0.0,0.0,0.0,0.0,0.0,0.0,0.0,0.0,0.0,0.0,0.0,0.0,0.0,0.0,0.0,0.0,0.0,-3.9419,-3.9641,-4.0083,-4.0869,-4.0964,-4.1,-4.1011,-4.1064,-4.1094,-4.1093,-4.1101,-4.068,-3.9801,-3.9867,-3.9001,-3.7359,-3.7285,-3.6745,-3.5851,-3.5764,-3.5656,-3.5502,-3.5501,-3.5439,-3.5315,-3.5404,-3.5381,-3.5269,-3.5145,-3.4763,-3.43,-4.146,-4.1882,-4.2249,0.0,0.0,0.0,0.0,0.0,-4.3515,-4.3549,-4.3531,-4.3548,-4.3617,-4.3583,-4.3531,-4.3531,0.0,-4.3515,0.0,0.0,-4.3268,-4.3497,-4.3286,-4.3142,-4.3142,-4.3142,-4.3032,-4.2751,-4.2751,0.0,0.0,0.0,0.0,0.0,-4.3515,0.0,-4.3515,0.0,-4.3515,0.0,0.0,0.0,0.0,-4.3531,-4.3513,-4.3515,-4.3515,-4.3515,-4.3515,0.0,-4.3515,0.0,0.0,0.0,0.0,0.0,0.0,0.0,0.0,0.0,0.0,0.0,0.0,0.0,-3.8735,0.0,-3.875,0.0,0.0,0.0,0.0,0.0,0.0,0.0,0.0,0.0,0.0,0.0,0.0,0.0,0.0,0.0,0.0,0.0,0.0,0.0,0.0,-3.9,-3.9368,-3.9902,-4.0214,-4.0241,-4.0764,-4.1031,-4.1047,-4.0584,-3.9902,-3.9043,-3.8514,-3.7629,-3.6438,-3.6345,-3.6063,-3.5696,-3.5629,-3.5591,-3.5554,-3.5527,-3.542,-3.5308,-3.5308,-3.527,-3.5218,-3.5136,-3.4763,-3.4288,-4.0325,-4.0802,-4.1279,-4.1882,0.0,0.0,0.0,0.0,0.0,-4.3515,0.0,0.0,-4.3828,-4.403,0.0,0.0,-4.4158,-4.4048,0.0,0.0,-4.3433,0.0,0.0,0.0,0.0,-4.2901,-4.2673,-4.2198,0.0,0.0,0.0,0.0,0.0,0.0,0.0,-4.2947,-4.3167,0.0,-4.3313,-4.3515,-4.3515,-4.3515,-4.3515,-4.3515,-4.3515,-4.3515,-4.3515,-4.3515,-4.3515,-4.3515,-4.3515,0.0,-4.3515,0.0,0.0,0.0,0.0,0.0,-3.974,0.0,0.0,0.0,0.0,0.0,0.0,0.0,0.0,0.0,0.0,0.0,0.0,0.0,0.0,-3.7077,0.0,0.0,0.0,0.0,0.0,0.0,0.0,0.0,0.0,0.0,0.0,0.0,-3.7681,0.0,-3.8266,-3.8873,-3.9359,-3.9669,-4.0282,-4.073,-4.0966,-4.0161,-3.9346,-3.8466,-3.7546,-3.6653,-3.5841,-3.5749,-3.5686,-3.5664,-3.5618,-3.5591,-3.5579,-3.5508,-3.542,-3.5308,-3.5308,-3.5262,-3.5193,-3.5082,-3.4733,-3.4288,-3.8781,-4.0031,-4.1113,-4.1132,0.0,0.0,0.0,0.0,0.0,0.0,0.0,0.0,0.0,0.0,0.0,0.0,0.0,-4.5498,-4.4727,0.0,-4.4306,0.0,0.0,-4.3304,0.0,0.0,-4.2673,-4.2198,0.0,0.0,0.0,0.0,0.0,0.0,-4.1313,-4.1625,-4.2341,-4.2341,-4.2782,-4.3515,-4.3515,-4.3515,-4.3515,0.0,-4.3515,-4.3515,-4.3515,0.0,0.0,-4.3515,-4.3515,0.0,0.0,0.0,0.0,0.0,0.0,0.0,0.0,0.0,0.0,-3.843,0.0,0.0,0.0,0.0,-3.851,0.0,0.0,0.0,0.0,0.0,-3.7026,-3.5519,-3.5262,0.0,0.0,0.0,0.0,0.0,0.0,0.0,0.0,0.0,0.0,0.0,-3.6538,0.0,-3.8147,-3.8239,-3.8653,-3.9582,-3.9637,-4.005,-4.0883,-4.0118,-3.9267,-3.8387,-3.7513,-3.6606,-3.5702,-3.5698,-3.5668,-3.5606,-3.5596,-3.556,-3.5509,-3.5501,-3.542,-3.5308,-3.5308,-3.5262,-3.5185,-3.4982,-3.4653,-3.4277,-3.8673,-3.9148,-3.968,-4.0212,-4.0983,0.0,0.0,-4.3515,0.0,0.0,0.0,0.0,0.0,-4.5736,-4.5902,0.0,0.0,-4.5773,-4.5516,-4.4747,0.0,0.0,0.0,-4.2577,0.0,0.0,0.0,0.0,0.0,0.0,0.0,0.0,0.0,0.0,0.0,-4.1005,0.0,0.0,0.0,0.0,0.0,-4.3515,-4.3515,0.0,0.0,-4.3515,-4.3515,-4.3515,0.0,-4.3515,-4.3515,-4.3423,-4.2873,-4.2525,-4.2047,-4.0708,-4.0102,0.0,0.0,0.0,-3.8494,-3.8415,0.0,0.0,0.0,0.0,0.0,0.0,0.0,0.0,0.0,-3.6431,-3.5531,-3.503,-3.4485,-3.406,0.0,0.0,0.0,0.0,0.0,0.0,0.0,0.0,0.0,-3.5071,-3.5467,-3.5844,0.0,-3.6953,-3.7492,-3.7793,-3.8971,-3.9743,-4.0034,-3.9192,-3.8622,-3.833,-3.686,-3.6019,-3.5703,-3.5708,-3.5658,-3.5601,-3.559,-3.556,-3.5502,-3.5455,-3.5379,-3.5308,-3.5297,-3.5185,-3.5001,-3.4936,-3.4653,-3.4242,-3.8609,-3.8658,-3.8946,0.0,0.0,0.0,0.0,0.0,0.0,0.0,-4.4947,0.0,-4.625,0.0,-4.6746,0.0,-4.6746,-4.6636,-4.6361,-4.5332,0.0,-4.4709,-4.3394,0.0,0.0,0.0,0.0,0.0,0.0,-4.0285,0.0,0.0,0.0,0.0,0.0,-4.0165,-4.0708,-4.124,-4.1607,0.0,0.0,-4.3239,0.0,0.0,-4.3515,0.0,0.0,-4.3515,-4.3515,-4.3515,-4.3296,-4.2983,-4.2451,-4.1901,-4.124,-4.0194,-3.9664,-3.925,-3.864,-3.8446,0.0,0.0,-3.832,0.0,-3.832,0.0,0.0,0.0,0.0,0.0,0.0,0.0,-3.4714,-3.4422,-3.3933,-3.3605,0.0,-3.3605,0.0,0.0,0.0,0.0,0.0,0.0,-3.4284,-3.4412,-3.4823,-3.5108,0.0,0.0,-3.6565,-3.6897,-3.8034,-3.8933,-3.9564,-3.8396,-3.7964,-3.8236,-3.6515,-3.5692,-3.5692,-3.5695,-3.5668,-3.5608,-3.5604,-3.5547,-3.5463,-3.5427,-3.5357,-3.5297,-3.519,-3.5044,-3.4879,-3.4831,-3.4309,-3.3549,-3.851,-3.8682,0.0,0.0,-4.1277,0.0,0.0,0.0,-4.3846,0.0,-4.5461,-4.6269,-4.7058,-4.7828,-4.8306,-4.8306,-4.8306,-4.7994,-4.7204,-4.6416,0.0,0.0,-4.3975,-4.3323,-4.2901,0.0,0.0,0.0,0.0,0.0,0.0,0.0,0.0,0.0,-3.878,0.0,-3.9827,-3.9879,-4.0359,-4.1168,-4.1937,-4.269,-4.3386,-4.3386,0.0,-4.3404,-4.3441,-4.3441,-4.3441,-4.3404,-4.2873,-4.2231,-4.2194,-4.113,-3.9882,-3.9845,-3.9195,-3.8478,-3.8415,-3.8354,-3.829,-3.8225,0.0,0.0,0.0,0.0,-3.7089,0.0,0.0,0.0,0.0,0.0,0.0,-3.37,-3.3591,-3.3591,-3.3591,0.0,0.0,0.0,0.0,0.0,0.0,-3.3842,-3.4005,-3.4253,-3.4601,-3.487,0.0,0.0,0.0,-3.6792,-3.6876,-3.7686,-3.934,-3.7735,-3.7323,-3.8115,-3.6477,-3.5704,-3.5704,-3.5704,-3.5656,-3.5598,-3.5598,-3.5515,-3.5405,-3.5405,-3.5361,-3.5269,-3.5025,-3.487,-3.4794,-3.4586,-3.3625,-3.2281,-3.8609,-3.9646,-4.0744,0.0,-4.2029,-4.2561,0.0,0.0,0.0,0.0,-4.6305,-4.7094,-4.7901,-4.8196,-4.8306,-4.8306,-4.8306,0.0,0.0,0.0,0.0,-4.5626,-4.4528,-4.3612,-4.2919,-4.2769,0.0,-4.0545,0.0,0.0,-3.8473,0.0,0.0,0.0,0.0,0.0,-3.9056,-3.9643,-4.0359,-4.1113,-4.1315,-4.1534,0.0,0.0,-4.1735,-4.1791,-4.2396,-4.2598,-4.2525,-4.1919,-4.1572,-4.1297,-4.0708,-4.0201,-3.9694,-3.9054,-3.8658,-3.8399,-3.8354,-3.8305,-3.829,-3.8225,-3.8209,-3.8046,0.0,0.0,0.0,0.0,0.0,0.0,0.0,0.0,0.0,-3.3488,-3.3452,-3.3452,-3.3452,0.0,0.0,-3.3452,0.0,0.0,0.0,-3.3712,-3.3802,-3.3915,-3.4375,0.0,0.0,0.0,0.0,-3.5843,-3.6485,-3.7038,-3.7494,-3.7094,-3.7003,-3.7216,-3.6195,-3.5704,-3.5704,-3.5643,-3.5614,-3.5598,-3.5554,-3.5469,-3.5405,-3.5357,-3.5312,-3.5285,-3.5166,-3.4491,-3.3527,-3.3343,-3.2496,-3.1419,-3.9518,0.0,0.0,-4.2213,0.0,0.0,-4.3901,0.0,0.0,-4.6269,-4.6819,0.0,-4.8214,-4.8306,-4.8306,-4.8306,-4.8306,0.0,-4.8306,0.0,0.0,-4.5938,-4.4894,-4.398,-4.3178,-4.3068,0.0,-4.0668,0.0,0.0,-3.8188,0.0,0.0,0.0,0.0,-3.8433,-3.8726,-3.9184,-3.9845,-4.0579,-4.0579,0.0,0.0,-4.1095,-4.1095,-4.1113,-4.1203,-4.1479,-4.1717,-4.1242,-4.0873,-4.0506,-4.0029,-3.9596,-3.915,-3.8638,-3.843,-3.8354,-3.8323,-3.8274,-3.815,-3.7756,-3.7683,-3.7466,-3.6653,-3.62,-3.582,0.0,0.0,0.0,0.0,0.0,0.0,-3.3393,-3.3393,0.0,0.0,0.0,0.0,0.0,-3.3393,0.0,0.0,0.0,-3.3643,0.0,0.0,0.0,0.0,0.0,0.0,0.0,-3.5978,-3.6408,-3.6794,-3.6484,-3.651,-3.6857,-3.6045,-3.567,-3.567,-3.5614,-3.5584,-3.5554,-3.5515,-3.5456,-3.5357,-3.5315,-3.5278,-3.5187,-3.4672,-3.3638,-3.2385,-3.1861,-3.1175,-3.0472,-4.0826,0.0,0.0,0.0,0.0,0.0,0.0,-4.4874,0.0,-4.6892,0.0,-4.7516,-4.8233,-4.8306,-4.8306,-4.8306,0.0,-4.8306,-4.8306,-4.7645,-4.6837,-4.5938,-4.5241,-4.4433,-4.3533,-4.3429,-4.2625,0.0,0.0,0.0,-3.8322,0.0,0.0,0.0,0.0,0.0,0.0,-3.8707,-3.9093,0.0,-3.9735,-4.0157,-4.0783,-4.0783,-4.0783,-4.0691,-3.9992,-4.0267,-4.093,-4.082,-4.0322,-3.9735,-3.9735,-3.9158,-3.8494,-3.8494,-3.8385,-3.8272,-3.8163,-3.8096,-3.7846,-3.7049,-3.685,-3.6616,-3.5822,-3.5098,-3.4555,-3.4461,-3.39,0.0,0.0,0.0,0.0,-3.3393,0.0,0.0,0.0,0.0,0.0,0.0,0.0,0.0,0.0,0.0,0.0,0.0,0.0,0.0,0.0,0.0,0.0,0.0,-3.5495,0.0,-3.662,0.0,-3.5939,-3.6614,-3.5926,-3.5598,-3.5598,-3.5591,-3.5554,-3.5509,-3.5496,-3.5416,-3.5308,-3.53,-3.5197,-3.4901,-3.3895,-3.2662,-3.136,-3.0508,-2.9965,-2.9549,-4.187,0.0,0.0,0.0,0.0,-4.4764,-4.5571,-4.5681,-4.603,-4.6984,-4.7681,-4.8141,-4.8288,-4.8306,-4.8306,-4.8306,-4.8306,0.0,0.0,0.0,0.0,-4.5957,-4.5755,-4.5002,-4.3533,-4.3429,-4.2625,0.0,0.0,0.0,-3.8462,-3.8593,0.0,0.0,0.0,0.0,-3.8707,-3.8707,0.0,-3.8909,-3.8909,-3.9001,-3.9129,-3.9129,-3.9129,-3.9111,-3.8964,-3.9423,-4.001,-3.935,-3.9038,-3.8909,-3.8909,-3.8672,-3.8415,-3.8415,-3.8322,-3.808,-3.741,-3.7229,-3.7031,-3.6218,-3.6019,-3.5786,-3.4989,-3.4715,-3.4407,-3.3755,-3.3502,-3.3393,-3.3393,0.0,0.0,0.0,0.0,0.0,0.0,0.0,0.0,0.0,0.0,0.0,0.0,0.0,0.0,0.0,0.0,0.0,0.0,0.0,0.0,0.0,0.0,0.0,0.0,0.0,0.0,-3.5727,-3.5643,-3.5598,-3.5598,-3.5528,-3.5515,-3.5502,-3.5435,-3.5379,-3.5308,-3.5297,-3.4797,-3.4006,-3.3582,-3.2306,-3.0654,-3.0252,-2.9569,-2.8781,0.0,0.0,0.0,0.0,0.0,0.0,0.0,-4.625,0.0,-4.7608,-4.8067,-4.8306,-4.8306,-4.8306,-4.8306,-4.8306,-4.8306,-4.8306,-4.8306,-4.7901,-4.7168,-4.5957,-4.5498,0.0,-4.3533,-4.3463,-4.2606,-4.0911,0.0,0.0,-3.8354,-3.8405,-3.8453,-3.8501,0.0,-3.8624,0.0,0.0,0.0,-3.8707,-3.8707,-3.8707,-3.8707,-3.8707,-3.8707,-3.8707,-3.8707,-3.8946,-3.9221,-3.8836,-3.8707,-3.8692,-3.8624,-3.8512,-3.831,-3.7861,-3.7655,-3.7412,-3.6598,-3.6381,-3.6182,-3.5369,-3.517,-3.4969,-3.4172,-3.3991,-3.3864,-3.3484,-3.3393,-3.3393,-3.3393,-3.3393,0.0,0.0,0.0,0.0,0.0,0.0,0.0,0.0,0.0,0.0,0.0,0.0,0.0,0.0,0.0,0.0,0.0,0.0,0.0,0.0,0.0,0.0,0.0,0.0,0.0,-3.5495,-3.5528,-3.556,-3.556,-3.5502,-3.5482,-3.5442,-3.5407,-3.5357,-3.5297,-3.5258,-3.4928,-3.4399,-3.3677,-3.2485,-3.1087,-3.0362,-2.9415,-2.8502,0.0,-4.3463,0.0,0.0,-4.4305,0.0,-4.5792,-4.6746,-4.7571,-4.8233,-4.8306,-4.8306,-4.8306,-4.8306,-4.8306,-4.8306,-4.8141,-4.8049,-4.8049,-4.7278,-4.6489,-4.5681,-4.5039,-4.4323,-4.3533,-4.348,-4.2604,0.0,0.0,0.0,0.0,-3.8168,0.0,0.0,0.0,0.0,0.0,0.0,-3.8658,-3.8658,-3.8692,-3.8707,-3.8707,-3.8707,-3.8707,-3.8689,-3.8505,-3.8435,-3.8401,-3.82,-3.8365,-3.8606,-3.8342,-3.8191,-3.7949,-3.7103,-3.6805,-3.6578,-3.5765,-3.5532,-3.5351,-3.4552,-3.4353,-3.419,-3.3538,-3.3393,-3.3393,-3.3393,-3.3393,-3.3393,-3.3393,-3.3393,0.0,0.0,0.0,0.0,0.0,0.0,0.0,0.0,0.0,0.0,0.0,0.0,0.0,0.0,0.0,0.0,0.0,0.0,0.0,0.0,0.0,0.0,-3.5372,0.0,-3.5412,0.0,-3.5486,-3.5493,-3.55,-3.55,-3.546,-3.5405,-3.5379,-3.5327,-3.5269,-3.5149,-3.4968,-3.4641,-3.3663,-3.2633,-3.158,-3.0632,-2.9696,-2.8865,0.0,0.0,0.0,0.0,0.0,0.0,0.0,-4.7205,-4.8214,-4.8306,-4.8306,-4.8306,-4.8306,-4.8306,-4.8306,-4.8306,-4.7626,-4.7204,-4.7204,-4.6471,-4.5645,-4.4856,-4.4745,-4.4323,-4.3533,-4.3446,-4.2554,0.0,0.0,0.0,0.0,0.0,0.0,0.0,0.0,0.0,0.0,-3.8494,-3.8525,-3.8525,-3.8658,-3.8707,-3.8707,-3.8707,-3.8707,-3.8597,-3.7878,-3.7576,-3.7387,-3.6604,-3.7317,-3.8397,-3.772,-3.7374,-3.7051,-3.6251,-3.5955,-3.5731,-3.4917,-3.47,-3.4519,-3.3719,-3.352,-3.3502,-3.3429,-3.3393,-3.3393,-3.3393,-3.3393,-3.3393,-3.3393,-3.3393,-3.3334,0.0,0.0,0.0,0.0,0.0,0.0,-3.2948,0.0,0.0,0.0,0.0,0.0,0.0,0.0,0.0,0.0,0.0,0.0,0.0,0.0,-3.5297,-3.5315,-3.5315,0.0,-3.5412,-3.5412,-3.5446,-3.55,-3.55,-3.546,-3.5405,-3.535,-3.527,-3.5193,-3.4945,-3.4319,-3.3531,-3.3123,-3.2298,-3.1302,-3.1018,-3.0744,-3.0345,0.0,0.0,0.0,0.0,0.0,0.0,0.0,-4.6874,-4.7736,-4.8251,-4.8306,-4.8306,-4.8306,-4.7865,-4.7571,-4.7571,-4.6837,-4.6379,-4.6379,-4.5626,-4.5039,-4.4727,-4.425,-4.3828,-4.3515,-4.297,-4.206,0.0,0.0,0.0,0.0,0.0,0.0,0.0,0.0,-3.8465,-3.8578,-3.851,-3.851,-3.8455,-3.8,-3.7814,-3.7809,-3.7329,-3.7194,-3.7221,-3.689,-3.6699,-3.6567,-3.6223,-3.6504,-3.6933,-3.6611,-3.6425,-3.6217,-3.5356,-3.5093,-3.4899,-3.4099,-3.3882,-3.381,-3.3484,-3.3393,-3.3393,-3.3393,-3.3393,-3.3393,-3.3393,-3.3393,-3.3393,-3.3393,-3.3393,-3.3334,0.0,0.0,0.0,0.0,0.0,0.0,0.0,0.0,-3.2882,0.0,0.0,0.0,0.0,0.0,0.0,0.0,0.0,0.0,-3.51,0.0,-3.522,-3.5289,-3.5297,-3.5312,-3.533,-3.533,-3.5357,-3.5372,-3.5372,-3.5376,-3.5331,-3.5273,-3.5209,-3.5117,-3.5029,-3.4613,-3.4025,-3.3771,-3.3001,-3.1976,-3.1673,-3.1139,-3.0502,-4.3515,0.0,-4.3515,0.0,-4.4176,-4.4892,-4.5461,-4.6232,-4.6947,-4.7517,-4.759,-4.7682,-4.7921,-4.7223,-4.6746,-4.6746,-4.6012,-4.5553,-4.5553,-4.48,-4.436,-4.436,-4.3571,0.0,-4.3132,-4.2241,-4.1332,-4.0426,-3.9778,0.0,0.0,0.0,0.0,0.0,-3.8336,-3.8291,-3.8201,-3.8118,-3.7953,-3.771,-3.7116,-3.6894,-3.6885,-3.6314,-3.6146,-3.619,-3.5933,-3.5784,-3.5652,-3.5433,-3.5283,-3.5263,-3.5484,-3.5527,-3.5335,-3.4495,-3.4262,-3.4117,-3.3556,-3.3393,-3.3393,-3.3393,-3.3393,-3.3393,-3.3393,-3.3393,-3.3393,-3.3393,-3.3393,-3.3378,-3.3334,-3.3319,-3.3226,0.0,0.0,0.0,0.0,0.0,0.0,0.0,-3.2655,-3.2719,-3.3068,0.0,0.0,0.0,0.0,0.0,0.0,0.0,0.0,0.0,0.0,0.0,0.0,0.0,-3.5269,-3.5293,-3.5293,-3.53,-3.5308,-3.53,-3.5297,-3.5304,-3.522,-3.5134,-3.5084,-3.4964,-3.4751,-3.4484,-3.4233,-3.3583,-3.2725,-3.2401,-3.1793,-3.1064,-4.3515,-4.3515,-4.3515,-4.3515,-4.4176,-4.4691,-4.4727,-4.5406,-4.592,-4.592,-4.592,-4.6232,-4.7021,-4.6416,-4.5902,-4.5902,-4.5186,-4.4727,-4.4727,-4.3956,-4.3497,0.0,0.0,-4.2289,-4.2221,-4.1297,-4.0391,-3.9505,0.0,0.0,-3.7013,0.0,0.0,-3.8209,-3.8209,-3.7756,-3.7029,-3.7092,-3.6698,-3.6045,-3.6083,-3.6113,-3.6113,-3.6095,-3.6069,-3.5899,-3.5097,-3.4761,-3.4611,-3.3815,-3.3488,-3.3571,-3.4436,-3.4664,-3.4461,-3.3647,-3.3411,-3.3411,-3.3393,-3.3393,-3.3393,-3.3393,-3.3393,-3.3393,-3.3393,-3.3393,-3.3393,-3.3393,-3.3393,-3.3334,-3.3132,-3.3101,-3.2993,-3.2672,0.0,0.0,0.0,0.0,0.0,0.0,-3.2523,-3.2736,-3.3065,0.0,0.0,0.0,0.0,0.0,0.0,0.0,0.0,-3.4798,-3.4879,0.0,-3.5092,-3.5092,-3.5162,-3.5312,-3.5312,-3.5289,-3.5308,-3.5308,-3.5312,-3.5285,-3.5153,-3.5092,-3.5066,-3.4668,-3.4506,-3.4473,-3.4136,-3.3752,-3.3372,-3.324,-3.2939,-3.2448,-4.3429,-4.3429,-4.3411,-4.3304,-4.3577,-4.4015,-4.4546,-4.4894,-4.5278,-4.5828,-4.5424,-4.5186,-4.5425,-4.5241,-4.5094,0.0,-4.4342,-4.3644,0.0,-4.2818,-4.2433,-4.1901,-4.1625,-4.1447,-4.138,-4.0457,-3.9826,-3.9505,0.0,0.0,0.0,-3.7828,-3.7698,-3.7457,-3.7457,-3.7035,-3.6318,-3.6287,-3.6157,-3.5882,-3.5309,-3.5087,-3.5092,-3.4528,-3.4342,-3.4335,-3.4061,-3.3945,-3.3837,-3.3582,-3.3452,-3.3447,-3.3731,-3.3803,-3.3737,-3.3484,-3.3393,-3.3393,-3.3393,-3.3393,-3.3393,-3.3393,-3.3393,-3.3393,-3.3393,-3.3393,-3.3393,-3.3393,-3.3393,-3.3334,-3.315,-3.3101,-3.2993,-3.2638,0.0,0.0,0.0,0.0,0.0,0.0,-3.2606,-3.2829,0.0,-3.335,0.0,0.0,0.0,0.0,0.0,0.0,0.0,0.0,-3.4829,0.0,-3.4955,-3.4955,-3.5029,-3.5162,-3.5162,-3.5162,-3.516,-3.5162,-3.5108,-3.5019,-3.4973,-3.4936,-3.4888,-3.4768,-3.4561,-3.434,-3.4197,-3.3967,-3.3689,-3.3273,-3.305,-3.2842,-4.3446,-4.3446,-4.3411,-4.334,-4.3375,-4.3594,-4.4106,-4.4233,-4.4433,-4.4929,-4.4305,-4.3809,-4.3809,-4.3534,0.0,-4.3739,-4.3263,0.0,-4.1799,-4.1727,-4.1507,-4.1013,-4.0701,-4.0522,-4.0439,0.0,0.0,-3.9,-3.8478,-3.8209,-3.8191,-3.7901,-3.7499,-3.7057,-3.6751,-3.6202,-3.5466,-3.5439,-3.5257,-3.4945,-3.4413,-3.421,-3.4185,-3.3691,-3.3506,-3.352,-3.352,-3.3509,-3.3466,-3.3466,-3.3437,-3.3393,-3.3393,-3.3393,-3.3393,-3.3393,-3.3393,-3.3393,-3.3393,-3.3393,-3.3393,-3.3393,-3.3393,-3.3408,-3.3509,-3.3452,-3.3408,-3.3509,-3.3452,-3.3319,-3.3055,-3.3024,-3.2932,-3.259,0.0,0.0,0.0,0.0,0.0,0.0,0.0,0.0,0.0,-3.3569,0.0,0.0,0.0,0.0,0.0,0.0,0.0,-3.4708,-3.4718,0.0,-3.485,-3.485,-3.4927,-3.502,-3.502,-3.502,-3.502,-3.502,-3.4983,-3.4908,-3.487,-3.484,-3.4788,-3.4747,-3.4591,-3.4363,-3.4328,-3.4068,-3.3675,-3.335,-3.305,-3.2802,-4.3314,-4.3314,0.0,0.0,-4.3315,0.0,-4.3297,-4.3314,-4.3314,-4.3314,-4.2655,-4.2196,-4.2196,-4.1519,-4.1321,-4.1966,0.0,0.0,0.0,-4.0732,-4.0714,-4.0641,-3.9931,0.0,-3.9431,-3.8689,-3.8257,-3.8209,-3.8209,-3.8172,-3.81,-3.7357,-3.6941,-3.6796,-3.6055,-3.5261,-3.4519,-3.4519,-3.4111,-3.3477,-3.3477,-3.3477,-3.3477,-3.3477,-3.3452,-3.3393,-3.3393,-3.3393,-3.3393,-3.3393,-3.3393,-3.3393,-3.3393,-3.3393,-3.3393,-3.3393,-3.3393,-3.3393,-3.3393,-3.3408,-3.3408,-3.3408,-3.3408,-3.3466,-3.3615,-3.3506,-3.3437,-3.3601,-3.3506,-3.3304,-3.2979,-3.2932,-3.2836,-3.2525,-3.2457,-3.254,-3.2797,0.0,0.0,0.0,0.0,0.0,0.0,-3.3855,-3.4023,0.0,0.0,0.0,0.0,0.0,0.0,-3.4583,-3.4583,-3.4655,-3.4778,-3.4788,-3.482,-3.4898,-3.4908,-3.4908,-3.4898,-3.4898,-3.4898,-3.4879,-3.481,-3.4788,-3.4778,-3.4645,-3.455,-3.4495,-3.4495,-3.4062,-3.3462,-3.3433,-3.3019,-3.2474,0.0,0.0,-4.1425,-4.1374,-4.1374,-4.1391,-4.1425,-4.1442,-4.1441,-4.1441,-4.1276,-4.1166,-4.1166,-4.0952,-4.0628,-4.0173,-4.0854,-4.0972,-4.0182,-4.0109,-3.9802,-3.9081,-3.8862,-3.8739,-3.8658,-3.8413,-3.8257,-3.8209,-3.8209,-3.7901,-3.7285,-3.7085,-3.6343,-3.5168,-3.4969,-3.4443,-3.3683,-3.3683,-3.3574,-3.3422,-3.3422,-3.3422,-3.3422,-3.3422,-3.3408,-3.3393,-3.3393,-3.3393,-3.3393,-3.3393,-3.3393,-3.3393,-3.3393,-3.3393,-3.3393,-3.3393,-3.3393,-3.3393,-3.3393,-3.3506,-3.3633,-3.3633,-3.3633,-3.3559,-3.3313,-3.3208,-3.3165,-3.3101,-3.3205,-3.328,-3.3099,-3.325,-3.3357,-3.3111,-3.3081,-3.3111,-3.3169,0.0,0.0,0.0,-3.3361,-3.3606,-3.3437,-3.385,-3.4161,0.0,0.0,0.0,0.0,0.0,-3.4517,-3.4517,-3.4517,-3.4561,-3.4645,-3.4645,-3.4708,-3.481,-3.487,-3.487,-3.481,-3.481,-3.4769,-3.4668,-3.4655,-3.4645,-3.4645,-3.455,-3.4517,-3.4495,-3.4393,-3.4245,-3.4055,-3.3797,-3.3569,-3.3353,-4.0978,-4.0944,-4.0928,-4.0877,-4.0877,-4.0912,-4.0928,-4.0944,-4.0943,-4.0943,-4.0613,-4.0394,-4.0394,-4.0034,-3.9582,-3.9094,-3.984,-3.9984,-3.9181,-3.9108,-3.8909,-3.8389,-3.8352,-3.8354,-3.8305,-3.8274,-3.8061,-3.7647,-3.7647,-3.7249,-3.6435,-3.6073,-3.5439,-3.4588,-3.4226,-3.381,-3.3393,-3.3393,-3.3452,-3.3534,-3.3534,-3.3591,-3.3671,-3.3671,-3.3671,-3.3657,-3.3577,-3.3534,-3.352,-3.3422,-3.3393,-3.3393,-3.3393,-3.3393,-3.3393,-3.3393,-3.3393,-3.3393,-3.3393,-3.3481,-3.3563,-3.3563,-3.3629,-3.3671,-3.3541,-3.3508,-3.3508,-3.355,-3.3574,-3.3578,-3.3394,-3.3512,-3.3573,-3.3335,-3.3306,-3.335,-3.3508,-3.3522,0.0,-3.3439,-3.3765,-3.3902,-3.3725,-3.4005,-3.4197,-3.4197,0.0,0.0,-3.4305,-3.4363,-3.4439,-3.4495,-3.4528,-3.4539,-3.455,-3.4572,-3.4634,-3.4697,-3.4759,-3.474,-3.4716,-3.4676,-3.4645,-3.4602,-3.458,-3.455,-3.4539,-3.4517,-3.4461,-3.4386,-3.4328,-3.4209,-3.4049,-3.3829,-3.3625,-3.3441,-4.0883,-4.082,-4.0838,-4.0806,-4.079,-4.079,-4.0774,-4.0744,-4.0712,-4.0712,-4.0091,-3.9653,-3.9653,-3.9033,-3.858,-3.8462,-3.8925,-3.8933,-3.8295,-3.8257,-3.8257,-3.8224,-3.8224,-3.8241,-3.8257,-3.813,-3.7678,-3.6832,-3.6832,-3.6399,-3.5605,-3.4932,-3.4552,-3.4389,-3.3701,-3.3393,-3.3393,-3.3393,-3.3524,-3.3698,-3.3698,-3.3815,-3.3998,-3.3998,-3.3998,-3.3972,-3.382,-3.3753,-3.3726,-3.3549,-3.3495,-3.3495,-3.3495,-3.3495,-3.3495,-3.3495,-3.3495,-3.3495,-3.3452,-3.3495,-3.3534,-3.3534,-3.3657,-3.3815,-3.3934,-3.3947,-3.3998,-3.4117,-3.4043,-3.3908,-3.3753,-3.3753,-3.3694,-3.3462,-3.3451,-3.3536,-3.3815,0.0,-3.3934,-3.4124,-3.4173,-3.4185,-3.4148,-3.4173,-3.4197,-3.4197,-3.4197,0.0,0.0,-3.4269,-3.4351,-3.4473,-3.4539,-3.455,-3.4495,-3.458,-3.4583,-3.4591,-3.4602,-3.4583,-3.4572,-3.4528,-3.4528,-3.4572,-3.4517,-3.4495,-3.4495,-3.4484,-3.4397,-3.4293,-3.4293,-3.4099,-3.3829,-3.378,-3.3569,-3.3294,-3.9602,-3.9589,-3.9549,-3.9509,-3.9407,-3.9336,-3.9316,-3.9096,-3.8891,-3.8891,-3.866,-3.8456,-3.8456,-3.8365,-3.8276,-3.8241,-3.8334,-3.8401,-3.8449,-3.8546,-3.8549,-3.8385,-3.8368,-3.8415,-3.8541,-3.7879,-3.7009,-3.6001,-3.6001,-3.5569,-3.4772,-3.4661,-3.4244,-3.3592,-3.3465,-3.3393,-3.3393,-3.3393,-3.3524,-3.3698,-3.3698,-3.3815,-3.3998,-3.3998,-3.3998,-3.3998,-3.3959,-3.3947,-3.3947,-3.3908,-3.3908,-3.3908,-3.3908,-3.3908,-3.3908,-3.3908,-3.3908,-3.3868,-3.3698,-3.3895,-3.4161,-3.4161,-3.4185,-3.4124,-3.382,-3.3753,-3.368,-3.3508,-3.3648,-3.3815,-3.3793,-3.3972,-3.4111,-3.4068,-3.4055,-3.4068,0.0,0.0,-3.4074,-3.3881,-3.4061,-3.4111,-3.3881,-3.4074,-3.4197,-3.4197,-3.4197,-3.4221,-3.4281,-3.4293,-3.4305,-3.4328,-3.445,-3.4506,-3.4495,-3.458,-3.4561,-3.4517,-3.4561,-3.4561,-3.4517,-3.4506,-3.4506,-3.4517,-3.445,-3.445,-3.4495,-3.4393,-3.4316,-3.4293,-3.4233,-3.4148,-3.4049,-3.4049,-3.3934,-3.3788,-3.9452,-3.9414,-3.9402,-3.937,-3.93,-3.9274,-3.9266,-3.9146,-3.9031,-3.9031,-3.8966,-3.8894,-3.8894,-3.8894,-3.888,-3.8803,-3.8847,-3.8724,-3.8303,-3.8383,-3.8389,-3.8289,-3.7871,-3.7267,-3.6471,-3.6507,-3.5866,-3.4516,-3.5054,-3.4896,-3.4127,-3.4223,-3.4078,-3.3726,-3.3726,-3.3726,-3.3726,-3.3726,-3.3829,-3.4023,-3.4023,-3.4148,-3.4316,-3.4316,-3.4316,-3.4305,-3.4197,-3.4161,-3.4093,-3.3543,-3.3358,-3.3265,-3.2791,-3.2644,-3.2644,-3.2644,-3.3284,-3.3972,-3.3842,-3.3947,-3.4074,-3.4036,-3.3778,-3.3499,-3.3314,-3.3019,-3.2865,-3.3172,-3.3371,-3.3592,-3.4,-3.4173,-3.4245,-3.4209,-3.4197,0.0,0.0,-3.4197,-3.4161,-3.4036,-3.4124,-3.4148,-3.4023,-3.4124,-3.4197,-3.4197,-3.4197,-3.4209,-3.4245,-3.4281,-3.4293,-3.4293,-3.4351,-3.4439,-3.4495,-3.4495,-3.4495,-3.4495,-3.4495,-3.4495,-3.4495,-3.4439,-3.442,-3.4495,-3.4386,-3.4351,-3.4393,-3.4328,-3.4281,-3.4245,-3.4173,-3.4124,-3.4086,-3.4023,-3.3947,-3.3895,-3.9717,-3.9682,-3.967,-3.9647,-3.9635,-3.9635,-3.9599,-3.9563,-3.9514,-3.9489,-3.9421,-3.9383,-3.9363,-3.9363,-3.9244,-3.8936,-3.8988,-3.8683,-3.7766,-3.7746,-3.7806,-3.7883,-3.7116,-3.5918,-3.424,-3.5016,-3.4725,-3.3265,-3.4233,-3.4371,-3.378,-3.3921,-3.3906,-3.3721,-3.3721,-3.3598,-3.3413,-3.3413,-3.3537,-3.3715,-3.3715,-3.3848,-3.402,-3.402,-3.402,-3.4009,-3.3829,-3.3803,-3.3657,-3.2911,-3.2647,-3.2518,-3.1839,-3.1635,-3.1635,-3.1635,-3.2555,-3.3549,-3.35,-3.3475,-3.3463,-3.3413,-3.3062,-3.2704,-3.2711,-3.2348,-3.2174,-3.2769,-3.2888,-3.3053,-3.3611,-3.3722,-3.3699,-3.3652,0.0,0.0,0.0,-3.3918,-3.3993,-3.4179,-3.4197,-3.4197,-3.4197,-3.4197,-3.4197,-3.4197,-3.4197,-3.4197,-3.4197,-3.4245,-3.4281,-3.4281,-3.4305,-3.4381,-3.4461,-3.4427,-3.4439,-3.4484,-3.4409,-3.4439,-3.4473,-3.4351,-3.4351,-3.445,-3.4328,-3.4281,-3.4293,-3.4281,-3.4233,-3.4173,-3.4136,-3.4099,-3.4049,-3.3959,-3.3895,-3.3868,-4.0244,-4.0244,-4.0186,-4.0067,-4.0057,-4.0015,-3.9889,-3.9712,-3.9539,-3.9414,-3.9195,-3.8999,-3.895,-3.8935,-3.8621,-3.7794,-3.772,-3.7387,-3.657,-3.6533,-3.6624,-3.6895,-3.6192,-3.4921,-3.3068,-3.395,-3.3895,-3.2834,-3.3664,-3.4028,-3.3972,-3.3998,-3.3598,-3.2902,-3.2902,-3.2428,-3.1679,-3.1679,-3.1797,-3.198,-3.198,-3.2099,-3.2274,-3.2274,-3.2274,-3.2274,-3.2263,-3.2253,-3.2253,-3.2187,-3.2139,-3.2139,-3.2083,-3.2064,-3.2064,-3.2064,-3.2139,-3.2233,-3.2233,-3.2233,-3.2233,-3.2223,-3.2195,-3.2158,-3.2162,-3.2083,-3.1992,-3.1994,-3.195,-3.1916,-3.1961,-3.1979,-3.1979,-3.1979,0.0,0.0,-3.2983,-3.3094,-3.3361,-3.4104,-3.4197,-3.4197,-3.4197,-3.4197,-3.4197,-3.4197,-3.4197,-3.4197,-3.4197,-3.4209,-3.4209,-3.4209,-3.4328,-3.4381,-3.4316,-3.4363,-3.4397,-3.4416,-3.4397,-3.4397,-3.4397,-3.4328,-3.4305,-3.4305,-3.4245,-3.4245,-3.4293,-3.4233,-3.4173,-3.4111,-3.4173,-3.4086,-3.3921,-3.3972,-3.3908,-3.382,-4.0301,-4.0301,-4.0272,-4.0234,-4.0225,-4.0215,-4.0157,-4.0077,-4.0026,-3.9965,-3.9407,-3.8983,-3.8957,-3.8474,-3.8021,-3.7681,-3.7662,-3.7095,-3.5734,-3.5658,-3.5487,-3.5082,-3.4278,-3.3284,-3.2113,-3.2926,-3.3173,-3.2798,-3.3734,-3.4233,-3.4305,-3.3836,-3.3489,-3.3219,-3.2619,-3.2176,-3.1859,-3.1859,-3.192,-3.1984,-3.1984,-3.2025,-3.2105,-3.2105,-3.2105,-3.2105,-3.2105,-3.2105,-3.2011,-3.1523,-3.1363,-3.1269,-3.0772,-3.0603,-3.0603,-3.0603,-3.0603,-3.0603,-3.0603,-3.1334,-3.2071,-3.1998,-3.1595,-3.1229,-3.1177,-3.0764,-3.0509,-3.1009,-3.1061,-3.1218,-3.1719,-3.1794,-3.1794,-3.1794,0.0,-3.1905,-3.2221,-3.2258,-3.237,-3.2685,-3.2704,-3.2908,-3.3398,-3.3466,-3.3658,-3.416,-3.4197,-3.4197,-3.4197,-3.4197,-3.4197,-3.4197,-3.4245,-3.4281,-3.4293,-3.4281,-3.4293,-3.4328,-3.4293,-3.4293,-3.4328,-3.4269,-3.4257,-3.4293,-3.4233,-3.4209,-3.4233,-3.4209,-3.4161,-3.4099,-3.4086,-3.3998,-3.3895,-3.3881,-3.3842,-3.3807,-4.0301,-4.0301,-4.0301,-4.0301,-4.0072,-3.9881,-3.9881,-3.9661,-3.947,-3.9442,-3.8927,-3.8527,-3.8499,-3.7965,-3.7508,-3.726,-3.6974,-3.6231,-3.4821,-3.423,-3.3723,-3.3239,-3.2855,-3.2292,-3.1499,-3.2497,-3.3013,-3.299,-3.3936,-3.4319,-3.4153,-3.3642,-3.3131,-3.2655,-3.2003,-3.1579,-3.1354,-3.1354,-3.1354,-3.1354,-3.1354,-3.1354,-3.1354,-3.1354,-3.1354,-3.1354,-3.1354,-3.1354,-3.126,-3.0715,-3.0518,-3.0434,-2.987,-2.9701,-2.9701,-2.9701,-2.9701,-2.9701,-2.9701,-3.0508,-3.1321,-3.124,-3.0789,-3.0368,-3.0298,-2.9849,-2.9578,-3.0105,-3.0225,-3.0381,-3.0939,-3.105,-3.105,-3.105,-3.105,-3.1125,-3.1385,-3.1422,-3.1515,-3.1775,-3.1794,-3.2017,-3.2574,-3.263,-3.2853,-3.341,-3.3677,-3.3918,-3.4179,-3.4197,-3.4197,-3.4197,-3.4197,-3.4221,-3.4269,-3.4221,-3.4233,-3.4293,-3.4233,-3.4233,-3.4293,-3.4233,-3.4221,-3.4269,-3.4221,-3.4185,-3.4173,-3.4173,-3.4124,-3.4036,-3.4011,-3.3947,-3.3855,-3.3829,-3.382,-3.3807,-4.0282,-4.0282,-4.0282,-4.0282,-3.9565,-3.8992,-3.8992,-3.8266,-3.7677,-3.7614,-3.7605,-3.7538,-3.7409,-3.7399,-3.7058,-3.6252,-3.5381,-3.4557,-3.3733,-3.2122,-3.1287,-3.1496,-3.221,-3.2159,-3.125,-3.2723,-3.3465,-3.34,-3.4189,-3.417,-3.34,-3.34,-3.2499,-3.0893,-3.0893,-3.0452,-2.9711,-2.9711,-2.9711,-2.9711,-2.9711,-2.9711,-2.9701,-2.9701,-2.9701,-2.9701,-2.9701,-2.9701,-2.9701,-2.9701,-2.9701,-2.9701,-2.9701,-2.9701,-2.9701,-2.9701,-2.9701,-2.9701,-2.9701,-2.9711,-2.9711,-2.9701,-2.9701,-2.9673,-2.9607,-2.955,-2.9482,-2.9412,-2.939,-2.9407,-2.9407,-2.9407,-2.9407,-2.9407,-2.9407,-2.9686,-3.0485,-3.0586,-3.0883,-3.1682,-3.1775,-3.1775,-3.1794,-3.1794,-3.1794,-3.1794,-3.2555,-3.3343,-3.4141,-3.4179,-3.4197,-3.4179,-3.4197,-3.4197,-3.4197,-3.4197,-3.4233,-3.4293,-3.4233,-3.4233,-3.4293,-3.4233,-3.4197,-3.4197,-3.4197,-3.4161,-3.4099,-3.4099,-3.4023,-3.3908,-3.3972,-3.3908,-3.382,-3.3868,-3.3873,-3.3807,-3.8476,-3.8476,-3.8476,-3.8476,-3.8266,-3.8094,-3.8094,-3.7865,-3.7684,-3.7677,-3.7191,-3.6811,-3.6775,-3.6222,-3.5536,-3.4725,-3.442,-3.3906,-3.304,-3.2,-3.1699,-3.2317,-3.1868,-3.2043,-3.2937,-3.3402,-3.3639,-3.3601,-3.3847,-3.3582,-3.2823,-3.2155,-3.1615,-3.1145,-3.049,-3.0059,-2.9841,-2.9841,-2.9806,-2.9764,-2.9764,-2.9747,-2.9701,-2.9701,-2.9701,-2.9701,-2.9701,-2.9701,-2.9701,-2.9701,-2.9701,-2.9701,-2.9701,-2.9701,-2.9701,-2.9701,-2.9701,-2.9701,-2.9701,-2.9764,-2.9816,-2.9673,-2.9626,-2.9617,-2.955,-2.9502,-2.9492,-2.9472,-2.9423,-2.9401,-2.9401,-2.9399,-2.9429,-2.9531,-2.9541,-2.9664,-3.0055,-2.9983,-2.9981,-3.0224,-3.0178,-3.0344,-3.0902,-3.0957,-3.1199,-3.1756,-3.2555,-3.2871,-3.2537,-3.3584,-3.3937,-3.338,-3.39,-3.4197,-3.4197,-3.4197,-3.4209,-3.4233,-3.4209,-3.4209,-3.4221,-3.4161,-3.4136,-3.4136,-3.4136,-3.4099,-3.4036,-3.4086,-3.4023,-3.3895,-3.3921,-3.3868,-3.3788,-3.3815,-3.382,-3.3715,-3.7789,-3.7775,-3.7753,-3.7702,-3.7445,-3.7234,-3.7234,-3.6929,-3.6719,-3.6719,-3.6298,-3.5851,-3.5553,-3.5324,-3.4885,-3.4071,-3.3995,-3.3624,-3.2756,-3.1954,-3.1866,-3.2661,-3.1813,-3.1931,-3.3237,-3.3578,-3.3561,-3.3193,-3.3193,-3.2784,-3.202,-3.1476,-3.1048,-3.0717,-3.0148,-2.9897,-2.9897,-2.9897,-2.9883,-2.9841,-2.9841,-2.9825,-2.9773,-2.9773,-2.9773,-2.9782,-2.9842,-2.9832,-2.9832,-2.9883,-2.9891,-2.9855,-2.9891,-2.9891,-2.9855,-2.9855,-2.9855,-2.9855,-2.9855,-2.9921,-2.995,-2.9839,-2.9805,-2.9769,-2.9706,-2.9697,-2.9697,-2.9698,-2.9672,-2.9644,-2.9644,-2.958,-2.9541,-2.9626,-2.957,-2.9551,-2.969,-2.9589,-2.9531,-2.9531,-2.946,-2.9582,-3.0084,-3.0176,-3.0576,-3.1461,-3.1967,-3.2181,-3.201,-3.2916,-3.3234,-3.2729,-3.3504,-3.3945,-3.3971,-3.4278,-3.4344,-3.4161,-3.4293,-3.434,-3.4316,-3.4379,-3.4401,-3.4379,-3.4379,-3.4314,-3.4232,-3.4279,-3.4046,-3.3622,-3.3276,-3.2932,-3.2618,-3.2618,-3.2582,-3.2508,-3.7719,-3.7688,-3.7671,-3.7521,-3.6922,-3.6416,-3.6416,-3.5739,-3.5223,-3.5223,-3.5223,-3.4955,-3.4217,-3.4775,-3.4882,-3.4087,-3.3918,-3.3547,-3.2756,-3.2012,-3.1935,-3.268,-3.1992,-3.1886,-3.2485,-3.3293,-3.3251,-3.233,-3.233,-3.1903,-3.1116,-3.1116,-3.0698,-2.994,-2.994,-2.994,-2.994,-2.9929,-2.9929,-2.9929,-2.9937,-2.9937,-2.9929,-2.9929,-2.9929,-2.9945,-3.0079,-3.0075,-3.003,-3.0155,-3.0143,-3.0115,-3.0176,-3.0162,-3.0109,-3.0109,-3.0109,-3.0109,-3.0109,-3.0115,-3.0129,-3.0129,-3.0136,-3.011,-3.0028,-3.0006,-2.9999,-3.0015,-3.0007,-3.0,-3.0,-2.9848,-2.9722,-2.9742,-2.958,-2.9482,-2.9481,-2.9461,-2.947,-2.947,-2.945,-2.944,-2.944,-2.957,-3.0009,-3.093,-3.1052,-3.1386,-3.2043,-3.2222,-3.226,-3.2203,-3.2968,-3.3402,-3.3459,-3.4188,-3.4438,-3.4173,-3.4465,-3.4583,-3.4528,-3.4762,-3.4841,-3.4783,-3.4783,-3.4629,-3.4375,-3.4375,-3.3817,-3.2891,-3.2091,-3.134,-3.0665,-3.0665,-3.0586,-3.0605,-3.6104,-3.6093,-3.6096,-3.606,-3.5904,-3.5797,-3.5797,-3.5599,-3.5432,-3.5432,-3.5432,-3.5374,-3.5181,-3.5273,-3.5004,-3.4148,-3.3409,-3.2909,-3.2718,-3.2546,-3.2527,-3.2699,-3.2527,-3.2195,-3.1657,-3.2497,-3.2527,-3.1691,-3.1691,-3.1253,-3.0421,-3.0421,-3.0326,-3.0135,-3.0135,-3.0135,-3.0142,-3.0195,-3.0176,-3.0135,-3.0184,-3.0177,-3.0124,-3.0124,-3.0124,-3.0143,-3.0162,-3.0162,-3.0155,-3.0122,-3.0115,-3.0089,-3.0122,-3.0115,-3.0109,-3.0109,-3.0109,-3.0109,-3.0109,-3.0177,-3.0259,-3.0259,-3.0386,-3.0422,-3.015,-3.0075,-3.0075,-3.0087,-3.004,-2.9991,-2.9991,-2.9966,-2.9969,-3.0059,-3.0063,-3.0071,-3.0161,-3.0056,-2.9954,-2.9954,-2.9861,-2.9786,-2.9786,-2.982,-2.9929,-3.014,-3.0739,-3.0884,-3.0368,-3.1589,-3.1986,-3.1308,-3.2062,-3.2496,-3.2496,-3.2685,-3.3401,-3.4651,-3.4713,-3.4713,-3.4662,-3.4653,-3.4663,-3.4643,-3.4643,-3.3857,-3.2572,-3.2613,-3.1729,-3.03,-3.0122,-2.9904,-2.9704,-2.9704,-2.9653,-2.9606,-3.5693,-3.5663,-3.5626,-3.5565,-3.5546,-3.5548,-3.5548,-3.5519,-3.5501,-3.5501,-3.5501,-3.5347,-3.498,-3.5239,-3.5104,-3.4218,-3.3704,-3.3241,-3.287,-3.2448,-3.2224,-3.2224,-3.1821,-3.1386,-3.0925,-3.1367,-3.1379,-3.093,-3.0901,-3.068,-3.0298,-3.0254,-3.0254,-3.0298,-3.0298,-3.0298,-3.0304,-3.0333,-3.0339,-3.0296,-3.0323,-3.0323,-3.0308,-3.0308,-3.0308,-3.0294,-3.0367,-3.0414,-3.043,-3.0395,-3.0359,-3.0271,-2.9897,-3.0026,-3.0271,-2.9886,-3.004,-3.0348,-3.0348,-3.0386,-3.0442,-3.0442,-3.0511,-3.055,-3.0375,-3.0346,-3.0346,-3.0346,-3.0309,-3.0272,-3.0234,-3.019,-3.0162,-3.0189,-3.0147,-3.0111,-3.0154,-3.0071,-3.0,-3.0,-2.9931,-2.9918,-2.9992,-3.0,-3.0011,-3.0092,-3.0486,-3.0517,-3.0063,-3.0868,-3.1142,-3.0692,-3.1439,-3.1876,-3.1901,-3.2283,-3.2938,-3.3847,-3.3749,-3.3667,-3.362,-3.3702,-3.3738,-3.3711,-3.3304,-3.2605,-3.1737,-3.1322,-3.037,-2.9118,-2.8717,-2.8271,-2.787,-2.787,-2.8061,-2.8334,-3.5843,-3.5779,-3.5728,-3.5605,-3.5579,-3.5574,-3.5574,-3.5563,-3.5577,-3.5577,-3.5571,-3.5314,-3.4654,-3.5013,-3.5023,-3.4286,-3.4081,-3.3651,-3.2821,-3.2094,-3.1637,-3.1507,-3.0799,-3.0413,-3.0402,-3.0402,-3.037,-3.0315,-3.0267,-3.0292,-3.0402,-3.035,-3.0356,-3.0402,-3.0402,-3.0402,-3.0407,-3.0418,-3.0428,-3.0447,-3.0443,-3.0448,-3.0448,-3.0448,-3.0448,-3.0472,-3.0572,-3.0649,-3.0673,-3.0673,-3.0544,-3.028,-2.9594,-2.9742,-3.002,-2.9361,-2.9629,-3.0171,-3.0171,-3.0159,-3.0169,-3.0169,-3.0152,-3.0192,-3.0346,-3.0482,-3.0598,-3.0598,-3.0598,-3.0588,-3.0501,-3.0403,-3.0316,-3.0254,-3.014,-3.0057,-2.9988,-2.9981,-2.9981,-2.9981,-2.9981,-3.0011,-3.0118,-3.0126,-3.0174,-3.0292,-3.0298,-3.0298,-3.0286,-3.0286,-3.0273,-3.0273,-3.0936,-3.1299,-3.1353,-3.2015,-3.2364,-3.2345,-3.2187,-3.2222,-3.2454,-3.2672,-3.2769,-3.2732,-3.1998,-3.1537,-3.1195,-3.043,-2.9505,-2.8489,-2.7625,-2.6849,-2.6176,-2.6154,-2.6726,-2.7476,-3.5962,-3.5978,-3.5955,-3.5949,-3.5873,-3.5858,-3.5858,-3.5855,-3.5859,-3.5859,-3.5852,-3.5806,-3.57,-3.5006,-3.4473,-3.4295,-3.3597,-3.2794,-3.1936,-3.1767,-3.1385,-3.0699,-3.0545,-3.0467,-3.0407,-3.0402,-3.0397,-3.0386,-3.0375,-3.0381,-3.0402,-3.0392,-3.0392,-3.0402,-3.0402,-3.0402,-3.0407,-3.052,-3.0567,-3.0572,-3.0649,-3.0668,-3.0668,-3.0668,-3.0668,-3.0668,-3.0677,-3.0661,-3.061,-3.061,-3.0145,-2.9524,-2.9373,-2.8861,-2.833,-2.8216,-2.827,-2.8348,-2.8348,-2.8348,-2.8343,-2.8343,-2.8343,-2.8552,-2.9306,-3.0056,-3.0598,-3.0598,-3.0598,-3.0588,-3.0501,-3.0486,-3.0455,-3.0381,-3.0358,-3.0334,-3.0336,-3.0336,-3.0336,-3.0336,-3.0336,-3.0311,-3.0279,-3.0279,-3.0273,-3.0299,-3.0299,-3.0267,-3.0227,-3.0208,-3.0214,-3.0206,-3.0314,-3.0371,-3.0397,-3.0505,-3.0543,-3.0543,-3.0522,-3.1271,-3.2649,-3.2699,-3.2676,-3.2613,-3.2499,-3.1641,-3.0281,-3.016,-2.9136,-2.7587,-2.6782,-2.6318,-2.6091,-2.5981,-2.6926,-2.824,-3.5941,-3.5939,-3.5937,-3.5945,-3.5914,-3.5907,-3.5907,-3.5897,-3.5908,-3.5908,-3.5897,-3.5719,-3.5224,-3.4335,-3.3582,-3.3106,-3.2714,-3.212,-3.1204,-3.1146,-3.0983,-3.0637,-3.0618,-3.0591,-3.0574,-3.057,-3.057,-3.057,-3.0467,-3.0453,-3.057,-3.053,-3.0534,-3.057,-3.057,-3.057,-3.0574,-3.0622,-3.0653,-3.0657,-3.0683,-3.0694,-3.0694,-3.0694,-3.0694,-3.069,-3.0703,-3.0672,-3.0587,-3.0098,-2.9691,-2.9229,-2.8251,-2.7992,-2.7969,-2.7519,-2.7709,-2.8066,-2.8104,-2.8087,-2.8061,-2.8061,-2.8061,-2.8161,-2.8546,-2.9308,-3.0053,-3.0509,-3.0598,-3.0583,-3.0505,-3.0495,-3.0479,-3.0419,-3.04,-3.0406,-3.041,-3.0402,-3.0408,-3.0404,-3.0404,-3.0373,-3.031,-3.0304,-3.0292,-3.0292,-3.0292,-3.0286,-3.0266,-3.0266,-3.0246,-3.0194,-3.0194,-3.0206,-3.0211,-3.0211,-3.0211,-3.0211,-3.0234,-3.0629,-3.1293,-3.1293,-3.129,-3.1222,-3.0712,-3.0068,-2.9338,-2.8772,-2.8081,-2.7347,-2.6949,-2.6763,-2.6701,-2.6549,-2.706,-2.7747]},{"header":{"parameterUnit":"m.s-1","parameterCategory":1,"la1":30.6,"la2":28.766,"lo1":-90.7593,"lo2":-88.6598,"dy":0.0162,"dx":0.0183,"nx":116,"ny":114,"refTime":"2023-06-27T12:00:00:Z","depth":0,"parameterNumber":3,"parameterNumberName":"V-component_of_WINDS"},"data":[0.0,0.0,0.0,0.0,0.0,0.0,0.0,0.0,0.0,0.0,0.0,0.0,0.0,0.0,0.0,0.0,0.0,0.0,0.0,0.0,0.0,0.0,0.0,0.0,0.0,0.0,0.0,0.0,0.0,0.0,0.0,0.0,0.0,0.0,0.0,0.0,0.0,0.0,0.0,0.0,0.0,0.0,0.0,0.0,0.0,0.0,0.0,0.0,0.0,0.0,0.0,0.0,0.0,0.0,0.0,0.0,0.0,0.0,0.0,0.0,0.0,0.0,0.0,0.0,0.0,0.0,0.0,0.0,0.0,0.0,0.0,0.0,0.0,0.0,0.0,0.0,0.0,0.0,0.0,0.0,0.0,0.0,0.0,0.0,0.0,0.0,0.0,0.0,0.0,0.0,0.0,0.0,0.0,0.0,0.0,0.0,0.0,0.0,0.0,0.0,0.0,0.0,0.0,0.0,0.0,0.0,0.0,0.0,0.0,0.0,0.0,0.0,0.0,0.0,0.0,0.0,0.0,0.0,0.0,0.0,0.0,0.0,0.0,0.0,0.0,0.0,0.0,0.0,0.0,0.0,0.0,0.0,0.0,0.0,0.0,0.0,0.0,0.0,0.0,0.0,0.0,0.0,0.0,0.0,0.0,0.0,0.0,0.0,0.0,0.0,0.0,0.0,0.0,0.0,0.0,0.0,0.0,0.0,0.0,0.0,0.0,0.0,0.0,0.0,0.0,0.0,0.0,0.0,0.0,0.0,0.0,0.0,0.0,0.0,0.0,0.0,0.0,0.0,0.0,0.0,0.0,0.0,0.0,0.0,0.0,0.0,0.0,0.0,0.0,0.0,0.0,0.0,0.0,0.0,0.0,0.0,0.0,0.0,0.0,0.0,0.0,0.0,0.0,0.0,0.0,0.0,0.0,0.0,0.0,0.0,0.0,0.0,0.0,0.0,0.0,0.0,0.0,0.0,0.0,0.0,0.0,0.0,0.0,0.0,0.0,0.0,0.0,0.0,0.0,0.0,0.0,0.0,0.0,0.0,0.0,0.0,0.0,0.0,0.0,0.0,0.0,0.0,0.0,0.0,0.0,0.0,0.0,0.0,0.0,0.0,0.0,0.0,0.0,0.0,0.0,0.0,0.0,0.0,0.0,0.0,0.0,0.0,0.0,0.0,0.0,0.0,0.0,0.0,0.0,0.0,0.0,0.0,0.0,0.0,0.0,0.0,0.0,0.0,0.0,0.0,0.0,0.0,0.0,0.0,0.0,0.0,0.0,0.0,0.0,0.0,0.0,0.0,0.0,0.0,0.0,0.0,0.0,0.0,0.0,0.0,0.0,0.0,0.0,0.0,0.0,0.0,0.0,0.0,0.0,0.0,0.0,0.0,0.0,0.0,0.0,0.0,0.0,0.0,0.0,0.0,0.0,0.0,0.0,0.0,0.0,0.0,0.0,0.0,0.0,0.0,0.0,0.0,0.0,0.0,0.0,0.0,0.0,0.0,0.0,0.0,0.0,0.0,0.0,0.0,0.0,0.0,0.0,0.0,0.0,0.0,0.0,0.0,0.0,0.0,0.0,0.0,0.0,0.0,0.0,0.0,0.0,0.0,0.0,0.0,0.0,0.0,0.0,0.0,0.0,0.0,0.0,0.0,0.0,0.0,0.0,0.0,0.0,0.0,0.0,0.0,0.0,0.0,0.0,0.0,0.0,0.0,0.0,0.0,0.0,0.0,0.0,0.0,0.0,0.0,0.0,0.0,0.0,0.0,0.0,0.0,0.0,0.0,0.0,0.0,0.0,0.0,0.0,0.0,0.0,0.0,0.0,0.0,0.0,0.0,0.0,0.0,0.0,0.0,0.0,0.0,0.0,0.0,0.0,0.0,0.0,0.0,0.0,0.0,0.0,0.0,0.0,0.0,0.0,0.0,0.0,0.0,0.0,0.0,0.0,0.0,0.0,0.0,0.0,0.0,0.0,0.0,0.0,0.0,0.0,0.0,0.0,0.0,0.0,0.0,0.0,0.0,0.0,0.0,0.0,0.0,0.0,0.0,0.0,0.0,0.0,0.0,0.0,0.0,0.0,0.0,0.0,0.0,0.0,0.0,0.0,0.0,0.0,0.0,0.0,0.0,0.0,0.0,0.0,0.0,0.0,0.0,0.0,0.0,0.0,0.0,0.0,0.0,0.0,0.0,0.0,0.0,0.0,0.0,0.0,0.0,0.0,0.0,0.0,0.0,0.0,0.0,0.0,0.0,0.0,0.0,0.0,0.0,0.0,0.0,0.0,0.0,0.0,0.0,0.0,0.0,0.0,0.0,0.0,0.0,0.0,0.0,0.0,0.0,0.0,0.0,0.0,0.0,0.0,0.0,0.0,0.0,0.0,0.0,0.0,0.0,0.0,0.0,0.0,0.0,0.0,0.0,0.0,0.0,0.0,0.0,0.0,0.0,0.0,0.0,0.0,0.0,0.0,0.0,0.0,0.0,0.0,0.0,0.0,0.0,0.0,0.0,0.0,0.0,0.0,0.0,0.0,0.0,0.0,0.0,0.0,0.0,0.0,0.0,0.0,0.0,0.0,0.0,0.0,0.0,0.0,0.0,0.0,0.0,0.0,0.0,0.0,0.0,0.0,0.0,0.0,0.0,0.0,0.0,0.0,0.0,0.0,0.0,0.0,0.0,0.0,0.0,0.0,0.0,0.0,0.0,0.0,0.0,0.0,0.0,0.0,0.0,0.0,0.0,0.0,0.0,0.0,0.0,0.0,0.0,0.0,0.0,0.0,0.0,0.0,0.0,0.0,0.0,0.0,0.0,0.0,0.0,0.0,0.0,0.0,0.0,0.0,0.0,0.0,0.0,0.0,0.0,0.0,0.0,0.0,0.0,0.0,0.0,0.0,0.0,0.0,0.0,0.0,0.0,0.0,0.0,0.0,0.0,0.0,0.0,0.0,0.0,0.0,0.0,0.0,0.0,0.0,0.0,0.0,0.0,0.0,0.0,0.0,0.0,0.0,0.0,0.0,0.0,0.0,0.0,0.0,0.0,0.0,0.0,0.0,0.0,0.0,0.0,0.0,0.0,0.0,0.0,0.0,0.0,0.0,0.0,0.0,0.0,0.0,0.0,0.0,0.0,0.0,0.0,0.0,0.0,0.0,0.0,0.0,0.0,0.0,0.0,0.0,0.0,0.0,0.0,0.0,0.0,0.0,0.0,0.0,0.0,0.0,0.0,0.0,0.0,0.0,0.0,0.0,0.0,0.0,0.0,0.0,0.0,0.0,0.0,0.0,0.0,0.0,0.0,0.0,0.0,0.0,0.0,0.0,0.0,0.0,0.0,0.0,0.0,0.0,0.0,0.0,0.0,0.0,0.0,0.0,0.0,0.0,0.0,0.0,0.0,0.0,0.0,0.0,0.0,0.0,0.0,0.0,0.0,0.0,0.0,0.0,0.0,0.0,0.0,0.0,0.0,0.0,0.0,0.0,0.0,0.0,0.0,0.0,0.0,0.0,0.0,0.0,0.0,0.0,0.0,0.0,0.0,0.0,0.0,0.0,0.0,0.0,0.0,0.0,0.0,0.0,0.0,0.0,0.0,0.0,0.0,0.0,0.0,0.0,0.0,0.0,0.0,0.0,0.0,0.0,0.0,0.0,0.0,0.0,0.0,0.0,0.0,0.0,0.0,0.0,0.0,0.0,0.0,0.0,0.0,0.0,0.0,0.0,0.0,0.0,0.0,0.0,0.0,0.0,0.0,0.0,0.0,0.0,0.0,0.0,0.0,0.0,0.0,0.0,0.0,0.0,0.0,0.0,0.0,0.0,0.0,0.0,0.0,0.0,0.0,0.0,0.0,0.0,0.0,0.0,0.0,0.0,0.0,0.0,0.0,0.0,0.0,0.0,0.0,0.0,0.0,0.0,0.0,0.0,0.0,0.0,0.0,0.0,0.0,0.0,0.0,0.0,0.0,0.0,0.0,0.0,0.0,0.0,0.0,0.0,0.0,0.0,0.0,0.0,0.0,0.0,0.0,0.0,0.0,0.0,0.0,0.0,0.0,0.0,0.0,0.0,0.0,0.0,0.0,0.0,0.0,0.0,0.0,0.0,0.0,0.0,0.0,0.0,0.0,0.0,0.0,0.0,0.0,0.0,0.0,0.0,0.0,0.0,0.0,0.0,0.0,0.0,0.0,0.0,0.0,0.0,0.0,0.0,0.0,0.0,0.0,0.0,0.0,0.0,0.0,0.0,0.0,0.0,0.0,0.0,0.0,0.0,0.0,0.0,0.0,0.0,0.0,0.0,0.0,0.0,0.0,0.0,0.0,0.0,0.0,0.0,0.0,0.0,0.0,0.0,0.0,0.0,0.0,0.0,0.0,0.0,0.0,0.0,0.0,0.0,0.0,0.0,0.0,0.0,0.0,0.0,0.0,0.0,0.0,0.0,0.0,0.0,0.0,0.0,0.0,0.0,0.0,0.0,0.0,0.0,0.0,0.0,0.0,0.0,0.0,0.0,0.0,0.0,0.0,0.0,0.0,0.0,0.0,0.0,0.0,0.0,0.0,0.0,0.0,0.0,0.0,0.0,0.0,0.0,0.0,0.0,0.0,0.0,0.0,0.0,0.0,0.0,0.0,0.0,0.0,0.0,0.0,0.0,0.0,0.0,0.0,0.0,0.0,0.0,0.0,0.0,0.0,0.0,0.0,0.0,0.0,0.0,0.0,0.0,0.0,0.0,0.0,0.0,0.0,0.0,0.0,0.0,0.0,0.0,0.0,0.0,0.0,0.0,0.0,0.0,0.0,0.0,0.0,0.0,0.0,0.0,0.0,0.0,0.0,0.0,0.0,0.0,0.0,0.0,0.0,0.0,0.0,0.0,0.0,0.0,0.0,0.0,0.0,0.0,0.0,0.0,0.0,0.0,0.0,0.0,0.0,0.0,0.0,0.0,0.0,0.0,0.0,0.0,0.0,0.0,0.0,0.0,0.0,0.0,0.0,0.0,0.0,0.0,0.0,0.0,0.0,0.0,0.0,0.0,0.0,0.0,0.0,0.0,0.0,0.0,0.0,0.0,0.0,0.0,0.0,0.0,0.0,0.0,0.0,0.0,0.0,0.0,0.0,0.0,0.0,0.0,0.0,0.0,0.0,0.0,0.0,0.0,0.0,0.0,0.0,0.0,0.0,0.0,0.0,0.0,0.0,0.0,0.0,0.0,0.0,0.0,0.0,0.0,0.0,0.0,0.0,0.0,0.0,0.0,0.0,0.0,0.0,0.0,0.0,0.0,0.0,0.0,0.0,0.0,0.0,0.0,0.0,0.0,0.0,0.0,0.0,0.0,0.0,0.0,0.0,0.0,0.0,0.0,0.0,0.0,0.0,0.0,0.0,0.0,0.0,0.0,0.0,0.0,0.0,0.0,0.0,0.0,0.0,0.0,0.0,0.0,0.0,0.0,0.0,0.0,0.0,0.0,0.0,0.0,0.0,0.0,0.0,0.0,0.0,0.0,0.0,0.0,0.0,0.0,0.0,0.0,0.0,0.0,0.0,0.0,0.0,0.0,0.0,0.0,0.0,0.0,0.0,0.0,0.0,0.0,0.0,0.0,0.0,0.0,0.0,0.0,0.0,0.0,0.0,0.0,0.0,0.0,0.0,0.0,0.0,0.0,0.0,0.0,0.0,0.0,0.0,0.0,0.0,0.0,0.0,0.0,0.0,0.0,0.0,0.0,0.0,0.0,0.0,0.0,0.0,0.0,0.0,0.0,0.0,0.0,0.0,0.0,0.0,0.0,0.0,0.0,0.0,0.0,0.0,0.0,0.0,0.0,0.0,0.0,0.0,0.0,0.0,0.0,0.0,0.0,0.0,0.0,0.0,0.0,0.0,0.0,0.0,0.0,0.0,0.0,0.0,0.0,0.0,0.0,0.0,0.0,0.0,0.0,0.0,0.0,0.0,0.0,0.0,0.0,0.0,0.0,0.0,0.0,0.0,0.0,0.0,0.0,0.0,0.0,0.0,0.0,0.0,0.0,0.0,0.0,0.0,0.0,0.0,0.0,0.0,0.0,0.0,0.0,0.0,0.0,0.0,0.0,0.0,0.0,0.0,0.0,0.0,0.0,0.0,-1.7483,0.0,0.0,0.0,0.0,0.0,0.0,0.0,0.0,0.0,0.0,0.0,0.0,0.0,0.0,0.0,0.0,0.0,0.0,0.0,0.0,0.0,0.0,0.0,0.0,0.0,0.0,0.0,0.0,0.0,0.0,0.0,0.0,0.0,0.0,0.0,0.0,0.0,0.0,0.0,1.3662,1.3245,1.2705,1.2443,1.1666,1.0409,0.0,0.0,0.0,0.0,0.0,0.0,0.0,0.0,0.0,0.0,0.0,0.0,0.0,0.0,0.0,0.0,0.0,0.0,0.0,0.0,0.0,0.0,0.0,0.0,0.0,0.0,0.0,0.0,0.0,0.0,0.0,0.0,0.0,0.0,0.0,0.0,0.0,0.0,0.0,0.0,0.0,0.0,0.0,0.0,0.0,0.0,0.0,0.0,0.0,0.0,0.0,0.0,0.0,0.0,0.0,0.0,0.0,0.0,0.0,0.0,0.0,0.0,0.0,0.0,0.0,0.0,0.0,0.0,0.0,0.0,0.0,-1.7582,0.0,0.0,0.0,0.0,0.0,0.0,0.0,0.0,0.0,0.0,0.0,0.0,0.0,0.0,0.0,0.0,0.0,0.0,0.0,0.0,0.0,0.0,0.0,0.0,0.0,0.0,0.0,0.0,0.0,0.0,0.0,0.0,0.0,0.0,0.0,1.6291,1.606,1.5511,1.4949,1.4196,1.3281,1.3075,1.2522,1.166,1.0448,0.0,0.0,0.0,0.0,0.0,0.0,0.0,0.0,0.0,0.0,0.0,0.0,0.0,0.0,0.0,0.0,0.0,0.0,0.0,0.0,0.0,0.0,0.0,0.0,0.0,0.0,0.0,0.0,0.0,0.0,0.0,0.0,0.0,0.0,0.0,0.0,0.0,0.0,0.0,0.0,0.0,0.0,0.0,0.0,0.0,0.0,0.0,0.0,0.0,0.0,0.0,0.0,0.0,0.0,0.0,0.0,0.0,0.0,0.0,0.0,0.0,0.0,0.0,0.0,0.0,-1.6382,-1.7303,-1.7742,-1.7742,-1.7742,-1.7682,-1.7582,0.0,0.0,0.0,0.0,0.0,0.0,0.0,0.0,0.0,0.0,0.0,0.0,0.0,0.0,0.0,0.0,0.0,0.0,0.0,0.0,0.0,0.0,0.0,0.0,0.0,0.0,0.0,0.0,0.0,0.0,0.0,0.0,0.0,1.7172,1.7536,1.7123,1.5928,1.5838,1.5715,1.555,1.4608,1.3895,1.3334,1.1778,1.0453,0.9348,0.0,0.0,0.0,0.0,0.0,0.0,0.0,0.0,0.0,0.0,0.0,0.0,0.0,0.0,0.0,0.0,0.0,0.0,0.0,0.0,0.0,0.0,0.0,0.0,0.0,0.0,0.0,0.0,0.0,0.0,0.0,0.0,0.0,0.0,0.0,0.0,0.0,0.0,0.0,0.0,0.0,-0.5085,-0.8491,0.0,0.0,0.0,0.0,0.0,0.0,0.0,0.0,0.0,0.0,0.0,0.0,0.0,0.0,-0.8885,-0.9596,-1.1084,-1.3442,-1.4274,-1.5887,-1.8143,-1.8315,-1.837,-1.837,-1.837,0.0,-1.7582,-1.7582,0.0,0.0,0.0,0.0,0.0,0.0,0.0,0.0,0.0,0.0,0.0,0.0,0.0,0.0,0.0,0.0,0.0,0.0,0.0,0.0,0.0,0.0,0.0,0.0,0.0,0.0,0.0,0.0,0.0,0.0,0.0,1.9529,1.8767,1.8856,1.8278,1.6952,1.6683,1.6388,1.5962,1.5282,1.4831,1.4573,1.2681,1.1235,1.0101,0.9022,0.0,0.0,0.0,0.0,0.0,0.0,0.0,0.0,0.0,0.0,0.0,0.0,0.0,0.0,0.0,0.0,0.0,0.0,0.0,0.0,0.0,0.0,0.0,0.0,0.0,0.0,0.0,0.0,0.0,0.0,0.0,0.0,0.0,0.0,0.0,0.0,0.0,0.0,0.0,-0.3858,-0.5419,-0.7654,-0.8045,-0.8325,0.0,0.0,0.0,0.0,0.0,0.0,0.0,0.0,0.0,-0.9059,-0.9144,-0.9245,-0.9472,-1.0371,-1.1247,-1.2108,-1.4407,-1.582,-1.6502,-1.7867,-1.849,-1.849,-1.849,-1.8337,-1.8083,-1.7916,-1.7742,-1.7635,0.0,0.0,0.0,0.0,0.0,0.0,0.0,0.0,0.0,0.0,0.0,0.0,0.0,0.0,0.0,0.0,0.0,0.0,0.0,0.0,0.0,1.5345,0.0,0.0,0.0,0.0,0.0,0.0,0.0,2.0059,1.9981,1.9794,1.9183,1.8198,1.7844,1.7383,1.6822,1.6281,1.5925,1.5718,1.3782,1.2217,1.0977,0.9808,0.9185,0.8907,0.0,0.0,0.0,0.0,0.0,0.0,0.0,0.0,0.0,0.0,0.0,0.0,0.0,0.0,0.0,0.0,0.0,0.0,0.0,0.0,0.0,0.0,0.0,0.0,0.0,0.0,0.0,0.0,0.0,0.0,0.0,0.0,0.0,0.0,0.0,0.0,0.0,-0.486,-0.5919,-0.7374,-0.838,-0.8885,0.0,0.0,0.0,0.0,0.0,0.0,-0.8994,-0.9133,-0.9268,-0.9268,-0.932,-0.9555,-0.9903,-1.082,-1.1471,-1.1859,-1.4655,-1.6,-1.6125,-1.7904,-1.8711,-1.8711,-1.8711,-1.8671,-1.8577,-1.8283,-1.7976,-1.7755,-1.833,-1.8492,0.0,-1.9063,-1.9279,-1.9279,0.0,0.0,0.0,0.0,0.0,0.0,0.0,0.0,0.0,0.0,0.0,0.0,0.0,0.0,1.5387,1.7017,1.7253,1.8109,0.0,0.0,0.0,2.0566,2.0566,2.0489,2.0264,2.002,1.9754,1.9518,1.9478,1.935,1.9094,1.8069,1.7342,1.687,1.5282,1.3691,1.2083,1.0126,0.9188,0.8928,0.828,0.0,0.0,0.0,0.0,0.0,0.0,0.0,0.0,0.0,0.0,0.0,0.0,0.0,0.0,0.0,0.0,0.0,0.0,0.0,0.0,0.0,0.0,0.0,0.0,0.0,0.0,0.0,0.0,0.0,0.0,0.0,0.0,0.0,0.0,0.0,0.0,0.0,0.0,-0.8546,-0.8881,0.0,0.0,0.0,0.0,-0.8885,-0.9066,-0.92,-0.92,-0.9344,-0.9367,-0.9367,-0.9378,-0.9555,-0.9903,-1.0185,-1.1814,-1.4719,-1.5129,-1.6703,-1.9203,-1.9319,-1.9325,-1.9325,-1.9325,-1.9165,-1.8878,-1.8591,-1.829,-1.8023,-1.8656,-1.8681,-1.8475,-1.9063,-1.9279,-1.9279,0.0,0.0,0.0,0.0,0.0,0.0,0.0,0.0,0.0,0.0,0.0,0.0,0.0,1.5835,1.6478,1.7212,1.8341,1.9265,2.0001,0.0,0.0,2.1728,2.1252,2.0848,2.0489,2.0411,2.0177,1.9784,1.9784,1.9745,1.9666,1.8895,1.8456,1.8184,1.6232,1.5032,1.4308,1.1719,1.0301,0.9826,0.8809,0.7955,0.0,0.0,0.0,0.0,0.0,0.0,0.0,0.0,0.0,0.0,0.0,0.0,0.0,0.0,0.0,0.0,0.0,0.0,0.0,0.0,0.0,0.0,0.0,0.0,0.0,0.0,0.0,0.0,0.0,0.0,0.0,0.0,0.0,0.0,0.0,0.0,0.0,-0.7543,-0.8436,0.0,-0.9066,-0.9076,-0.9117,-0.9215,-0.9269,-0.93,-0.93,-0.9445,-0.953,-0.953,-0.9793,-1.014,-1.0498,-1.1616,-1.2826,-1.4143,-1.5904,-1.7247,-1.8227,-1.901,-1.9424,-1.9424,-1.9424,-1.9305,-1.9199,-1.9098,-1.8771,-1.8385,-1.8974,-1.9177,-1.9104,-1.95,-1.9639,-1.961,0.0,0.0,0.0,0.0,0.0,0.0,0.0,0.0,0.0,0.0,0.0,1.5533,1.6173,1.6772,1.7407,1.8092,1.9216,2.006,2.0421,0.0,0.0,2.2472,2.1928,2.1339,2.0799,2.0809,2.0566,2.0137,2.0137,2.0059,1.9902,1.9429,1.9121,1.8922,1.7399,1.6494,1.6034,1.3665,1.1926,1.061,0.9611,0.8763,0.8044,0.0,0.0,0.0,0.0,0.0,0.0,0.0,0.0,0.0,0.0,0.0,0.0,0.0,0.0,0.0,0.0,0.0,0.0,0.0,0.0,0.0,0.0,0.0,0.0,0.0,0.0,0.0,0.0,0.0,0.0,0.0,0.0,0.0,0.0,0.0,-0.5986,-0.7597,-0.8503,-0.9069,-0.9272,-0.9286,-0.933,-0.9374,-0.9429,-0.9459,-0.9459,-0.9598,-0.968,-0.968,-1.0073,-1.0486,-1.0789,-1.1985,-1.3186,-1.4381,-1.6037,-1.7337,-1.8169,-1.901,-1.9424,-1.9424,-1.9424,-1.9424,-1.9424,-1.9424,-1.9138,-1.8834,-1.9334,-1.9499,-1.9435,-1.978,-1.9923,-1.9879,0.0,0.0,0.0,0.0,0.0,0.0,0.0,0.0,0.0,0.0,1.5567,1.6098,1.718,1.7342,1.806,1.9777,1.9933,2.0421,2.1502,2.2247,0.0,2.2723,2.2547,2.208,2.1282,2.1244,2.1089,2.0741,2.0741,2.0469,2.0019,1.9792,1.9476,1.9078,1.8847,1.8155,1.7123,1.5966,1.3889,1.137,1.0684,0.9719,0.8586,0.0,0.0,0.0,0.0,0.0,0.0,0.0,0.0,0.0,0.0,0.0,0.0,0.0,0.0,0.0,0.0,0.0,0.0,0.0,0.0,0.0,0.0,0.0,0.0,0.0,0.0,0.0,0.0,0.0,0.0,0.0,0.0,0.0,-0.4972,-0.5363,-0.6349,-0.8904,-0.9214,-0.9275,-0.9374,-0.9388,-0.9391,-0.9395,-0.9534,-0.9615,-0.9615,-0.9747,-0.9822,-0.9822,-1.0122,-1.0486,-1.0789,-1.1152,-1.2826,-1.5575,-1.5634,-1.6991,-1.9424,-1.9424,-1.9424,-1.9424,-1.9424,-1.9424,-1.9424,-1.9424,-1.9424,-1.9455,-1.9721,-1.964,-1.9491,-2.0033,-2.0183,-2.0179,0.0,0.0,0.0,0.0,0.0,0.0,0.0,0.0,0.0,0.0,1.5575,1.6098,1.718,1.798,1.9018,2.045,2.1116,2.1918,2.2872,0.0,0.0,2.3268,2.3117,2.2868,2.2521,2.2371,2.2595,2.3297,2.3297,2.3019,2.249,2.229,2.1698,2.0791,2.009,1.9633,1.923,1.7711,1.6139,1.446,1.1863,1.0359,0.9531,0.0,0.0,0.0,0.0,0.0,0.0,0.0,0.0,0.0,0.0,0.0,0.0,0.0,0.0,0.0,0.0,0.0,0.0,0.0,0.0,0.0,0.0,0.0,0.0,0.0,0.0,0.0,0.0,0.0,0.0,0.0,0.0,-0.196,-0.4639,-0.5135,-0.6091,-0.8524,-0.9138,-0.9378,-0.9534,-0.9547,-0.9588,-0.9693,-0.9737,-0.9764,-0.9764,-0.9798,-0.9822,-0.9822,-1.0365,-1.0728,-1.0789,-1.2286,-1.3904,-1.5634,-1.6514,-1.7818,-1.9424,-1.9424,-1.9424,-1.9424,-1.9424,-1.9424,-1.9424,-1.9424,-1.9424,-1.9475,-1.995,-2.0095,-2.0111,-2.0446,-2.0296,-1.9879,0.0,0.0,0.0,0.0,0.0,0.0,0.0,0.0,0.0,0.0,1.5748,1.627,1.7359,1.851,1.962,2.0721,2.1945,2.2957,2.3599,0.0,2.4145,2.4133,2.3986,2.3943,2.405,2.3939,2.4213,2.4937,2.5002,2.4779,2.4219,2.3732,2.305,2.2176,2.1205,2.0587,2.0138,1.9091,1.7965,1.6713,1.4276,1.2132,1.0344,0.962,0.8968,0.8392,0.8247,0.7854,0.7314,0.6862,0.0,0.0,0.0,0.0,0.0,0.0,0.0,0.0,0.0,0.0,0.0,0.0,0.0,0.0,0.0,0.0,0.0,0.0,0.0,0.0,0.0,0.0,0.0,0.0,-0.0897,-0.1404,-0.3502,-0.4555,-0.6038,-0.857,-0.9247,-0.9537,-0.9683,-0.9696,-0.9734,-0.9815,-0.9822,-0.9822,-0.9822,-0.9822,-0.9822,-0.9822,-1.0304,-1.0668,-1.0789,-1.2049,-1.3665,-1.5634,-1.6338,-1.7642,-1.9424,-1.9424,-1.9424,0.0,-1.9424,-1.9424,-1.9424,-1.9424,-1.9424,0.0,0.0,0.0,0.0,0.0,-2.0516,-1.9959,0.0,0.0,0.0,0.0,0.0,0.0,0.0,0.0,0.0,0.0,0.0,1.6492,1.7578,1.8767,1.9874,2.076,2.2403,2.3526,0.0,2.4636,2.5063,2.5098,2.4933,2.511,2.5718,2.5777,2.5926,2.6268,2.6434,2.6203,2.5563,2.4796,2.4081,2.3419,2.2428,2.144,2.0504,2.0213,1.9428,1.8289,1.7172,1.4506,1.1214,1.0746,0.9936,0.8994,0.8781,0.87,0.8679,0.8551,0.0,0.0,0.0,0.0,0.0,0.0,0.0,0.0,0.0,0.0,0.0,0.0,0.0,0.0,0.0,0.0,0.0,0.0,0.0,0.0,0.0,0.0,0.0,0.0,-0.0562,-0.0792,-0.2068,-0.374,-0.5813,-0.8491,-0.9258,-0.9623,-0.9808,-0.9822,-0.9822,-0.9822,-0.9822,-0.9822,-0.9822,0.0,0.0,0.0,0.0,-1.0486,-1.0789,-1.1152,-1.2646,-1.5397,-1.5515,-1.6873,-1.9191,-1.9307,-1.9424,-1.9424,-1.9424,-1.9424,-1.9424,-1.9424,-1.9424,-1.954,-2.0104,-2.0335,-2.045,-2.0974,-2.0794,0.0,0.0,0.0,0.0,0.0,0.0,0.0,0.0,0.0,0.0,1.4559,1.5492,1.6492,1.7578,1.8416,1.9471,2.0904,2.201,2.3279,2.4898,2.5158,2.5441,2.5871,2.5601,2.5985,2.7157,2.7476,2.8049,2.9022,2.9059,2.8724,2.8011,2.7656,2.6656,2.5048,2.4451,2.3571,2.2471,2.1568,2.0513,1.9406,1.8469,1.5988,1.2689,1.1844,1.0586,0.9244,0.92,0.9161,0.903,0.8225,0.7702,0.7173,0.5847,0.5228,0.0,0.0,0.0,0.0,0.0,0.0,0.0,0.0,0.0,0.0,0.0,0.0,0.0,0.0,0.0,0.0,0.0,0.0,0.0,-0.0449,-0.0284,-0.0633,-0.2162,-0.272,-0.4056,-0.6832,-0.8434,-0.9488,-0.9758,-0.9822,-0.9822,-0.9822,-0.9822,-0.9822,-0.9822,-0.9822,0.0,-0.9822,-1.0122,-1.0486,-1.0789,-1.1152,-1.223,-1.4083,0.0,0.0,-1.7929,-1.8946,-1.9424,-1.9424,-1.9424,-1.9424,-1.9424,-1.9424,-1.9707,-2.0162,-2.027,-2.0622,-2.1031,-2.1153,-2.0794,-2.0183,0.0,0.0,0.0,0.0,0.0,0.0,0.0,0.0,0.0,0.0,1.4761,1.576,1.6747,1.8037,1.9471,2.0961,2.2776,0.0,2.5229,2.5312,2.5406,2.5674,2.5812,2.663,2.8273,2.8734,2.9496,3.0529,3.0653,3.0412,2.9845,2.9408,2.8509,2.7204,2.6457,2.5357,2.4072,2.342,2.2289,2.089,2.0131,1.8059,1.5343,1.3636,1.1734,0.9946,0.982,0.9646,0.9345,0.8767,0.8233,0.7654,0.6861,0.6065,0.5406,0.0,0.0,0.0,0.0,0.0,0.0,0.0,0.0,0.0,0.0,0.0,0.0,0.0,0.0,0.0,0.0,0.0,-0.0056,-0.017,-0.0114,-0.029,-0.1069,-0.1798,-0.3317,-0.6187,-0.7638,-0.8653,-0.9457,-0.97,-0.9822,-0.9822,-0.9822,-0.9822,-0.9822,-0.9822,-0.9822,-0.9822,-0.9943,-1.0183,-1.0547,-1.091,-1.1868,-1.3485,-1.4917,-1.6279,-1.7513,-1.8823,-1.9424,-1.9424,-1.9424,-1.9424,-1.9424,-1.9533,-1.9873,-2.0328,-2.0443,-2.0795,-2.1211,-2.1211,-2.0903,-2.0457,0.0,0.0,0.0,0.0,0.0,0.0,0.0,0.0,0.0,0.0,1.4028,1.5039,1.5959,1.7706,1.9492,0.0,0.0,2.5052,2.5276,2.5312,2.5347,2.5488,2.5982,2.7119,2.8911,2.9583,3.0379,3.1359,3.1529,3.1522,3.1198,3.0545,2.982,2.8969,2.7956,2.6632,2.5094,2.484,2.373,2.2042,2.1488,1.9825,1.7478,1.5468,1.3207,1.1015,1.0679,1.0294,0.9903,0.9733,0.9157,0.8444,0.8097,0.7126,0.6113,0.634,0.5852,0.0,0.0,0.0,0.0,0.0,0.0,0.0,0.0,0.0,0.0052,0.0053,0.0054,0.0,0.0,0.0,0.0,0.0,0.0,0.0,0.0,-0.0907,-0.2673,-0.5586,-0.6693,-0.7734,-0.9153,-0.9518,-0.9761,-0.9822,-0.9822,-0.9822,-0.9822,-0.9822,-0.9822,-0.9822,-0.9822,-0.9943,-1.0304,-1.0607,-1.1507,-1.2822,-1.4436,-1.5919,-1.7155,-1.8473,-1.9185,-1.9424,-1.9424,-1.9424,-1.9424,-1.9649,-1.9931,-2.0328,-2.0551,-2.0845,-2.1211,-2.1211,-2.1006,-2.0676,0.0,0.0,0.0,0.0,0.0,0.0,0.0,0.0,0.0,0.0,0.0,0.0,0.0,0.0,0.0,0.0,2.3143,2.4202,2.5241,2.5312,2.5558,2.6094,2.6621,2.7462,2.8705,2.9839,3.0757,3.1482,3.173,3.1913,3.1946,3.1394,3.0393,2.8954,2.8323,2.6953,2.5147,2.4733,2.3589,2.2093,2.2012,2.0086,1.7204,1.675,1.4986,1.2608,1.1832,1.137,1.1111,1.1063,1.102,1.0669,0.9235,0.8667,0.8229,0.6823,0.634,0.6311,0.6671,0.6915,0.655,0.4422,0.3872,0.3304,0.0,0.0,0.0374,0.0381,0.0164,0.0,0.0,0.0,0.0,0.0,0.0,0.0,0.0,-0.0122,-0.123,-0.3875,-0.5531,-0.7248,-0.9092,-0.9335,-0.9457,-0.9758,-0.9822,-0.9822,-0.9822,-0.9822,-0.9822,-0.9822,-0.9822,-0.9943,-1.0304,-1.0607,-1.1031,-1.1511,-1.3126,-1.4555,-1.5865,-1.7103,-1.835,-1.9424,-1.9424,-1.9424,-1.9424,-1.9424,-1.9764,-2.027,-2.0328,-2.068,-2.1211,-2.1211,-2.1006,-2.0676,0.0,0.0,0.0,0.0,0.0,0.0,0.0,0.0,0.0,0.0,0.0,0.0,0.0,0.0,0.0,2.1469,2.2349,2.3353,2.4528,2.4492,2.4814,2.5629,2.6315,2.7044,2.7862,2.8808,2.9579,3.0228,3.0352,3.0436,3.0445,3.0122,2.9563,2.8799,2.8362,2.7216,2.5665,2.5344,2.4202,2.2661,2.2288,2.0791,1.8685,1.7854,1.6299,1.4385,1.2814,1.2015,0.0,1.1714,1.1628,1.1327,1.0111,0.9331,0.8671,0.7536,0.683,0.6445,0.6721,0.6543,0.5927,0.4375,0.3571,0.2751,0.1262,0.0802,0.0707,0.0664,0.0444,0.0223,0.0224,0.0112,0.0,0.0,0.0,0.0,0.0,0.0,-0.0987,-0.3568,-0.4488,-0.5961,-0.8546,-0.9095,-0.9335,-0.9518,-0.97,-0.9822,-0.9822,-0.9822,-0.9822,-0.9822,-0.9822,-0.9883,-1.0004,-1.0365,-1.0668,-1.1031,-1.2646,-1.378,-1.456,-1.6568,-1.8169,-1.9424,-1.9424,-1.9424,-1.9424,-1.9591,-1.9873,-2.0328,-2.0493,-2.0795,-2.1211,-2.1211,-2.1123,-2.0933,0.0,0.0,0.0,0.0,0.0,0.0,0.0,0.0,0.0,0.0,0.0,0.0,0.0,0.0,0.0,2.0788,2.1545,2.2478,2.3599,2.3562,2.3927,2.4933,2.5534,2.6243,2.704,2.7798,2.8512,2.9232,2.9249,2.9363,2.9469,2.9209,2.8925,2.8615,2.8194,2.7224,2.585,2.5388,2.4294,2.2796,2.2059,2.0833,1.9354,1.8221,1.6935,1.5496,1.3837,1.296,1.2571,1.2565,1.2479,1.218,1.1273,1.0279,0.9323,0.8544,0.7638,0.7002,0.7208,0.686,0.6024,0.4676,0.3738,0.2825,0.1434,0.1084,0.0994,0.1007,0.0785,0.0561,0.0561,0.028,0.0113,0.0117,0.0059,0.0,0.0,0.0,-0.0863,-0.3078,-0.3692,-0.492,-0.7444,-0.8546,-0.9095,-0.9275,-0.9518,-0.97,-0.9822,-0.9822,-0.9822,-0.9822,-0.9822,-0.9822,-0.9822,-1.0243,-1.0547,-1.0849,-1.2174,-1.3131,-1.3784,-1.6332,-1.8169,-1.9424,-1.9424,-1.9424,-1.9424,-1.9591,-1.9931,-2.0328,-2.0493,-2.0845,-2.1211,-2.1211,-2.1211,-2.1115,0.0,0.0,0.0,0.0,0.0,0.0,0.0,0.0,0.0,0.0,0.0,0.0,0.0,0.0,1.8669,2.0119,2.0778,2.1583,2.259,2.2627,2.3073,2.4072,2.4337,2.5063,2.6405,2.7224,2.8097,2.8999,2.9192,2.9504,2.9875,2.9469,2.8986,2.8375,2.7779,2.6813,2.5558,2.436,2.3213,2.2117,2.1071,1.9712,1.8278,1.7585,1.6657,1.5609,1.4901,1.437,1.4039,1.4062,1.4013,1.3837,1.2936,1.1858,1.074,0.984,0.8919,0.8269,0.849,0.8412,0.7829,0.5679,0.5012,0.4298,0.2181,0.1477,0.1289,0.129,0.1065,0.0897,0.0897,0.0617,0.0397,0.041,0.0177,0.0,0.0,0.0,-0.0494,-0.1911,-0.314,-0.4429,0.0,-0.7444,-0.8671,-0.9278,-0.9335,-0.9457,-0.9758,-0.9822,-0.9822,-0.9822,-0.9822,-0.9822,-0.9822,-1.0425,-1.0789,-1.0789,-1.1526,-1.2487,-1.3784,-1.6332,-1.8169,-1.9424,-1.9424,-1.9424,-1.9424,-1.9424,-1.9764,-2.027,-2.0328,-2.068,-2.1211,-2.1211,-2.1211,-2.1115,0.0,0.0,0.0,0.0,0.0,0.0,0.0,0.0,0.0,0.0,0.0,0.0,0.0,0.0,0.0,0.0,1.9313,2.0333,2.1794,2.1859,2.2397,2.3534,2.424,2.485,2.5464,2.6477,2.7165,2.7459,2.755,2.7653,2.7778,2.7423,2.7122,2.6912,2.6462,2.5564,2.4354,2.374,2.2726,2.1465,2.0673,1.9534,1.8261,1.7908,1.7033,1.5955,0.0,1.5443,1.4943,1.4977,1.4768,1.4349,1.3383,1.2231,1.0901,0.9305,0.8798,0.8754,0.8623,0.8608,0.8127,0.6024,0.5476,0.4884,0.2501,0.1916,0.1851,0.1683,0.1402,0.1177,0.1177,0.0953,0.0737,0.0703,0.0471,0.0298,0.0307,0.0123,-0.0494,-0.185,-0.314,0.0,0.0,0.0,0.0,-0.8671,-0.9095,-0.9335,-0.9457,-0.97,-0.9822,-0.9822,-0.9822,-0.9822,-0.9822,-1.0004,-1.0365,-1.0789,-1.1466,-1.2487,-1.3784,-1.5445,-1.6926,-1.8169,-1.901,-1.9424,-1.9424,-1.9424,-1.9649,-1.9982,-2.0213,-2.0558,-2.0902,-2.1146,-2.1072,-2.0823,0.0,0.0,0.0,0.0,0.0,0.0,0.0,0.0,0.0,0.0,0.0,0.0,0.0,0.0,0.0,0.0,0.0,1.9036,2.0275,2.0808,2.1624,2.2815,2.3925,2.4671,2.5087,2.6289,2.6918,2.6918,2.6918,2.6918,2.6897,2.6602,2.6292,2.5968,2.5641,2.4755,2.3489,2.2984,2.2107,2.1041,2.0226,1.9344,1.8519,1.8198,1.7529,0.0,1.6771,1.6476,1.6064,1.5775,1.5284,1.4692,1.3944,1.2601,1.0997,0.9401,0.9171,0.9368,0.9146,0.9094,0.8524,0.6326,0.5784,0.5202,0.2821,0.2354,0.23,0.202,0.1795,0.157,0.1514,0.1234,0.1018,0.1046,0.0763,0.0595,0.061,0.0369,-0.0123,-0.0987,-0.2771,-0.4244,0.0,0.0,0.0,-0.8369,-0.8732,-0.9095,-0.9275,-0.9518,-0.97,-0.9822,-0.9822,-0.9822,-0.9822,-0.9943,-1.0304,-1.097,-1.1402,-1.2363,-1.3725,-1.456,-1.586,-1.7572,-1.835,-1.9004,-1.9424,-1.9424,-1.9649,-1.9989,-2.0213,-2.0558,-2.0888,-2.1015,-2.0903,-2.0676,0.0,0.0,0.0,0.0,0.0,0.0,0.0,0.0,0.0,0.0,0.0,0.0,0.0,0.0,0.0,0.0,0.0,0.0,1.8172,1.9481,2.0722,2.1911,2.3279,2.442,2.517,2.653,2.7201,2.7201,2.7201,2.7201,2.7167,2.6977,2.6405,2.5557,2.5335,2.442,2.2957,2.2134,2.1471,2.0789,1.9736,1.9192,1.8953,1.8425,1.8103,1.7878,1.7432,1.727,1.7147,1.6335,1.5631,1.4957,1.4412,1.2929,1.111,1.0108,0.9982,1.0123,1.0017,0.9821,0.9076,0.6678,0.5992,0.5307,0.314,0.2683,0.2637,0.23,0.2188,0.2132,0.0,0.0,0.1353,0.1319,0.1107,0.0948,0.0903,0.0673,0.0494,0.0,0.0,0.0,0.0,0.0,0.0,-0.8369,0.0,-0.8671,-0.9275,-0.9275,-0.9457,-0.9761,-0.9822,-0.9822,-0.9822,-1.0122,-1.0607,-1.1273,-1.1273,-1.2109,-1.3605,-1.3665,-1.5025,-1.7396,-1.7455,-1.8227,-1.9424,-1.9424,-1.9764,-2.027,-2.0256,-2.0601,-2.1088,-2.0759,-2.0684,-2.0633,0.0,0.0,0.0,0.0,0.0,0.0,0.0,0.0,0.0,0.0,0.0,0.0,0.0,0.0,0.0,0.0,0.0,0.0,1.7066,1.8324,1.9404,2.0197,2.2065,2.329,2.3801,2.5276,2.5873,2.5569,2.5873,2.5873,2.5569,2.5394,2.5146,2.4921,2.4612,2.3913,2.2957,2.2134,2.1357,2.0595,1.9657,1.9192,1.8873,1.7772,1.7212,1.6894,1.5997,1.5707,1.5707,1.5782,1.5019,1.3828,1.2693,1.2054,1.1578,1.0604,1.0477,1.0591,1.035,1.0265,0.9719,0.7677,0.6964,0.6147,0.3989,0.3227,0.2915,0.2637,0.2356,0.2188,0.2132,0.0,0.0,0.1663,0.1458,0.0,0.1264,0.1039,0.0,0.0556,0.0,-0.2583,-0.3813,-0.5412,0.0,0.0,-0.8244,-0.8552,-0.8976,-0.9217,-0.9457,-0.9761,-0.9822,-0.9822,-0.9822,-1.0122,-1.0365,-1.0547,-1.1031,-1.1514,-1.1933,-1.3126,-1.4555,-1.6161,-1.7103,-1.8227,-1.9424,-1.9424,-1.9482,-1.9628,-1.9847,-2.004,-2.0175,-2.0313,-2.0208,-1.9996,0.0,0.0,0.0,0.0,0.0,0.0,0.0,0.0,0.0,0.0,0.0,0.0,0.0,0.0,0.0,0.0,0.0,0.0,0.0,1.6838,1.8155,1.8722,2.0507,2.1851,2.2542,2.4002,2.4886,2.5087,2.524,2.5228,2.5087,2.4838,2.4469,2.4,2.3345,2.252,2.1583,2.0653,1.9885,0.0,0.0,1.8407,1.8037,1.718,1.6739,1.6468,1.5567,1.4908,1.4496,1.4524,1.3747,1.2637,1.1646,1.1347,1.1256,1.0782,1.0796,1.09,1.0659,1.031,0.9612,0.772,0.6859,0.5991,0.4045,0.3447,0.325,0.2915,0.2747,0.2523,0.2244,0.2076,0.1913,0.0,0.0,0.0,0.161,0.14,0.1111,0.0,-0.0616,0.0,-0.3752,-0.5105,-0.6458,0.0,-0.8058,-0.8305,-0.8674,-0.8976,-0.9278,-0.9579,-0.97,-0.9822,-0.9822,-1.0001,-1.0122,-1.0304,-1.0849,-1.1152,-1.1333,-1.2419,-1.355,-1.4857,0.0,-1.7402,-1.859,-1.9185,-1.9408,-1.9438,-1.9709,-1.978,-1.9841,-1.9979,-1.9916,-1.9793,0.0,0.0,0.0,0.0,0.0,0.0,0.0,0.0,0.0,0.0,0.0,0.0,0.0,0.0,0.0,0.0,0.0,0.0,0.0,0.0,0.0,1.705,1.8637,2.0024,2.1118,2.245,2.3548,2.4387,2.428,2.428,2.4387,2.4112,2.3506,2.2643,2.1642,2.0671,1.9659,1.8652,1.802,1.7698,1.7658,1.7366,1.6911,0.0,0.0,1.6067,1.5345,1.4398,1.3398,1.2955,1.2312,1.1614,1.1172,1.0863,1.066,1.0872,1.1057,1.1145,1.0801,1.0154,0.9106,0.7263,0.6295,0.5362,0.3836,0.3557,0.3531,0.325,0.3137,0.2914,0.2412,0.2244,0.2132,0.1907,0.0,0.1881,0.1885,0.1693,0.1417,0.1111,-0.0247,-0.1785,-0.3445,-0.4797,-0.6151,-0.7503,-0.7808,-0.8058,-0.8369,-0.8671,-0.8976,-0.9275,-0.964,-0.9822,-0.9822,-0.9822,-0.994,-1.0243,-1.0607,-1.097,-1.1273,-1.1647,-1.2608,-1.4023,0.0,0.0,-1.7806,-1.8906,-1.9324,-1.9364,-1.9605,-1.968,-1.9678,-1.9706,-1.9749,-1.9713,0.0,0.0,0.0,0.0,0.0,0.0,0.0,0.0,0.0,0.0,0.0,0.0,0.0,0.0,0.0,0.0,0.0,0.0,0.0,0.0,0.0,1.4227,1.5947,1.7458,1.877,1.9723,2.0227,2.0256,2.0544,2.0516,2.0256,2.0178,2.0072,1.9848,1.9358,1.9022,1.8762,1.8043,1.7681,1.76,1.7455,1.7123,1.6699,0.0,0.0,0.0,1.3844,1.2997,1.2264,1.1954,1.1756,1.1577,1.1313,1.1037,1.0877,1.1085,1.1165,1.1047,1.0314,0.9706,0.8852,0.7223,0.6141,0.5202,0.4259,0.3831,0.3587,0.3531,0.3306,0.3081,0.297,0.2523,0.2188,0.2132,0.1939,0.1857,0.1882,0.1856,0.1705,0.0,0.1173,0.0247,-0.1723,-0.3075,0.0,0.0,0.0,0.0,-0.8369,-0.843,-0.8732,-0.9275,-0.964,-0.9822,-0.9822,-0.9822,-0.9819,-0.9879,-1.0486,-1.0849,-1.091,-1.153,-1.3084,-1.5273,0.0,0.0,-1.9049,-1.8984,-1.8971,-1.8984,-1.9029,-1.9071,-1.9088,-1.9319,-1.9412,-1.9404,0.0,0.0,0.0,0.0,0.0,0.0,0.0,0.0,0.0,0.0,0.0,0.0,0.0,0.0,0.0,0.0,0.0,0.0,0.0,0.0,0.0,0.0,0.0,0.0,1.5431,1.5932,1.65,1.7072,0.0,1.7047,1.7072,1.7354,1.7491,1.7451,1.7227,1.709,1.7009,1.6134,1.5688,1.5572,1.5455,1.5247,0.0,0.0,0.0,0.0,1.3213,1.2879,1.2479,1.1924,1.1582,1.1385,1.1175,1.0712,1.0302,1.0502,1.0261,0.9862,0.9472,0.8669,0.7686,0.6709,0.5622,0.4636,0.3984,0.3688,0.3587,0.3587,0.3475,0.3306,0.3137,0.2747,0.2413,0.2244,0.1991,0.1851,0.1881,0.1912,0.1821,0.1541,0.1482,0.0802,0.0,-0.2522,0.0,0.0,0.0,0.0,-0.8119,-0.8488,-0.8915,-0.9518,-0.97,-0.9822,-0.9822,-0.9822,-0.9822,-0.9822,-1.0304,-1.0607,-1.0849,-1.1337,-1.2303,-1.367,0.0,0.0,-1.7237,-1.8246,-1.8611,-1.8437,-1.8632,-1.8686,-1.8678,-1.8964,-1.9175,-1.9279,0.0,0.0,0.0,0.0,0.0,0.0,0.0,0.0,0.0,0.0,0.0,0.0,0.0,0.0,0.0,0.0,0.0,0.0,0.0,0.0,0.0,0.0,0.0,0.0,0.0,0.0,0.0,1.4138,1.3841,0.0,0.0,0.0,0.0,0.0,1.4573,1.4518,1.4476,1.3587,1.3063,0.0,0.0,0.0,0.0,0.0,0.0,0.0,0.0,1.2491,1.236,1.1736,1.1199,1.0829,1.0656,1.0132,0.953,0.9678,0.9274,0.8775,0.8577,0.76,0.6541,0.5972,0.4946,0.3977,0.3594,0.3544,0.3587,0.3587,0.3587,0.3475,0.3138,0.2859,0.2581,0.2244,0.1985,0.1841,0.1872,0.1902,0.1812,0.1595,0.1602,0.0,-0.0308,-0.1846,0.0,0.0,0.0,0.0,0.0,-0.8546,-0.9095,-0.9579,-0.9761,-0.9822,-0.9822,-0.9822,-0.9822,-0.9822,-1.0122,-1.0425,-1.0728,-1.1057,-1.1523,-1.2119,0.0,0.0,0.0,-1.7322,-1.8031,-1.8043,-1.8292,-1.8381,-1.8422,-1.8757,-1.9078,-1.9279,0.0,0.0,0.0,0.0,0.0,0.0,0.0,0.0,0.0,0.0,0.0,0.0,0.0,0.0,0.0,0.0,0.0,0.0,0.0,0.0,0.0,0.0,0.0,0.0,0.0,0.0,0.0,1.1,1.1,0.0,0.0,0.0,0.0,0.0,0.0,0.0,1.0704,1.0413,0.0,0.0,0.0,0.0,0.0,0.0,0.0,0.0,0.0,1.0473,1.044,1.0238,0.9997,0.9757,0.9743,0.9349,0.8905,0.892,0.8874,0.8627,0.7928,0.6965,0.5982,0.5225,0.4304,0.3544,0.3495,0.3544,0.3587,0.3587,0.3587,0.3475,0.3138,0.2859,0.2581,0.2244,0.1966,0.181,0.1783,0.187,0.1901,0.1871,0.0,0.0,0.1296,0.0,0.0,0.0,0.0,0.0,0.0,-0.8546,-0.8915,-0.8976,-0.9518,-0.9822,-0.9822,-0.9822,-0.9822,-0.9822,-1.0122,-1.0304,-1.0361,-1.0819,-1.1685,-1.2831,0.0,0.0,0.0,-1.6515,-1.7114,-1.8016,-1.8008,-1.8195,-1.8422,-1.8757,-1.9078,-1.9279,0.0,0.0,0.0,0.0,0.0,0.0,0.0,0.0,0.0,0.0,0.0,0.0,0.0,0.0,0.0,0.0,0.0,0.0,0.0,0.0,0.0,0.0,0.0,0.0,0.0,0.0,0.0,0.0,0.0,0.0,0.0,0.0,0.0,0.0,0.0,0.0,0.0,0.0,0.0,0.0,0.0,0.0,0.0,0.0,0.0,0.0,0.0,0.0,0.9997,0.9453,0.9104,0.8777,0.8113,0.7633,0.7481,0.8134,0.7882,0.7232,0.6584,0.5913,0.524,0.462,0.397,0.3506,0.3542,0.357,0.3587,0.3587,0.3587,0.3475,0.3138,0.2859,0.2581,0.2244,0.1964,0.1806,0.1779,0.1866,0.1897,0.1928,0.1958,0.0,0.0,0.0,0.0,0.0,0.0,0.0,0.0,-0.8363,-0.8793,-0.9156,-0.9396,-0.9579,-0.9822,-0.9822,-0.9822,-0.9819,-0.9854,-0.9993,-1.0165,-1.0303,-1.0806,-1.1657,0.0,0.0,0.0,-1.5579,-1.6347,-1.6775,-1.747,-1.7905,-1.8167,-1.8489,-1.8803,-1.9078,0.0,0.0,0.0,0.0,0.0,0.0,0.0,0.0,0.0,0.0,0.0,0.0,0.0,0.0,0.0,0.0,0.0,0.0,0.0,0.0,0.0,0.0,0.0,0.0,0.0,0.0,0.0,0.0,0.0,0.0,0.0,0.0,0.0,0.0,0.0,0.0,0.0,0.0,0.0,0.0,0.0,0.0,0.0,0.0,0.0,0.0,0.0,0.0,0.0,0.0,0.0,0.7826,0.7138,0.6589,0.6337,0.7238,0.6886,0.6095,0.5725,0.5146,0.4614,0.4328,0.386,0.3536,0.3578,0.3587,0.3587,0.3587,0.3531,0.3363,0.3027,0.2805,0.2581,0.2132,0.1964,0.1915,0.1824,0.1853,0.1883,0.1914,0.0,0.0,0.0,0.0,0.0,0.0,0.0,0.0,0.0,-0.8119,-0.8549,-0.9156,-0.9278,-0.9457,-0.9822,-0.9778,-0.9758,-0.9758,-0.9612,-0.9658,-0.9887,-0.9845,-1.0115,0.0,0.0,0.0,0.0,-1.4261,-1.5269,-1.5968,-1.6776,-1.7477,-1.8016,-1.8325,-1.8593,-1.8921,0.0,0.0,0.0,0.0,0.0,0.0,0.0,0.0,0.0,0.0,0.0,0.0,0.0,0.0,0.0,0.0,0.0,0.0,0.0,0.0,0.0,0.0,0.0,0.0,0.0,0.0,0.0,0.0,0.0,0.0,0.0,0.0,0.0,0.0,0.0,0.0,0.0,0.0,0.0,0.0,0.0,0.0,0.0,0.0,0.0,0.0,0.0,0.0,0.0,0.0,0.0,0.0,0.0,0.6487,0.5737,0.6237,0.6037,0.5608,0.566,0.4984,0.4223,0.43,0.3931,0.3587,0.3587,0.3587,0.3587,0.3587,0.3362,0.3026,0.275,0.2693,0.2525,0.1907,0.202,0.2076,0.1851,0.1821,0.1852,0.0,0.0,0.0,0.0,0.0,0.0,0.0,0.0,0.0,0.0,0.0,-0.8238,-0.8854,-0.9156,-0.9457,-0.9822,-0.9683,-0.9612,-0.9608,-0.9456,-0.9384,-0.9436,-0.9564,0.0,0.0,0.0,0.0,0.0,-1.2417,-1.3814,-1.5914,-1.5914,-1.6776,-1.8016,-1.8325,-1.8593,-1.8921,0.0,0.0,0.0,0.0,0.0,0.0,0.0,0.0,0.0,0.0,0.0,0.0,0.0,0.0,0.0,0.0,0.0,0.0,0.0,0.0,0.0,0.0,0.0,0.0,0.0,0.0,0.0,0.0,0.0,0.0,0.0,0.0,0.0,0.0,0.0,0.0,0.0,0.0,0.0,0.0,0.0,0.0,0.0,0.0,0.0,0.0,0.0,0.0,0.0,0.0,0.0,0.0,0.0,0.0,0.0,0.5233,0.5231,0.5139,0.5167,0.4714,0.418,0.382,0.3654,0.3587,0.3587,0.3418,0.324,0.3261,0.3004,0.2795,0.2653,0.2673,0.2637,0.2469,0.2469,0.2413,0.0,0.0,0.0,0.1941,0.1931,0.0,0.0,0.0,0.0,0.0,0.0,0.0,0.0,0.0,-0.7136,-0.8491,-0.8854,-0.9109,-0.931,-0.9509,-0.9557,-0.9452,-0.93,-0.9282,-0.9275,-0.9185,0.0,0.0,0.0,0.0,0.0,-1.2091,-1.2847,-1.3652,-1.5269,-1.618,-1.6717,-1.7943,-1.8348,-1.8327,0.0,0.0,0.0,0.0,0.0,0.0,0.0,0.0,0.0,0.0,0.0,0.0,0.0,0.0,0.0,0.0,0.0,0.0,0.0,0.0,0.0,0.0,0.0,0.0,0.0,0.0,0.0,0.0,0.0,0.0,0.0,0.0,0.0,0.0,0.0,0.0,0.0,0.0,0.0,0.0,0.0,0.0,0.2778,0.0,0.0,0.0,0.0,0.0,0.0,0.0,0.0,0.0,0.0,0.0,0.0,0.0,0.4544,0.4353,0.4558,0.429,0.39,0.3519,0.351,0.3548,0.3526,0.3356,0.3181,0.3095,0.295,0.2749,0.2628,0.2759,0.2841,0.2691,0.2806,0.2692,0.0,0.0,0.0,0.1939,0.0,0.0,0.0,0.0,0.0,0.0,0.0,0.0,0.0,0.0,-0.6283,-0.7319,-0.817,-0.8774,-0.9045,-0.917,-0.9275,-0.935,-0.9144,-0.9072,-0.9069,0.0,0.0,0.0,0.0,0.0,0.0,-1.1446,-1.2254,-1.3166,-1.4674,-1.5689,-1.6512,-1.7676,-1.7956,-1.7843,0.0,0.0,0.0,0.0,0.0,0.0,0.0,0.0,0.0,0.0,0.0,0.0,0.0,0.0,0.0,0.0,0.0,0.0,0.0,0.0,0.0,0.0,0.0,0.0,0.0,0.0,0.0,-0.2322,-0.2325,-0.2327,-0.2327,0.0,0.0,0.0,0.0,0.0,0.0,0.0,0.0,0.0,0.0,0.0,0.0,0.0,0.0,0.0,0.0,0.0,0.0,0.0,0.0,0.0,0.0,0.0,0.0,0.0,0.0,0.0,0.0,0.3728,0.3413,0.336,0.3451,0.3477,0.337,0.3358,0.0,0.298,0.2929,0.2839,0.2613,0.2842,0.2971,0.2798,0.2971,0.2914,0.0,0.219,0.0,0.0,0.0,0.0,0.0,0.0,0.0,0.0,0.0,0.0,0.0,0.0,0.0,-0.5691,-0.7187,-0.8269,-0.8845,-0.8771,-0.8867,-0.9193,-0.9001,-0.8885,-0.8885,0.0,0.0,0.0,0.0,0.0,0.0,-1.0692,-1.1923,-1.3842,-1.4003,-1.5241,-1.696,-1.7384,-1.7498,-1.752,0.0,0.0,0.0,0.0,0.0,0.0,0.0,0.0,0.0,0.0,0.0,0.0,0.0,0.0,0.0,0.0,0.0,0.0,0.0,0.0,0.0,0.0,0.0,0.0,0.0,0.0,0.0,-0.4336,-0.4406,-0.458,-0.4767,-0.4835,0.0,0.0,0.0,0.0,0.0,0.0,0.0,0.0,0.0,0.0,0.0,0.0,0.0,0.0,0.0198,0.0251,0.0,0.0,0.0,0.0,0.0,0.0,0.0,0.0,0.2478,0.2946,0.3047,0.0,0.3358,0.3145,0.3261,0.3321,0.0,0.2772,0.2707,0.2356,0.2163,0.2133,0.2518,0.2657,0.286,0.3299,0.3419,0.3251,0.2693,0.0,0.0,0.0,0.0,0.0,0.0,0.0,0.0,0.0,0.0,0.0,0.0,0.0,0.0,-0.5508,-0.5907,-0.6879,-0.8355,-0.8606,-0.8818,-0.8988,-0.8898,-0.8885,-0.8885,0.0,0.0,0.0,0.0,0.0,0.0,-1.0637,-1.0933,-1.1447,-1.3133,-1.3989,-1.4555,-1.6504,-1.7181,-1.7148,0.0,0.0,0.0,0.0,0.0,0.0,0.0,0.0,0.0,0.0,0.0,0.0,0.0,0.0,0.0,0.0,0.0,0.0,0.0,0.0,0.0,0.0,0.0,0.0,0.0,0.0,0.0,0.0,0.0,-0.5709,0.0,0.0,0.0,0.0,0.0,0.0,0.0,0.0,0.0,0.0,-0.3261,0.0,0.0,0.0,0.0,0.0,-0.1399,-0.1207,0.0,-0.1006,-0.0704,-0.0403,0.0,0.0,0.0,0.0,0.0705,0.1259,0.1765,0.2524,0.31,0.2814,0.2877,0.2889,0.2604,0.2495,0.2436,0.2105,0.2079,0.2163,0.2394,0.254,0.2749,0.3297,0.3251,0.0,0.0,0.0,0.1831,0.0,0.0,0.0,0.0,0.0,0.0,0.0,0.0,0.0,0.0,0.0,0.0,0.0,-0.4892,-0.6233,-0.7933,-0.8211,-0.8509,-0.8712,-0.8826,-0.8885,-0.8885,0.0,0.0,0.0,0.0,0.0,-1.0186,-1.0295,-1.0675,-1.1195,-1.2434,-1.3332,-1.4188,-1.5644,-1.6459,-1.6833,0.0,0.0,0.0,0.0,0.0,0.0,0.0,0.0,0.0,0.0,0.0,0.0,0.0,0.0,0.0,0.0,0.0,0.0,0.0,0.0,0.0,0.0,0.0,0.0,0.0,0.0,0.0,0.0,0.0,0.0,0.0,0.0,-0.6149,0.0,0.0,0.0,0.0,0.0,0.0,0.0,-0.4892,0.0,0.0,0.0,0.0,0.0,0.0,0.0,0.0,-0.1861,-0.166,-0.1358,-0.1459,0.0,0.0,0.0,0.0,0.0,0.0252,0.1376,0.2263,0.233,0.2399,0.2469,0.233,0.2321,0.2271,0.197,0.2152,0.2347,0.223,0.2378,0.264,0.0,0.0,0.0,0.2244,0.1964,0.0,0.0,0.0,0.0,0.0,0.0,0.0,0.0,0.0,0.0,0.0,0.0,0.0,0.0,-0.3945,-0.5817,-0.7271,-0.7768,-0.8156,-0.8484,-0.8768,-0.8885,-0.8885,-0.8858,0.0,0.0,0.0,0.0,-0.9899,-0.9953,-1.0634,-1.1597,-1.1751,-1.2789,-1.4225,-1.4759,-1.5538,-1.6393,0.0,0.0,0.0,0.0,0.0,0.0,0.0,0.0,0.0,0.0,0.0,0.0,0.0,0.0,0.0,0.0,0.0,0.0,0.0,0.0,0.0,0.0,0.0,0.0,0.0,0.0,0.0,0.0,0.0,0.0,-0.6952,-0.6642,-0.6431,-0.6284,0.0,-0.6086,-0.6086,-0.6086,-0.6086,-0.6036,-0.5894,0.0,0.0,0.0,0.0,0.0,0.0,0.0,0.0,-0.4929,-0.4431,-0.393,-0.4381,0.0,0.0,0.0,0.0,0.0,-0.0956,-0.0756,-0.0152,0.1617,0.2226,0.2279,0.1819,0.192,0.197,0.1718,0.1744,0.1879,0.2177,0.2215,0.2365,0.0,0.0,0.2244,0.0,0.0,0.0,0.0,0.0,0.0,0.0,0.0,0.0,0.0,0.0,0.0,0.0,0.0,0.0,0.0,0.0,-0.4475,-0.5706,-0.7265,-0.8156,-0.8484,-0.8768,-0.8885,-0.8878,-0.8804,-0.8743,0.0,0.0,0.0,-0.9418,-0.9733,-0.9991,-1.0277,-1.1134,-1.1606,-1.1952,-1.3767,-1.4658,-1.5188,0.0,0.0,0.0,0.0,0.0,0.0,0.0,0.0,0.0,0.0,0.0,0.0,0.0,0.0,0.0,0.0,0.0,0.0,0.0,0.0,0.0,0.0,0.0,0.0,0.0,0.0,0.0,0.0,0.0,-0.7118,-0.7403,-0.717,-0.702,-0.6956,0.0,-0.662,-0.6474,-0.6474,-0.6374,-0.6274,0.0,0.0,0.0,0.0,0.0,0.0,0.0,0.0,0.0,0.0,-0.5336,-0.5087,-0.5338,0.0,0.0,0.0,0.0,0.0,-0.2415,-0.2265,-0.1913,-0.0353,0.0151,0.0151,-0.005,0.0404,0.086,0.0767,0.1247,0.1747,0.1939,0.1973,0.2057,0.2185,0.0,0.0,0.0,0.0,0.0,0.0,0.0,0.0,0.0,0.0,0.0,0.0,0.0,0.0,0.0,0.0,0.0,0.0,0.0,0.0,-0.4419,-0.6035,-0.7263,-0.8208,-0.8472,-0.8654,-0.8811,-0.8655,-0.8587,0.0,0.0,-0.8855,-0.9194,-0.9349,-0.9552,-0.9796,-1.0241,-1.1067,-1.229,-1.4526,-1.5588,-1.6062,0.0,0.0,0.0,0.0,0.0,0.0,0.0,0.0,0.0,0.0,0.0,0.0,0.0,0.0,0.0,0.0,0.0,0.0,0.0,0.0,0.0,0.0,0.0,0.0,0.0,0.0,-0.7107,-0.7497,-0.7528,-0.7599,-0.77,-0.7644,-0.7561,0.0,0.0,-0.7039,-0.6892,-0.6742,-0.6639,-0.6487,0.0,0.0,0.0,0.0,0.0,0.0,0.0,0.0,0.0,0.0,0.0,0.0,0.0,0.0,0.0,-0.529,-0.5138,-0.4782,-0.3929,-0.3677,-0.3475,-0.2569,-0.1966,-0.1615,-0.1622,-0.0761,0.0,0.0,0.09,0.1722,0.18,0.1774,0.0,0.1795,0.1964,0.0,0.0,0.0,0.0,0.0,0.0,0.0,0.0,0.0,0.0,0.0,0.0,0.0,0.0,0.0,0.0,0.0,0.0,0.0,-0.317,-0.4834,-0.6388,-0.7886,-0.817,-0.8373,-0.8545,-0.8503,-0.8431,-0.8431,-0.8394,-0.8621,-0.9019,-0.9019,-0.9245,-0.9579,-0.9579,-1.089,-1.2974,-1.501,-1.6265,-1.6925,0.0,0.0,0.0,0.0,0.0,0.0,0.0,0.0,0.0,0.0,0.0,0.0,0.0,0.0,0.0,0.0,0.0,0.0,0.0,0.0,0.0,0.0,0.0,0.0,0.0,-0.7188,-0.7255,-0.7392,-0.7519,-0.7586,-0.7595,-0.7898,-0.7753,-0.72,-0.6945,-0.6942,-0.7138,-0.6637,-0.6539,-0.6742,-0.6487,0.0,0.0,0.0,0.0,0.0,0.0,0.0,0.0,0.0,0.0,0.0,0.0,0.0,-0.5586,-0.5586,-0.5536,-0.5486,-0.5138,-0.5039,-0.4987,-0.4634,-0.3073,-0.162,-0.1698,-0.0827,0.0,-0.0106,0.0916,0.1802,0.1804,0.1774,0.1795,0.1795,0.0,0.0,0.0,0.0,0.0,0.0,0.0,0.0,0.0,0.0,0.0,0.0,0.0,0.0,0.0,0.0,0.0,0.0,0.0,0.0,-0.1914,-0.415,-0.6006,-0.7425,-0.8018,-0.8267,-0.8131,-0.8247,-0.8337,-0.833,-0.8133,-0.8311,-0.884,-0.884,-0.9137,-0.9579,-0.9579,-1.089,-1.2823,-1.4004,-1.5391,-1.6636,0.0,0.0,0.0,0.0,0.0,0.0,0.0,0.0,0.0,0.0,0.0,0.0,0.0,0.0,0.0,0.0,0.0,0.0,0.0,0.0,0.0,0.0,0.0,-0.754,-0.769,-0.754,-0.7908,-0.8914,-0.9076,-0.9462,-1.0076,-0.8799,0.0,0.0,-0.7925,-0.749,-0.7444,-0.7241,-0.7092,-0.7039,-0.6939,-0.6886,0.0,0.0,0.0,0.0,0.0,0.0,0.0,0.0,-0.6337,-0.6239,-0.6239,-0.6089,-0.5839,-0.5839,-0.5737,-0.5586,-0.5486,-0.5438,-0.5388,-0.5138,-0.4523,-0.3903,-0.3772,-0.2899,-0.1932,-0.1236,-0.0163,0.0932,0.1663,0.0,0.1795,0.1795,0.0,0.0,0.0,0.0,0.0,0.0,0.0,0.0,0.0,0.0,0.0,0.0,0.0,0.0,0.0,0.0,0.0,0.0,0.0,0.0,0.0,-0.263,-0.368,-0.4956,-0.6647,-0.7675,-0.7978,-0.789,-0.7979,-0.8123,-0.8015,-0.8187,-0.8577,-0.8726,-0.9027,-0.943,-1.0256,-1.1468,-1.2829,-1.3902,-1.5296,-1.6588,0.0,0.0,0.0,0.0,0.0,0.0,0.0,0.0,0.0,0.0,0.0,0.0,0.0,0.0,0.0,0.0,0.0,0.0,0.0,0.0,0.0,0.0,0.0,-0.8333,-0.8478,-0.8676,-0.9076,-0.9744,-1.0276,-1.0874,-1.148,0.0,0.0,-1.0188,-0.9267,-0.8825,-0.8726,-0.8574,-0.8425,-0.8322,-0.8219,-0.8219,0.0,0.0,0.0,0.0,0.0,0.0,0.0,0.0,-0.703,-0.698,-0.6534,-0.6287,-0.6139,-0.6139,-0.5989,-0.5834,-0.5737,-0.5737,-0.5636,-0.5388,-0.5415,-0.5446,-0.5218,-0.4248,-0.3186,-0.246,-0.1376,-0.0332,0.0503,0.0,0.0,0.0,0.0,0.0,0.0,0.0,0.0,0.0,0.0,0.0,0.0,0.0,0.0,0.0,0.0,0.0,0.0,0.0,0.0,0.0,0.0,0.0,0.0,-0.1582,-0.209,-0.2871,-0.4871,-0.6304,-0.7163,-0.7485,-0.7743,-0.7988,-0.7988,-0.8137,-0.8432,-0.8676,-0.9027,-0.943,-1.069,-1.1804,-1.2829,-1.3902,-1.5296,-1.6588,0.0,0.0,0.0,0.0,0.0,0.0,0.0,0.0,0.0,0.0,0.0,0.0,0.0,0.0,0.0,0.0,0.0,0.0,0.0,0.0,0.0,0.0,0.0,-0.9608,-0.9608,-1.0681,-1.0685,-0.9608,-1.0834,-1.1436,-1.1436,-1.1386,0.0,-1.1219,-1.093,-1.0925,-1.117,-1.0618,-1.0574,-1.0779,-1.052,-1.0418,-1.0271,0.0,0.0,0.0,0.0,0.0,0.0,0.0,-0.8414,-0.8166,-0.6833,-0.6387,-0.6387,-0.6387,-0.6387,-0.6337,-0.6092,-0.5992,-0.5942,-0.5687,-0.5717,-0.5775,-0.5567,-0.4419,-0.3452,-0.3568,-0.2629,-0.1791,-0.1791,-0.084,0.0,0.0,0.0,0.0,0.0,0.0,0.0,0.0,0.0,0.0,0.0,0.0,0.0,0.0,0.0,0.0,0.0,0.0,0.0,0.0,0.0,0.0,0.0,-0.1037,-0.1592,-0.1613,-0.267,-0.4024,-0.5625,-0.6986,-0.7743,-0.7988,-0.7988,-0.8137,-0.8432,-0.8676,-0.9126,-0.9723,-1.0788,-1.1804,-1.2829,-1.3902,-1.5248,-1.6588,0.0,0.0,0.0,0.0,0.0,0.0,0.0,0.0,0.0,0.0,0.0,0.0,0.0,0.0,0.0,0.0,0.0,0.0,0.0,0.0,0.0,0.0,0.0,0.0,0.0,0.0,-1.2096,-1.1804,-1.2114,-1.2693,0.0,0.0,-1.1624,-1.2242,-1.1414,-1.1121,-1.117,-1.1019,-1.1023,-1.1072,-1.097,-1.097,-1.0921,0.0,0.0,0.0,0.0,0.0,0.0,0.0,0.0,0.0,-0.7086,-0.6839,-0.6692,-0.6692,-0.6539,-0.6387,-0.6287,-0.6287,-0.6237,-0.5939,-0.6033,-0.613,-0.5898,-0.5442,-0.4768,-0.3791,-0.2629,-0.1791,-0.1791,-0.1512,0.0,0.0,0.0,0.0,0.0,0.0,0.0,0.0,0.0,0.0,0.0,0.0,0.0,0.0,0.0,0.0,0.0,0.0,0.0,0.0,0.0,0.0,0.0,0.0,-0.0457,-0.0505,-0.1563,-0.332,-0.5625,-0.6027,-0.6833,-0.7988,-0.7988,-0.8038,-0.8137,-0.8627,-0.9027,-0.9381,-0.9867,-1.0739,-1.1755,-1.278,-1.4082,-1.5378,0.0,0.0,0.0,0.0,0.0,0.0,0.0,0.0,0.0,0.0,-1.2306,0.0,0.0,0.0,0.0,0.0,0.0,0.0,0.0,0.0,0.0,0.0,0.0,0.0,0.0,-1.3022,-1.3318,0.0,0.0,0.0,0.0,0.0,-1.2732,-1.3318,-1.2684,-1.2441,-1.2441,-1.2441,-1.2441,-1.2441,-1.2441,-1.2441,-1.2387,0.0,0.0,0.0,0.0,0.0,0.0,0.0,0.0,0.0,-0.8612,-0.8365,-0.817,-0.7726,-0.7428,-0.708,-0.6686,-0.6487,-0.6337,-0.6189,-0.6367,-0.6513,-0.6332,-0.6018,-0.5473,-0.4524,-0.3751,-0.3248,-0.3248,-0.2855,0.0,0.0,0.0,0.0,0.0,0.0,0.0,0.0,0.0,0.0,0.0,0.0,0.0,0.0,0.0,0.0,0.0,0.0,0.0,0.0,0.0,0.0,0.0,0.0,0.0,0.0,-0.0656,-0.2115,-0.4219,-0.5172,-0.6229,-0.7388,-0.7839,-0.8038,-0.8187,-0.8627,-0.8977,-0.9232,-0.948,-1.0256,-1.1268,-1.1901,-1.3258,-1.493,0.0,0.0,0.0,0.0,0.0,0.0,0.0,0.0,0.0,0.0,-1.3152,-1.2867,0.0,0.0,0.0,0.0,0.0,0.0,0.0,0.0,0.0,0.0,0.0,0.0,0.0,0.0,0.0,0.0,0.0,0.0,0.0,-1.4298,-1.4298,-1.4298,-1.4298,-1.4298,-1.4298,-1.4298,-1.4298,-1.4298,-1.4298,-1.4298,-1.4202,-1.3221,0.0,0.0,0.0,0.0,0.0,0.0,0.0,0.0,-1.0858,-1.0467,-1.0222,-0.9247,-0.8707,-0.8216,-0.7238,-0.6739,-0.6437,-0.6437,-0.6622,-0.6757,-0.6704,-0.626,-0.5824,-0.5491,0.0,-0.5437,-0.5382,0.0,0.0,0.0,0.0,0.0,0.0,0.0,0.0,0.0,0.0,0.0,0.0,0.0,0.0,0.0,0.0,0.0,0.0,0.0,0.0,0.0,0.0,0.0,0.0,0.0,0.0,0.0,0.0,-0.0656,-0.1913,-0.437,-0.5877,-0.6587,-0.7587,-0.8137,-0.8382,-0.8676,-0.8928,-0.9183,-0.948,-1.0199,-1.1049,-1.1239,-1.2775,-1.4741,0.0,0.0,0.0,0.0,0.0,0.0,0.0,0.0,0.0,0.0,0.0,0.0,0.0,0.0,0.0,0.0,0.0,0.0,0.0,0.0,0.0,0.0,0.0,0.0,0.0,0.0,0.0,0.0,0.0,0.0,-1.4298,-1.4298,-1.4298,-1.4298,-1.4298,-1.4298,-1.4298,-1.4298,-1.4298,-1.4298,-1.4298,-1.4298,-1.425,-1.4052,-1.41,0.0,0.0,0.0,0.0,0.0,0.0,0.0,-1.1116,-1.0872,-1.0676,-1.0435,-0.9596,-0.8658,-0.8414,-0.758,-0.6692,-0.6692,-0.6779,-0.6733,-0.6603,-0.6538,-0.6379,-0.5824,-0.5712,-0.5656,0.0,0.0,0.0,0.0,0.0,0.0,0.0,0.0,0.0,0.0,0.0,0.0,0.0,0.0,0.0,0.0,0.0,0.0,0.0,0.0,0.0,0.0,0.0,0.0,0.0,0.0,0.0,0.0,0.0,-0.0252,-0.0807,-0.3267,-0.5572,-0.769,-0.7889,-0.8038,-0.8137,-0.8577,-0.8825,-0.8928,-0.9426,-0.9686,-0.9983,-1.1507,-1.2427,-1.3176,0.0,0.0,0.0,0.0,0.0,0.0,0.0,0.0,0.0,0.0,0.0,0.0,0.0,0.0,0.0,0.0,0.0,0.0,0.0,0.0,0.0,0.0,0.0,0.0,0.0,0.0,0.0,0.0,0.0,-1.4298,-1.4298,-1.4298,-1.4298,-1.4298,-1.4298,-1.4298,-1.4298,-1.4298,-1.4298,-1.4298,-1.4298,-1.4298,-1.4298,-1.4298,-1.4298,-1.425,-1.3661,0.0,0.0,0.0,0.0,0.0,0.0,0.0,-1.2387,-1.1853,-1.1112,-1.0378,-0.9887,-0.9152,-0.8382,-0.7815,-0.7539,-0.7316,-0.676,-0.6673,-0.6609,-0.6174,-0.5884,0.0,0.0,0.0,0.0,0.0,0.0,0.0,0.0,0.0,0.0,0.0,0.0,0.0,0.0,0.0,0.0,0.0,0.0,0.0,0.0,0.0,0.0,0.0,0.0,0.0,0.0,0.0,0.0,0.0,0.0,-0.0393,-0.1228,-0.3213,-0.5228,-0.714,-0.7631,-0.7828,-0.7828,-0.826,-0.8497,-0.859,-0.9027,-0.9216,-0.942,-1.0913,-1.1898,-1.2728,0.0,0.0,0.0,0.0,0.0,0.0,0.0,0.0,0.0,0.0,0.0,0.0,0.0,0.0,0.0,0.0,0.0,0.0,0.0,0.0,0.0,0.0,0.0,0.0,0.0,0.0,0.0,0.0,0.0,-1.4298,-1.4298,-1.4298,-1.4298,-1.4298,-1.4298,-1.4298,-1.4298,-1.4298,-1.4298,-1.4298,-1.4298,-1.4298,-1.4298,-1.4298,-1.4298,-1.4298,-1.4298,-1.4298,-1.4298,-1.4298,0.0,0.0,0.0,0.0,-1.4148,-1.3221,-1.2678,-1.2193,-1.1365,-1.0823,-1.0216,-0.9133,-0.8533,-0.8077,-0.7215,-0.6893,-0.6698,-0.6439,-0.6078,0.0,0.0,0.0,0.0,0.0,0.0,0.0,0.0,0.0,0.0,0.0,0.0,0.0,0.0,0.0,0.0,0.0,0.0,0.0,0.0,0.0,0.0,0.0,0.0,0.0369,0.0052,0.0,0.0,0.0,0.0,-0.0618,-0.1753,-0.3174,-0.4662,-0.6167,-0.7171,-0.76,-0.7644,-0.7926,-0.8153,-0.8337,-0.8664,-0.8885,-0.914,-1.0099,-1.1344,-1.2631,0.0,0.0,0.0,0.0,0.0,0.0,0.0,0.0,0.0,0.0,-1.4202,-1.431,0.0,0.0,0.0,0.0,0.0,0.0,0.0,0.0,0.0,0.0,0.0,0.0,0.0,0.0,0.0,0.0,-1.4298,-1.4298,-1.4298,-1.4298,-1.4298,-1.4298,-1.4298,-1.4298,-1.4298,-1.4298,-1.4298,-1.4298,-1.4298,-1.4298,-1.4298,-1.4298,-1.4298,-1.4298,-1.4298,-1.4298,-1.4298,-1.4298,-1.4298,0.0,0.0,0.0,-1.425,-1.4148,-1.3414,-1.263,-1.2484,-1.1609,-1.0592,-0.9978,-0.9156,-0.8456,-0.8071,-0.74,-0.6698,0.0,0.0,0.0,0.0,0.0,0.0,0.0,0.0,0.0,0.0,0.0,0.0,0.0,0.0,0.0,0.0,0.0,0.0,0.0,0.0,0.0,0.0,0.0,0.1488,0.1155,0.094,0.0,0.0355,0.0099,0.0,0.0,0.0,-0.0236,-0.065,-0.186,-0.3653,-0.5928,-0.7073,-0.76,-0.7647,-0.8059,-0.829,-0.8337,-0.8859,-0.8952,-0.8947,-0.9885,-1.0918,-1.1997,0.0,0.0,0.0,0.0,0.0,0.0,0.0,0.0,0.0,0.0,0.0,-1.4401,0.0,0.0,0.0,0.0,0.0,0.0,0.0,0.0,0.0,0.0,-1.4998,0.0,0.0,0.0,0.0,0.0,-1.4394,-1.4394,-1.4538,-1.4394,-1.4298,-1.4298,-1.4298,-1.4298,-1.4298,-1.4298,-1.4298,-1.4298,-1.4298,-1.4298,-1.4298,-1.4298,-1.4298,-1.4298,-1.4298,-1.4298,-1.4298,-1.4298,-1.4298,-1.4298,-1.4298,0.0,0.0,0.0,-1.3956,-1.3613,-1.3613,-1.3082,-1.2355,-1.1512,-1.0892,-1.0261,-0.9422,-0.8423,-0.7613,0.0,0.0,0.0,0.0,0.0,0.0,0.0,0.0,0.0,0.0,0.0,0.0,0.0,0.0,0.0,0.0,0.0,0.0,0.0,0.0,0.0,0.0,0.1681,0.157,0.1195,0.0967,0.0,0.0391,0.0144,0.0,0.0,0.0,-0.0046,-0.0228,-0.1499,-0.3052,-0.4815,-0.6011,-0.6839,-0.7343,-0.7706,-0.7932,-0.8114,-0.8475,-0.8657,-0.8811,-0.9686,-1.0794,-1.2029,0.0,0.0,0.0,0.0,0.0,0.0,0.0,0.0,0.0,0.0,0.0,0.0,0.0,0.0,0.0,0.0,0.0,0.0,0.0,0.0,0.0,-1.5028,-1.5055,-1.488,-1.4406,0.0,0.0,-1.479,-1.4592,-1.4592,-1.479,-1.4544,-1.4394,-1.4394,-1.4346,-1.4298,-1.4298,-1.4298,-1.4298,-1.4298,-1.4298,-1.4298,-1.4298,-1.4298,-1.4298,-1.4298,-1.4298,-1.4298,-1.4298,-1.4298,-1.4298,-1.4298,-1.4298,-1.4298,0.0,0.0,0.0,-1.4298,-1.4298,-1.416,-1.3775,-1.2937,-1.2393,-1.1755,0.0,0.0,-0.8711,0.0,0.0,0.0,0.0,0.0,0.0,0.0,0.0,0.0,0.0,0.0,0.0,0.0,0.0,0.0,0.0,0.0,0.0,0.0,0.0,0.0,0.1639,0.1691,0.153,0.1263,0.1032,0.0767,0.047,0.0139,0.0,0.0,0.0,-0.0045,-0.0135,-0.1255,-0.2549,-0.3974,-0.5181,-0.6251,-0.7139,-0.7459,-0.7724,-0.794,-0.8204,-0.8428,-0.87,-0.9345,-1.0458,-1.1778,0.0,0.0,0.0,0.0,0.0,0.0,0.0,0.0,0.0,0.0,0.0,0.0,-1.4316,-1.4558,-1.4727,-1.4757,0.0,0.0,0.0,0.0,0.0,-1.4751,-1.4974,0.0,-1.4694,0.0,-1.5083,-1.5083,-1.5083,-1.5083,-1.5083,-1.479,-1.4694,-1.4688,-1.4394,-1.4298,-1.4298,-1.4298,-1.4298,-1.4298,-1.4298,-1.4298,-1.4298,-1.4298,-1.4298,-1.4298,-1.4298,-1.4298,-1.4298,0.0,0.0,0.0,0.0,-1.4298,-1.4298,0.0,0.0,0.0,-1.4298,-1.4298,-1.4202,-1.3877,-1.3033,-1.2145,0.0,0.0,0.0,0.0,0.0,0.0,0.0,0.0,0.0,0.0,0.0,0.0,0.0,0.0,0.0,0.0,0.0,0.0,0.0,0.0,0.0,0.0,0.0,0.0,0.1529,0.1626,0.155,0.1492,0.1208,0.0965,0.0675,0.0225,0.0,0.0,0.0,-0.0135,-0.0403,-0.0673,-0.1924,-0.3974,-0.5181,-0.6251,-0.7143,-0.7676,-0.79,-0.7944,-0.8388,-0.8568,-0.8612,-0.8652,-0.9515,-1.0804,0.0,0.0,0.0,0.0,0.0,0.0,0.0,0.0,0.0,0.0,0.0,0.0,0.0,-1.4389,-1.4521,-1.4702,-1.4956,0.0,0.0,0.0,0.0,-1.4961,-1.5047,-1.5064,-1.4939,-1.5035,-1.5172,-1.5356,-1.5172,-1.5178,-1.5356,-1.5077,-1.4838,-1.4688,-1.4442,-1.4298,-1.4298,-1.4298,-1.4298,-1.4298,-1.4298,-1.4298,-1.4298,-1.4298,-1.4298,-1.4298,-1.4298,0.0,0.0,0.0,0.0,0.0,0.0,-1.4442,-1.4544,-1.4544,-1.4442,-1.4346,-1.4496,-1.4442,-1.4298,-1.416,-1.3859,-1.3516,-1.3136,-1.2155,0.0,0.0,0.0,0.0,0.0,0.0,0.0,0.0,0.0,0.0,0.0,0.0,0.0,0.0,0.0,0.0,0.0,0.0,0.0,0.0,0.0,0.0,0.0539,0.1198,0.1504,0.1481,0.1233,0.0904,0.0493,0.0359,0.018,0.0,0.0,-0.0045,-0.0135,-0.0538,-0.179,-0.3749,-0.4465,-0.5669,-0.7139,-0.7499,-0.7724,-0.794,-0.8204,-0.8428,-0.8612,-0.8612,-0.9563,-1.0977,0.0,0.0,0.0,0.0,0.0,0.0,0.0,0.0,0.0,-1.4298,0.0,0.0,0.0,0.0,-1.437,-1.4558,-1.4733,-1.4835,-1.4835,-1.4935,-1.4955,-1.4967,-1.5149,-1.5213,-1.5226,-1.5315,-1.541,-1.5588,-1.541,-1.5404,-1.5588,-1.5356,-1.5124,-1.4975,-1.4592,-1.4394,-1.4298,-1.4298,-1.4298,-1.4298,-1.4298,-1.4298,-1.4298,-1.4298,-1.4298,0.0,0.0,0.0,0.0,0.0,0.0,0.0,0.0,-1.4688,-1.4838,-1.4736,-1.464,-1.4592,-1.4694,-1.4592,-1.4394,-1.4346,-1.4298,-1.4256,-1.3979,0.0,0.0,0.0,0.0,0.0,0.0,0.0,0.0,0.0,0.0,0.0,0.0,0.0,0.0,0.0,0.0,0.0,0.0,0.0,0.0,0.0,0.0,0.0,0.0,0.0938,0.1476,0.1466,0.122,0.0897,0.0493,0.0448,0.0269,0.0,0.0,-0.0045,-0.0135,-0.0538,-0.179,-0.3705,-0.4109,-0.5356,-0.7139,-0.737,-0.7635,-0.794,-0.8113,-0.838,-0.8612,-0.8612,-0.9476,-1.0809,0.0,0.0,0.0,0.0,0.0,0.0,0.0,0.0,-1.4298,-1.4298,0.0,0.0,0.0,0.0,0.0,-1.4298,-1.4298,-1.4298,-1.4298,-1.4544,-1.4694,-1.4736,0.0,0.0,0.0,-1.5683,-1.5784,-1.5784,-1.5784,-1.5784,-1.5784,-1.5588,-1.5493,-1.5493,-1.4975,-1.4592,-1.4298,-1.4298,-1.4298,-1.4298,-1.4298,-1.4298,-1.4298,-1.4298,0.0,0.0,-1.4298,-1.4496,0.0,-1.4688,0.0,0.0,0.0,-1.5131,-1.5035,-1.479,-1.4885,-1.5035,0.0,0.0,0.0,-1.4376,0.0,0.0,-1.3956,0.0,0.0,0.0,0.0,0.0,0.0,0.0,0.0,0.0,0.0,0.0,0.0,0.0,0.0,0.0,0.0,0.0,0.0,0.0,0.0,0.0,0.0,-0.1251,-0.0093,0.0925,0.1466,0.1391,0.1211,0.0987,0.0718,0.0493,0.0269,0.0,0.0,-0.0135,-0.0403,-0.0583,-0.1879,-0.3885,-0.4198,-0.5356,-0.7139,-0.737,-0.7635,-0.7896,-0.8113,-0.8336,-0.8612,-0.8612,-0.9218,-1.0207,0.0,0.0,0.0,0.0,0.0,0.0,0.0,0.0,-1.4298,0.0,0.0,0.0,-1.4298,-1.4298,-1.4298,-1.4298,-1.4298,-1.4394,-1.4592,-1.464,-1.4879,-1.5255,-1.5397,-1.5588,-1.573,-1.5784,0.0,0.0,0.0,0.0,0.0,0.0,0.0,-1.5493,-1.535,-1.5016,-1.4592,-1.4394,-1.4298,-1.4298,-1.4298,-1.4298,0.0,0.0,0.0,0.0,0.0,-1.4496,-1.4688,0.0,-1.5022,-1.5404,0.0,-1.5267,-1.5124,-1.5261,-1.5172,-1.5086,-1.4957,0.0,0.0,0.0,0.0,0.0,0.0,0.0,0.0,0.0,0.0,0.0,0.0,0.0,0.0,0.0,0.0,0.0,0.0,0.0,0.0,0.0,0.0,0.0,0.0,0.0,0.0,0.0,0.0,-0.2197,-0.1201,0.0501,0.1399,0.1391,0.1345,0.1211,0.0987,0.0762,0.0493,0.0269,0.009,-0.0045,-0.0135,-0.0538,-0.179,-0.3705,-0.4109,-0.5356,-0.7095,-0.7187,-0.7499,-0.79,-0.794,-0.8252,-0.8612,-0.8612,-0.9519,-1.0852,0.0,0.0,0.0,0.0,0.0,0.0,0.0,-1.4394,-1.4298,0.0,0.0,0.0,-1.4298,-1.4298,-1.4346,-1.4442,-1.4496,-1.4592,-1.4838,-1.4975,-1.5159,-1.5493,-1.5588,-1.5683,-1.5784,-1.5784,0.0,0.0,0.0,0.0,0.0,0.0,0.0,-1.5635,-1.554,-1.5309,-1.5022,-1.464,-1.4394,0.0,-1.4298,0.0,0.0,-1.4298,-1.4298,0.0,0.0,0.0,-1.4885,-1.5022,-1.5309,0.0,0.0,0.0,-1.541,-1.5493,-1.5367,-1.5196,-1.506,-1.4792,-1.4493,-1.4107,0.0,0.0,-1.3701,-1.3468,0.0,0.0,0.0,0.0,0.0,0.0,0.0,0.0,0.0,0.0,0.0,0.0,0.0,0.0,0.0,0.0,0.0,0.0,0.0,0.0,-0.3582,-0.2394,-0.1004,0.018,0.0987,0.1391,0.1391,0.13,0.1121,0.0942,0.0718,0.0403,0.0224,0.009,-0.0045,-0.0807,-0.2003,-0.3525,-0.4278,-0.5526,-0.6913,-0.6913,-0.7253,-0.7791,-0.7791,-0.8009,-0.8337,-0.8337,-0.9262,-1.0647,0.0,0.0,0.0,0.0,0.0,0.0,0.0,-1.4544,-1.4394,0.0,-1.4346,-1.4346,-1.4298,-1.4346,-1.4442,-1.4694,-1.4736,-1.4838,-1.5131,-1.5356,-1.5493,-1.554,-1.5683,-1.5784,-1.5784,-1.5784,0.0,0.0,0.0,0.0,0.0,0.0,0.0,0.0,0.0,0.0,-1.5493,-1.4975,0.0,-1.4394,-1.4346,-1.4298,0.0,0.0,-1.4346,-1.4442,-1.464,-1.4933,-1.5172,-1.5452,-1.5635,0.0,0.0,0.0,0.0,0.0,-1.5484,-1.5338,-1.5068,-1.4806,-1.4539,-1.4206,0.0,0.0,-1.384,-1.3609,-1.3378,0.0,0.0,0.0,0.0,0.0,0.0,0.0,0.0,0.0,0.0,0.0,0.0,0.0,0.0,0.0,0.0,0.0,0.0,-0.4472,-0.3546,-0.2193,-0.0404,-0.0134,0.0403,0.1211,0.1345,0.13,0.1121,0.1121,0.0897,0.0493,0.0403,0.0269,0.0,-0.1206,-0.2335,-0.3364,-0.4574,-0.5718,-0.6702,-0.6702,-0.7028,-0.753,-0.7576,-0.7735,-0.7971,-0.8012,-0.8864,-1.0161,-1.5784,0.0,0.0,0.0,0.0,0.0,0.0,-1.4987,-1.4933,-1.4933,-1.4742,-1.4544,-1.4346,-1.449,-1.464,-1.4688,-1.4885,-1.5124,-1.5404,-1.5493,-1.5588,-1.573,-1.5784,-1.5784,-1.5784,-1.5784,-1.5784,0.0,0.0,0.0,0.0,0.0,0.0,0.0,0.0,0.0,-1.5493,0.0,0.0,-1.4885,-1.4496,0.0,-1.464,-1.464,-1.4742,-1.4939,-1.4981,-1.5172,-1.5452,-1.5689,-1.5784,-1.5778,0.0,0.0,0.0,-1.5737,0.0,0.0,0.0,0.0,0.0,0.0,0.0,0.0,-1.3348,-1.3219,-1.3083,0.0,0.0,0.0,0.0,0.0,0.0,0.0,0.0,0.0,0.0,0.0,0.0,0.0,0.0,0.0,0.0,0.0,-0.5465,-0.469,-0.356,-0.2745,-0.2374,-0.0851,0.009,0.0269,0.0987,0.1391,0.1345,0.1166,0.1076,0.0942,0.0583,0.0356,0.0263,-0.1049,-0.2242,-0.3372,-0.4513,-0.5677,-0.6702,-0.6702,-0.6881,-0.7197,-0.7367,-0.7556,-0.7769,-0.7934,-0.9268,-1.0968,-1.5784,0.0,0.0,0.0,0.0,0.0,0.0,0.0,-1.5083,-1.5083,-1.4987,-1.4838,-1.4694,-1.4838,-1.4933,-1.507,-1.5213,-1.5404,-1.5635,-1.5635,-1.5689,-1.5784,-1.5784,-1.5784,-1.5784,-1.5784,-1.5784,0.0,0.0,0.0,0.0,0.0,0.0,0.0,-1.5784,-1.573,-1.5635,0.0,-1.5404,-1.5261,-1.4885,0.0,-1.4885,-1.4885,-1.4987,-1.5131,-1.5267,-1.5452,-1.5683,-1.5784,-1.5784,0.0,0.0,-1.5784,-1.5784,0.0,-1.5524,-1.515,0.0,0.0,0.0,-1.3988,0.0,0.0,0.0,-1.3313,-1.3222,0.0,0.0,0.0,0.0,0.0,0.0,0.0,0.0,0.0,0.0,0.0,0.0,0.0,0.0,0.0,0.0,0.0,-0.5802,-0.4792,-0.4032,-0.3403,-0.2913,-0.1971,-0.0986,-0.0045,0.0448,0.0942,0.1391,0.13,0.116,0.106,0.0795,0.0568,0.03,-0.1282,-0.2403,-0.3131,-0.4695,-0.5728,-0.6314,-0.6438,-0.6638,-0.6882,-0.7127,-0.739,-0.7633,-0.7951,-0.9159,-1.075,-1.5684,-1.5744,0.0,0.0,0.0,0.0,0.0,0.0,-1.5226,-1.5172,-1.5172,-1.5178,-1.5131,-1.5131,-1.5267,-1.5493,-1.554,-1.5635,-1.5778,-1.5784,-1.5784,-1.5784,-1.5784,-1.5784,-1.5784,-1.5784,-1.5784,-1.5784,0.0,0.0,0.0,0.0,0.0,0.0,-1.5784,-1.5784,-1.5778,0.0,0.0,-1.554,0.0,-1.5226,-1.5172,-1.5172,-1.522,-1.5267,-1.5499,-1.5642,-1.5784,-1.5784,-1.5784,-1.5784,-1.5784,-1.5784,0.0,0.0,0.0,0.0,0.0,0.0,0.0,0.0,0.0,-1.3779,0.0,0.0,0.0,-1.3398,0.0,0.0,0.0,0.0,0.0,0.0,0.0,0.0,0.0,0.0,0.0,0.0,0.0,0.0,0.0,0.0,-0.5961,-0.5026,-0.4583,-0.4014,-0.3269,-0.3045,-0.2194,-0.0628,-0.0179,0.0359,0.1121,0.13,0.1287,0.1088,0.1045,0.0687,0.0084,-0.1585,-0.2592,-0.314,-0.4988,-0.5808,-0.5941,-0.618,-0.6451,-0.669,-0.6974,-0.7219,-0.7484,-0.7949,-0.8998,-1.034,-1.5398,-1.5651,-1.5784,0.0,0.0,0.0,0.0,0.0,-1.5642,-1.5493,-1.5445,-1.5356,-1.5131,-1.5309,-1.5452,-1.5493,-1.5642,0.0,-1.5784,0.0,-1.5784,-1.5784,-1.5784,-1.5784,-1.5784,-1.5784,-1.5784,-1.5784,0.0,0.0,0.0,0.0,0.0,0.0,-1.5784,-1.5784,-1.5784,0.0,-1.5784,0.0,-1.5737,-1.5594,0.0,-1.5445,-1.5594,-1.5737,-1.5737,-1.5784,-1.5784,0.0,-1.5784,-1.5784,0.0,-1.5784,-1.5731,-1.5524,0.0,0.0,0.0,0.0,0.0,0.0,-1.4088,0.0,0.0,0.0,-1.361,-1.344,0.0,0.0,0.0,0.0,0.0,0.0,0.0,0.0,0.0,0.0,0.0,0.0,0.0,0.0,0.0,0.0,0.0,-0.5935,-0.5043,-0.4478,-0.4476,-0.3494,-0.2777,-0.2598,-0.0896,0.0045,0.0179,0.0987,0.1376,0.1346,0.1131,0.0468,-0.053,-0.1709,-0.2852,-0.4006,-0.5146,-0.5727,-0.5941,-0.618,-0.6528,-0.6865,-0.6922,-0.7038,-0.7296,-0.7872,-0.9112,-1.0527,-1.509,-1.5244,-1.5378,0.0,0.0,0.0,0.0,0.0,-1.5784,-1.5689,-1.5683,-1.5635,-1.5499,-1.5594,-1.5683,-1.5683,0.0,-1.5784,0.0,0.0,-1.6393,-1.5832,-1.6346,-1.6669,-1.6669,-1.6669,-1.6951,-1.7544,-1.7544,0.0,0.0,0.0,0.0,0.0,-1.5784,0.0,-1.5784,0.0,-1.5784,0.0,0.0,0.0,0.0,-1.5683,-1.573,-1.5784,-1.5784,-1.5784,-1.5784,0.0,-1.5784,0.0,0.0,0.0,0.0,0.0,0.0,0.0,0.0,0.0,0.0,0.0,0.0,0.0,-1.3955,0.0,-1.3913,0.0,0.0,0.0,0.0,0.0,0.0,0.0,0.0,0.0,0.0,0.0,0.0,0.0,0.0,0.0,0.0,0.0,0.0,0.0,0.0,-0.4659,-0.4703,-0.415,-0.3562,-0.299,-0.2136,-0.1388,-0.0806,-0.0398,-0.0174,-0.017,-0.0378,-0.078,-0.1392,-0.2422,-0.3274,-0.3988,-0.5126,-0.5637,-0.575,-0.6145,-0.6525,-0.6903,-0.6903,-0.7096,-0.7446,-0.791,-0.9112,-1.0565,-1.4727,-1.4901,-1.5075,-1.5244,0.0,0.0,0.0,0.0,0.0,-1.5784,0.0,0.0,-1.5952,-1.6025,0.0,0.0,-1.6072,-1.6032,0.0,0.0,-1.6672,0.0,0.0,0.0,0.0,-1.7279,-1.7785,-1.8788,0.0,0.0,0.0,0.0,0.0,0.0,0.0,-1.5631,-1.5712,0.0,-1.5711,-1.5784,-1.5784,-1.5784,-1.5784,-1.5784,-1.5784,-1.5784,-1.5784,-1.5784,-1.5784,-1.5784,-1.5784,0.0,-1.5784,0.0,0.0,0.0,0.0,0.0,-1.4562,0.0,0.0,0.0,0.0,0.0,0.0,0.0,0.0,0.0,0.0,0.0,0.0,0.0,0.0,-1.2902,0.0,0.0,0.0,0.0,0.0,0.0,0.0,0.0,0.0,0.0,0.0,0.0,-0.5926,0.0,-0.4868,-0.473,-0.4267,-0.3514,-0.3214,-0.2714,-0.2013,-0.1666,-0.1503,-0.1511,-0.1557,-0.1841,-0.2349,-0.3049,-0.3711,-0.4261,-0.5204,-0.5637,-0.5715,-0.6141,-0.6525,-0.6903,-0.6903,-0.7134,-0.7561,-0.8059,-0.9226,-1.0565,-1.4115,-1.462,-1.5015,-1.5022,0.0,0.0,0.0,0.0,0.0,0.0,0.0,0.0,0.0,0.0,0.0,0.0,0.0,-1.656,-1.6279,0.0,-1.6181,0.0,0.0,-1.6298,0.0,0.0,-1.7785,-1.8788,0.0,0.0,0.0,0.0,0.0,0.0,-1.56,-1.515,-1.5411,-1.5411,-1.5571,-1.5784,-1.5784,-1.5784,-1.5784,0.0,-1.5784,-1.5784,-1.5784,0.0,0.0,-1.5784,-1.5784,0.0,0.0,0.0,0.0,0.0,0.0,0.0,0.0,0.0,0.0,-1.4608,0.0,0.0,0.0,0.0,-1.4398,0.0,0.0,0.0,0.0,0.0,-1.3339,-1.2622,-1.253,0.0,0.0,0.0,0.0,0.0,0.0,0.0,0.0,0.0,0.0,0.0,-0.7226,0.0,-0.5319,-0.5077,-0.4917,-0.4729,-0.386,-0.3416,-0.3532,-0.2498,-0.1972,-0.197,-0.1843,-0.2319,-0.3359,-0.3398,-0.4064,-0.5282,-0.5479,-0.5712,-0.5902,-0.618,-0.6525,-0.6903,-0.6903,-0.7134,-0.7599,-0.8399,-0.9448,-1.0602,-1.4124,-1.4249,-1.4442,-1.4636,-1.4917,0.0,0.0,-1.5784,0.0,0.0,0.0,0.0,0.0,-1.6647,-1.6707,0.0,0.0,-1.666,-1.6567,-1.7009,0.0,0.0,0.0,-1.7963,0.0,0.0,0.0,0.0,0.0,0.0,0.0,0.0,0.0,0.0,0.0,-1.5586,0.0,0.0,0.0,0.0,0.0,-1.5784,-1.5784,0.0,0.0,-1.5784,-1.5784,-1.5784,0.0,-1.5784,-1.5784,-1.5751,-1.5605,-1.5478,-1.5304,-1.4816,-1.4596,0.0,0.0,0.0,-1.444,-1.465,0.0,0.0,0.0,0.0,0.0,0.0,0.0,0.0,0.0,-1.3712,-1.3329,-1.3054,-1.2893,-1.2692,0.0,0.0,0.0,0.0,0.0,0.0,0.0,0.0,0.0,-0.9397,-0.7863,-0.6805,0.0,-0.5523,-0.5061,-0.5018,-0.4569,-0.4353,-0.4384,-0.399,-0.3804,-0.3775,-0.3752,-0.3905,-0.4265,-0.4384,-0.4774,-0.5321,-0.5518,-0.5712,-0.5941,-0.6331,-0.6637,-0.6903,-0.7061,-0.7599,-0.8322,-0.8589,-0.9448,-1.0714,-1.4243,-1.4166,-1.4175,0.0,0.0,0.0,0.0,0.0,0.0,0.0,-1.6359,0.0,-1.6834,0.0,-1.7014,0.0,-1.7014,-1.6974,-1.6874,-1.7231,0.0,-1.6328,-1.7203,0.0,0.0,0.0,0.0,0.0,0.0,-1.8839,0.0,0.0,0.0,0.0,0.0,-1.5267,-1.4816,-1.501,-1.5144,0.0,0.0,-1.5684,0.0,0.0,-1.5784,0.0,0.0,-1.5784,-1.5784,-1.5784,-1.5758,-1.5645,-1.5451,-1.5251,-1.501,-1.4629,-1.4486,-1.448,-1.4495,-1.4566,0.0,0.0,-1.495,0.0,-1.495,0.0,0.0,0.0,0.0,0.0,0.0,0.0,-1.3282,-1.317,-1.3026,-1.29,0.0,-1.29,0.0,0.0,0.0,0.0,0.0,0.0,-1.0645,-1.0153,-0.8642,-0.7583,0.0,0.0,-0.5342,-0.5227,-0.5134,-0.5039,-0.5033,-0.4927,-0.4914,-0.4949,-0.4848,-0.4818,-0.4818,-0.4937,-0.5132,-0.5401,-0.5559,-0.5789,-0.6173,-0.6486,-0.6753,-0.7061,-0.748,-0.805,-0.8737,-0.8927,-0.9879,-1.1266,-1.4398,-1.4271,0.0,0.0,-1.5023,0.0,0.0,0.0,-1.5959,0.0,-1.6547,-1.684,-1.7186,-1.7467,-1.7582,-1.7582,-1.7582,-1.7468,-1.7239,-1.6894,0.0,0.0,-1.606,-1.6359,-1.7279,0.0,0.0,0.0,0.0,0.0,0.0,0.0,0.0,0.0,-1.4789,0.0,-1.4496,-1.4466,-1.4689,-1.5035,-1.5264,-1.5538,-1.5738,-1.5738,0.0,-1.5744,-1.5758,-1.5758,-1.5758,-1.5744,-1.5605,-1.5371,-1.5357,-1.497,-1.4516,-1.4502,-1.446,-1.4482,-1.465,-1.4915,-1.5131,-1.5347,0.0,0.0,0.0,0.0,-1.461,0.0,0.0,0.0,0.0,0.0,0.0,-1.2979,-1.2936,-1.2936,-1.2936,0.0,0.0,0.0,0.0,0.0,0.0,-1.215,-1.1626,-1.0677,-0.9636,-0.8613,0.0,0.0,0.0,-0.554,-0.5511,-0.5506,-0.5529,-0.5303,-0.5287,-0.5399,-0.5127,-0.5018,-0.5018,-0.5018,-0.521,-0.5598,-0.5598,-0.5983,-0.6602,-0.6602,-0.6834,-0.7296,-0.8046,-0.8533,-0.8836,-0.947,-1.0723,-1.215,-1.4243,-1.4479,-1.483,0.0,-1.5297,-1.5491,0.0,0.0,0.0,0.0,-1.6854,-1.7199,-1.7494,-1.7542,-1.7582,-1.7582,-1.7582,0.0,0.0,0.0,0.0,-1.6607,-1.7037,-1.7289,-1.7286,-1.7552,0.0,-1.6898,0.0,0.0,-1.6133,0.0,0.0,0.0,0.0,0.0,-1.4215,-1.4429,-1.4689,-1.5015,-1.5089,-1.5117,0.0,0.0,-1.519,-1.5211,-1.5431,-1.5504,-1.5478,-1.5257,-1.5182,-1.5082,-1.4816,-1.4781,-1.4742,-1.4504,-1.4502,-1.4692,-1.4915,-1.5041,-1.5131,-1.5347,-1.5389,-1.5323,0.0,0.0,0.0,0.0,0.0,0.0,0.0,0.0,0.0,-1.336,-1.3346,-1.3346,-1.3346,0.0,0.0,-1.3346,0.0,0.0,0.0,-1.2562,-1.2261,-1.1885,-1.0346,0.0,0.0,0.0,0.0,-0.5797,-0.5738,-0.5742,-0.5729,-0.5502,-0.5448,-0.5479,-0.5167,-0.5018,-0.5018,-0.5168,-0.5362,-0.5598,-0.575,-0.6135,-0.6602,-0.6753,-0.6984,-0.7219,-0.7595,-0.852,-0.9772,-1.0513,-1.1388,-1.2218,-1.4824,0.0,0.0,-1.5364,0.0,0.0,-1.5979,0.0,0.0,-1.684,-1.7099,0.0,-1.7549,-1.7582,-1.7582,-1.7582,-1.7582,0.0,-1.7582,0.0,0.0,-1.672,-1.7009,-1.6992,-1.6629,-1.6911,0.0,-1.5917,0.0,0.0,-1.5284,0.0,0.0,0.0,0.0,-1.4657,-1.4095,-1.4262,-1.4502,-1.477,-1.477,0.0,0.0,-1.5008,-1.5008,-1.5015,-1.4997,-1.5097,-1.5184,-1.5062,-1.4877,-1.4743,-1.4569,-1.4559,-1.4638,-1.4446,-1.4608,-1.4915,-1.5048,-1.5173,-1.522,-1.5206,-1.5177,-1.509,-1.4809,-1.4626,-1.4472,0.0,0.0,0.0,0.0,0.0,0.0,-1.3492,-1.3492,0.0,0.0,0.0,0.0,0.0,-1.3492,0.0,0.0,0.0,-1.2746,0.0,0.0,0.0,0.0,0.0,0.0,0.0,-0.594,-0.5848,-0.5786,-0.5615,-0.5579,-0.5632,-0.5387,-0.5251,-0.5251,-0.5362,-0.5556,-0.575,-0.5864,-0.6212,-0.6753,-0.6865,-0.7057,-0.7399,-0.7925,-0.9013,-1.0367,-1.0893,-1.154,-1.2118,-1.5672,0.0,0.0,0.0,0.0,0.0,0.0,-1.6333,0.0,-1.7125,0.0,-1.7353,-1.7555,-1.7582,-1.7582,-1.7582,0.0,-1.7582,-1.7582,-1.74,-1.7105,-1.672,-1.6466,-1.6172,-1.5791,-1.6076,-1.5884,0.0,0.0,0.0,-1.4999,0.0,0.0,0.0,0.0,0.0,0.0,-1.4088,-1.4229,0.0,-1.4462,-1.4616,-1.4894,-1.4894,-1.4894,-1.4861,-1.4556,-1.4656,-1.4948,-1.4908,-1.4676,-1.4462,-1.4462,-1.4446,-1.444,-1.444,-1.4783,-1.5124,-1.5081,-1.5199,-1.5243,-1.4922,-1.4842,-1.4794,-1.4518,-1.4225,-1.4005,-1.3923,-1.3697,0.0,0.0,0.0,0.0,-1.3492,0.0,0.0,0.0,0.0,0.0,0.0,0.0,0.0,0.0,0.0,0.0,0.0,0.0,0.0,0.0,0.0,0.0,0.0,-0.6099,0.0,-0.5882,0.0,-0.5692,-0.5799,-0.565,-0.5598,-0.5598,-0.5637,-0.575,-0.5902,-0.598,-0.6325,-0.6903,-0.6942,-0.7161,-0.7618,-0.8569,-0.9597,-1.0607,-1.0916,-1.1428,-1.1901,-1.5447,0.0,0.0,0.0,0.0,-1.6293,-1.6587,-1.6627,-1.6754,-1.7159,-1.7414,-1.7522,-1.7575,-1.7582,-1.7582,-1.7582,-1.7582,0.0,0.0,0.0,0.0,-1.6727,-1.6653,-1.638,-1.5791,-1.6076,-1.5884,0.0,0.0,0.0,-1.4524,-1.4286,0.0,0.0,0.0,0.0,-1.4088,-1.4088,0.0,-1.4162,-1.4162,-1.4195,-1.4242,-1.4242,-1.4242,-1.4235,-1.4182,-1.4349,-1.4563,-1.4322,-1.4208,-1.4162,-1.4162,-1.4411,-1.465,-1.465,-1.4999,-1.5289,-1.502,-1.4947,-1.4915,-1.4633,-1.4553,-1.4504,-1.4181,-1.4026,-1.3901,-1.3638,-1.3536,-1.3492,-1.3492,0.0,0.0,0.0,0.0,0.0,0.0,0.0,0.0,0.0,0.0,0.0,0.0,0.0,0.0,0.0,0.0,0.0,0.0,0.0,0.0,0.0,0.0,0.0,0.0,0.0,0.0,-0.5899,-0.5685,-0.5598,-0.5598,-0.5786,-0.5864,-0.5941,-0.6328,-0.6637,-0.6903,-0.7061,-0.7357,-0.7773,-0.8763,-0.9493,-1.0071,-1.0936,-1.1424,-1.1665,0.0,0.0,0.0,0.0,0.0,0.0,0.0,-1.6834,0.0,-1.7387,-1.7495,-1.7582,-1.7582,-1.7582,-1.7582,-1.7582,-1.7582,-1.7582,-1.7582,-1.7494,-1.7168,-1.6727,-1.656,0.0,-1.5791,-1.5927,-1.5824,-1.5449,0.0,0.0,-1.4915,-1.4838,-1.4713,-1.4587,0.0,-1.4201,0.0,0.0,0.0,-1.4088,-1.4088,-1.4088,-1.4088,-1.4088,-1.4088,-1.4088,-1.4088,-1.4175,-1.4275,-1.4135,-1.4088,-1.413,-1.4201,-1.4447,-1.4706,-1.4676,-1.488,-1.5068,-1.4787,-1.4699,-1.4618,-1.4335,-1.4254,-1.4128,-1.3806,-1.3733,-1.3682,-1.3528,-1.3492,-1.3492,-1.3492,-1.3492,0.0,0.0,0.0,0.0,0.0,0.0,0.0,0.0,0.0,0.0,0.0,0.0,0.0,0.0,0.0,0.0,0.0,0.0,0.0,0.0,0.0,0.0,0.0,0.0,0.0,-0.6099,-0.6025,-0.5951,-0.5951,-0.606,-0.6177,-0.6289,-0.6483,-0.6753,-0.7061,-0.7253,-0.7584,-0.7981,-0.8866,-0.9507,-1.0063,-1.0976,-1.155,-1.1879,0.0,-1.5927,0.0,0.0,-1.6126,0.0,-1.6667,-1.7014,-1.7373,-1.7555,-1.7582,-1.7582,-1.7582,-1.7582,-1.7582,-1.7582,-1.7522,-1.7488,-1.7488,-1.7266,-1.6978,-1.6627,-1.6393,-1.6132,-1.5791,-1.5879,-1.577,0.0,0.0,0.0,0.0,-1.5228,0.0,0.0,0.0,0.0,0.0,0.0,-1.4166,-1.4166,-1.413,-1.4088,-1.4088,-1.4088,-1.4088,-1.4082,-1.4015,-1.4037,-1.4072,-1.3998,-1.4058,-1.4195,-1.4288,-1.4469,-1.4662,-1.4522,-1.4637,-1.4732,-1.445,-1.4401,-1.4328,-1.396,-1.3879,-1.3814,-1.355,-1.3492,-1.3492,-1.3492,-1.3492,-1.3492,-1.3492,-1.3492,0.0,0.0,0.0,0.0,0.0,0.0,0.0,0.0,0.0,0.0,0.0,0.0,0.0,0.0,0.0,0.0,0.0,0.0,0.0,0.0,0.0,0.0,-0.6676,0.0,-0.6563,0.0,-0.6377,-0.6338,-0.63,-0.63,-0.6412,-0.6602,-0.6637,-0.6907,-0.7296,-0.7672,-0.8033,-0.8397,-0.9217,-0.9899,-1.0566,-1.1263,-1.1848,-1.2327,0.0,0.0,0.0,0.0,0.0,0.0,0.0,-1.7181,-1.7549,-1.7582,-1.7582,-1.7582,-1.7582,-1.7582,-1.7582,-1.7582,-1.7393,-1.7239,-1.7239,-1.6914,-1.6613,-1.6326,-1.6286,-1.6132,-1.5791,-1.6028,-1.5963,0.0,0.0,0.0,0.0,0.0,0.0,0.0,0.0,0.0,0.0,-1.444,-1.4356,-1.4356,-1.4166,-1.4088,-1.4088,-1.4088,-1.4088,-1.4048,-1.374,-1.3769,-1.3886,-1.364,-1.3906,-1.4308,-1.4056,-1.4253,-1.4548,-1.4234,-1.4345,-1.4482,-1.4152,-1.4064,-1.399,-1.3623,-1.3543,-1.3536,-1.3506,-1.3492,-1.3492,-1.3492,-1.3492,-1.3492,-1.3492,-1.3492,-1.3637,0.0,0.0,0.0,0.0,0.0,0.0,-1.4497,0.0,0.0,0.0,0.0,0.0,0.0,0.0,0.0,0.0,0.0,0.0,0.0,0.0,-0.7061,-0.6865,-0.6865,0.0,-0.6563,-0.6563,-0.649,-0.63,-0.63,-0.6412,-0.6602,-0.6791,-0.7096,-0.7561,-0.847,-0.8956,-0.9181,-1.0166,-1.1003,-1.1703,-1.2062,-1.2539,-1.3037,0.0,0.0,0.0,0.0,0.0,0.0,0.0,-1.7061,-1.7434,-1.7562,-1.7582,-1.7582,-1.7582,-1.7481,-1.7373,-1.7373,-1.7105,-1.6881,-1.6881,-1.6607,-1.6393,-1.6279,-1.6106,-1.5952,-1.5784,-1.5852,-1.5778,0.0,0.0,0.0,0.0,0.0,0.0,0.0,0.0,-1.4573,-1.4328,-1.4398,-1.4398,-1.4378,-1.4255,-1.4138,-1.4042,-1.3818,-1.3676,-1.3547,-1.3427,-1.3494,-1.3626,-1.3543,-1.3739,-1.4039,-1.4008,-1.4165,-1.4266,-1.4106,-1.4134,-1.4144,-1.3777,-1.3689,-1.366,-1.3528,-1.3492,-1.3492,-1.3492,-1.3492,-1.3492,-1.3492,-1.3492,-1.3492,-1.3492,-1.3492,-1.3637,0.0,0.0,0.0,0.0,0.0,0.0,0.0,0.0,-1.4597,0.0,0.0,0.0,0.0,0.0,0.0,0.0,0.0,0.0,-0.7983,0.0,-0.7526,-0.7099,-0.7061,-0.6984,-0.6788,-0.6788,-0.6753,-0.6676,-0.6676,-0.6756,-0.6988,-0.7176,-0.7484,-0.7906,-0.8289,-0.8992,-0.9877,-1.0648,-1.1363,-1.2075,-1.2797,-1.3218,-1.3461,-1.5784,0.0,-1.5784,0.0,-1.6079,-1.6339,-1.6547,-1.6827,-1.7146,-1.7295,-1.7321,-1.7355,-1.7442,-1.7246,-1.7072,-1.7072,-1.6747,-1.658,-1.658,-1.6306,-1.6146,-1.6146,-1.5858,0.0,-1.5752,-1.5741,-1.5659,-1.5569,-1.5619,0.0,0.0,0.0,0.0,0.0,-1.4908,-1.4699,-1.433,-1.4441,-1.4379,-1.4193,-1.4108,-1.3978,-1.3836,-1.3577,-1.347,-1.3351,-1.3257,-1.3379,-1.3507,-1.3424,-1.3544,-1.3757,-1.3888,-1.3994,-1.4053,-1.3893,-1.3843,-1.3784,-1.3558,-1.3492,-1.3492,-1.3492,-1.3492,-1.3492,-1.3492,-1.3492,-1.3492,-1.3492,-1.3492,-1.3528,-1.3637,-1.3674,-1.3848,0.0,0.0,0.0,0.0,0.0,0.0,0.0,-1.5098,-1.4911,-1.4122,0.0,0.0,0.0,0.0,0.0,0.0,0.0,0.0,0.0,0.0,0.0,0.0,0.0,-0.7296,-0.698,-0.698,-0.6942,-0.6903,-0.6942,-0.7061,-0.7223,-0.7526,-0.7829,-0.814,-0.8556,-0.9311,-1.0255,-1.0999,-1.1769,-1.2521,-1.3338,-1.3824,-1.4116,-1.5784,-1.5784,-1.5784,-1.5784,-1.6079,-1.6321,-1.6279,-1.6526,-1.6714,-1.6714,-1.6714,-1.6827,-1.7172,-1.6894,-1.6707,-1.6707,-1.6446,-1.6279,-1.6279,-1.5999,-1.5832,0.0,0.0,-1.5497,-1.5681,-1.5697,-1.5606,-1.5512,0.0,0.0,-1.4907,0.0,0.0,-1.5389,-1.5389,-1.5206,-1.4867,-1.4658,-1.4271,-1.3791,-1.3581,-1.3502,-1.3502,-1.3495,-1.362,-1.3736,-1.3428,-1.3431,-1.3547,-1.3277,-1.336,-1.3521,-1.3565,-1.3786,-1.3923,-1.3594,-1.3499,-1.3499,-1.3492,-1.3492,-1.3492,-1.3492,-1.3492,-1.3492,-1.3492,-1.3492,-1.3492,-1.3492,-1.3492,-1.3637,-1.4021,-1.4093,-1.4346,-1.5062,0.0,0.0,0.0,0.0,0.0,0.0,-1.5426,-1.4875,-1.4078,0.0,0.0,0.0,0.0,0.0,0.0,0.0,0.0,-0.9284,-0.8899,0.0,-0.8102,-0.8102,-0.7795,-0.7184,-0.7184,-0.7099,-0.6903,-0.7103,-0.7184,-0.7219,-0.7834,-0.8102,-0.8217,-0.9614,-1.018,-1.0293,-1.1298,-1.2285,-1.323,-1.3557,-1.4322,-1.5174,-1.6076,-1.6076,-1.6123,-1.6298,-1.6293,-1.6293,-1.6545,-1.6506,-1.648,-1.668,-1.6533,-1.6446,-1.6589,-1.6466,-1.6413,0.0,-1.6139,-1.5885,0.0,-1.5585,-1.5444,-1.5251,-1.515,-1.5239,-1.542,-1.5378,-1.5388,-1.5512,0.0,0.0,0.0,-1.5236,-1.5088,-1.4849,-1.4849,-1.4588,-1.4169,-1.4248,-1.4152,-1.3999,-1.3908,-1.3777,-1.3603,-1.3384,-1.3269,-1.318,-1.3075,-1.3158,-1.3329,-1.3228,-1.3346,-1.3514,-1.3542,-1.3572,-1.3631,-1.3528,-1.3492,-1.3492,-1.3492,-1.3492,-1.3492,-1.3492,-1.3492,-1.3492,-1.3492,-1.3492,-1.3492,-1.3492,-1.3492,-1.3637,-1.4029,-1.4093,-1.4346,-1.5089,0.0,0.0,0.0,0.0,0.0,0.0,-1.5204,-1.4573,0.0,-1.339,0.0,0.0,0.0,0.0,0.0,0.0,0.0,0.0,-0.917,0.0,-0.8513,-0.8513,-0.8289,-0.7795,-0.7795,-0.7795,-0.7714,-0.7795,-0.7944,-0.8246,-0.8437,-0.867,-0.8941,-0.9397,-0.9992,-1.0663,-1.1111,-1.1737,-1.2512,-1.3528,-1.4114,-1.4494,-1.6028,-1.6028,-1.6123,-1.6258,-1.6163,-1.6137,-1.6326,-1.6209,-1.6172,-1.6353,-1.6126,-1.5945,-1.5945,-1.5845,0.0,-1.6082,-1.5961,0.0,-1.5472,-1.5497,-1.5416,-1.5232,-1.5116,-1.5151,-1.5371,0.0,0.0,-1.5461,-1.54,-1.5389,-1.5382,-1.5265,-1.5008,-1.4691,-1.4616,-1.4306,-1.3881,-1.4004,-1.3933,-1.3765,-1.3729,-1.3605,-1.3509,-1.3271,-1.3156,-1.3119,-1.3119,-1.32,-1.3309,-1.3309,-1.3382,-1.3492,-1.3492,-1.3492,-1.3492,-1.3492,-1.3492,-1.3492,-1.3492,-1.3492,-1.3492,-1.3492,-1.3492,-1.3455,-1.32,-1.3346,-1.3455,-1.32,-1.3346,-1.3674,-1.4201,-1.4274,-1.4533,-1.5284,0.0,0.0,0.0,0.0,0.0,0.0,0.0,0.0,0.0,-1.2886,0.0,0.0,0.0,0.0,0.0,0.0,0.0,-0.9544,-0.9506,0.0,-0.8932,-0.8932,-0.8708,-0.8327,-0.8327,-0.8327,-0.8327,-0.8327,-0.8479,-0.8703,-0.8856,-0.9051,-0.9322,-0.9473,-0.996,-1.0588,-1.07,-1.144,-1.2549,-1.339,-1.4114,-1.4776,-1.5765,-1.5765,0.0,0.0,-1.5819,0.0,-1.5812,-1.5765,-1.5765,-1.5765,-1.5578,-1.541,-1.541,-1.5214,-1.5244,-1.5638,0.0,0.0,0.0,-1.5534,-1.5527,-1.5499,-1.5278,0.0,-1.5433,-1.524,-1.5215,-1.5389,-1.5389,-1.5374,-1.5345,-1.5046,-1.4878,-1.482,-1.4567,-1.4291,-1.399,-1.399,-1.3695,-1.3229,-1.3229,-1.3229,-1.3229,-1.3229,-1.3346,-1.3492,-1.3492,-1.3492,-1.3492,-1.3492,-1.3492,-1.3492,-1.3492,-1.3492,-1.3492,-1.3492,-1.3492,-1.3492,-1.3492,-1.3455,-1.3455,-1.3455,-1.3455,-1.3309,-1.282,-1.3156,-1.3382,-1.2856,-1.3156,-1.371,-1.4425,-1.4533,-1.4748,-1.5513,-1.5655,-1.539,-1.4645,0.0,0.0,0.0,0.0,0.0,0.0,-1.2114,-1.1632,0.0,0.0,0.0,0.0,0.0,0.0,-0.9916,-0.9916,-0.9733,-0.9359,-0.9322,-0.9127,-0.8742,-0.8703,-0.8703,-0.8742,-0.8742,-0.8742,-0.8818,-0.9165,-0.9322,-0.9359,-0.9771,-1.003,-1.0218,-1.0218,-1.1397,-1.3055,-1.3127,-1.4186,-1.562,0.0,0.0,-1.5746,-1.5934,-1.5934,-1.5889,-1.5746,-1.5701,-1.5649,-1.5649,-1.5587,-1.5545,-1.5545,-1.5669,-1.5697,-1.5572,-1.5377,-1.5116,-1.4774,-1.4747,-1.4733,-1.4709,-1.4627,-1.4677,-1.4888,-1.5034,-1.5215,-1.5389,-1.5389,-1.5265,-1.5017,-1.4936,-1.4637,-1.4209,-1.4128,-1.3916,-1.3609,-1.3609,-1.3565,-1.3419,-1.3419,-1.3419,-1.3419,-1.3419,-1.3455,-1.3492,-1.3492,-1.3492,-1.3492,-1.3492,-1.3492,-1.3492,-1.3492,-1.3492,-1.3492,-1.3492,-1.3492,-1.3492,-1.3492,-1.3156,-1.2826,-1.2826,-1.2826,-1.2966,-1.3586,-1.384,-1.3992,-1.4093,-1.3796,-1.3615,-1.4049,-1.3688,-1.3477,-1.397,-1.4042,-1.397,-1.3781,0.0,0.0,0.0,-1.331,-1.2732,-1.3171,-1.207,-1.1223,0.0,0.0,0.0,0.0,0.0,-1.0143,-1.0143,-1.0143,-0.9992,-0.9771,-0.9771,-0.9544,-0.9165,-0.8856,-0.8856,-0.9165,-0.9165,-0.9316,-0.9614,-0.9733,-0.9771,-0.9771,-1.003,-1.0143,-1.0218,-1.0556,-1.0962,-1.1477,-1.2218,-1.2886,-1.3433,-1.527,-1.5359,-1.5404,-1.5538,-1.5538,-1.55,-1.5404,-1.5359,-1.5308,-1.5308,-1.5185,-1.5103,-1.5103,-1.5117,-1.5095,-1.5007,-1.5243,-1.5248,-1.4942,-1.4914,-1.4887,-1.488,-1.4866,-1.4915,-1.5041,-1.5173,-1.5233,-1.5163,-1.5163,-1.5002,-1.4721,-1.4575,-1.4318,-1.3975,-1.3828,-1.366,-1.3492,-1.3492,-1.3346,-1.3083,-1.3083,-1.2936,-1.2673,-1.2673,-1.2673,-1.2709,-1.2973,-1.3083,-1.3119,-1.3419,-1.3492,-1.3492,-1.3492,-1.3492,-1.3492,-1.3492,-1.3492,-1.3492,-1.3492,-1.3273,-1.301,-1.301,-1.2783,-1.2673,-1.2959,-1.2989,-1.2989,-1.2879,-1.2762,-1.2806,-1.328,-1.3032,-1.2929,-1.3426,-1.3499,-1.339,-1.2989,-1.2952,0.0,-1.3004,-1.2248,-1.1922,-1.2358,-1.1626,-1.1111,-1.1111,0.0,0.0,-1.0775,-1.0588,-1.0406,-1.0218,-1.0105,-1.0067,-1.003,-0.9954,-0.9809,-0.9582,-0.9354,-0.9349,-0.9587,-0.9657,-0.9771,-0.9922,-0.9997,-1.003,-1.0067,-1.0143,-1.0331,-1.0513,-1.07,-1.1074,-1.1558,-1.2187,-1.2739,-1.3215,-1.4327,-1.4505,-1.4512,-1.4601,-1.4645,-1.4645,-1.469,-1.483,-1.4919,-1.4919,-1.4741,-1.4629,-1.4629,-1.4448,-1.4377,-1.4524,-1.5333,-1.5681,-1.5278,-1.5215,-1.5215,-1.5298,-1.5298,-1.5257,-1.5215,-1.5164,-1.5032,-1.4834,-1.4834,-1.4706,-1.443,-1.4114,-1.396,-1.3894,-1.3616,-1.3492,-1.3492,-1.3492,-1.3163,-1.2599,-1.2599,-1.2224,-1.1706,-1.1706,-1.1706,-1.1781,-1.2268,-1.2452,-1.2526,-1.3046,-1.3236,-1.3236,-1.3236,-1.3236,-1.3236,-1.3236,-1.3236,-1.3236,-1.3346,-1.3236,-1.3083,-1.3083,-1.2709,-1.2224,-1.1892,-1.1855,-1.1706,-1.1292,-1.1515,-1.1966,-1.2452,-1.2452,-1.2556,-1.3055,-1.3135,-1.2915,-1.2224,0.0,-1.1892,-1.1335,-1.1186,-1.1149,-1.126,-1.1186,-1.1111,-1.1111,-1.1111,0.0,0.0,-1.0887,-1.0625,-1.0293,-1.0067,-1.003,-1.0218,-0.9997,-0.9916,-0.996,-0.9922,-0.9916,-0.9954,-1.0105,-1.0105,-0.9954,-1.0143,-1.0218,-1.0218,-1.0255,-1.0475,-1.0812,-1.0812,-1.1409,-1.2187,-1.2378,-1.2886,-1.3579,-1.2155,-1.2198,-1.2328,-1.2647,-1.2899,-1.3114,-1.3298,-1.3989,-1.4493,-1.4493,-1.4937,-1.5245,-1.5245,-1.5209,-1.5222,-1.5257,-1.5391,-1.5223,-1.4615,-1.4412,-1.4461,-1.4783,-1.4824,-1.465,-1.4314,-1.4021,-1.4114,-1.4545,-1.4545,-1.4416,-1.4093,-1.4004,-1.3836,-1.3572,-1.3521,-1.3492,-1.3492,-1.3492,-1.3163,-1.2599,-1.2599,-1.2224,-1.1706,-1.1706,-1.1706,-1.1706,-1.1818,-1.1855,-1.1855,-1.1966,-1.1966,-1.1966,-1.1966,-1.1966,-1.1966,-1.1966,-1.1966,-1.2077,-1.2599,-1.2003,-1.1223,-1.1223,-1.1149,-1.1335,-1.2268,-1.2452,-1.2592,-1.2989,-1.2622,-1.2224,-1.2342,-1.1781,-1.1372,-1.144,-1.1477,-1.144,0.0,0.0,-1.1484,-1.204,-1.1521,-1.1372,-1.204,-1.1484,-1.1111,-1.1111,-1.1111,-1.1037,-1.085,-1.0812,-1.0775,-1.07,-1.0368,-1.018,-1.0218,-0.9997,-0.9992,-1.0143,-0.9992,-0.9992,-1.0143,-1.018,-1.018,-1.0143,-1.0368,-1.0368,-1.0218,-1.0556,-1.0738,-1.0812,-1.0999,-1.126,-1.1558,-1.1558,-1.1892,-1.2298,-1.1359,-1.1488,-1.1531,-1.1709,-1.1875,-1.196,-1.2052,-1.2437,-1.2729,-1.2729,-1.2991,-1.3203,-1.3203,-1.3203,-1.3245,-1.3408,-1.3281,-1.3098,-1.2816,-1.4065,-1.488,-1.5082,-1.4918,-1.4586,-1.4046,-1.406,-1.4038,-1.3945,-1.3808,-1.357,-1.3229,-1.2923,-1.2699,-1.2526,-1.2526,-1.2526,-1.2526,-1.2526,-1.2187,-1.1632,-1.1632,-1.126,-1.0738,-1.0738,-1.0738,-1.0775,-1.1111,-1.1223,-1.1242,-1.1468,-1.1527,-1.1495,-1.1371,-1.132,-1.132,-1.132,-1.1501,-1.1781,-1.215,-1.1855,-1.1484,-1.1595,-1.1261,-1.1046,-1.1593,-1.1369,-1.1156,-1.1584,-1.1368,-1.1199,-1.1459,-1.1186,-1.0962,-1.1074,-1.1111,0.0,0.0,-1.1111,-1.1223,-1.1595,-1.1335,-1.126,-1.1632,-1.1335,-1.1111,-1.1111,-1.1111,-1.1074,-1.0962,-1.085,-1.0812,-1.0812,-1.0625,-1.0406,-1.0218,-1.0218,-1.0218,-1.0218,-1.0218,-1.0218,-1.0218,-1.0406,-1.04,-1.0218,-1.0513,-1.0625,-1.0556,-1.07,-1.085,-1.0962,-1.1186,-1.1335,-1.1446,-1.1632,-1.1855,-1.2003,-1.0549,-1.0679,-1.0722,-1.0809,-1.0852,-1.0852,-1.0982,-1.1111,-1.1284,-1.137,-1.1537,-1.1666,-1.18,-1.18,-1.1858,-1.1997,-1.1827,-1.1688,-1.1681,-1.3645,-1.4654,-1.44,-1.4108,-1.3743,-1.3315,-1.3529,-1.3417,-1.302,-1.2842,-1.2638,-1.2378,-1.1929,-1.1675,-1.1611,-1.1611,-1.161,-1.1546,-1.1546,-1.1181,-1.063,-1.063,-1.0268,-0.9755,-0.9755,-0.9755,-0.9792,-1.0262,-1.0415,-1.0491,-1.0773,-1.0884,-1.0841,-1.0653,-1.0585,-1.0585,-1.0585,-1.0853,-1.1144,-1.129,-1.1363,-1.14,-1.1546,-1.1062,-1.0587,-1.0628,-1.0161,-0.9798,-1.0057,-1.0133,-1.0263,-1.0638,-1.0673,-1.0747,-1.0894,0.0,0.0,0.0,-1.1021,-1.1045,-1.1105,-1.1111,-1.1111,-1.1111,-1.1111,-1.1111,-1.1111,-1.1111,-1.1111,-1.1111,-1.0962,-1.085,-1.085,-1.0775,-1.0594,-1.0331,-1.0443,-1.0406,-1.0255,-1.0438,-1.0406,-1.0293,-1.0625,-1.0625,-1.0368,-1.07,-1.085,-1.0812,-1.085,-1.0999,-1.1186,-1.1298,-1.1409,-1.1558,-1.1818,-1.2003,-1.2077,-0.8784,-0.8784,-0.8955,-0.9388,-0.9432,-0.9607,-1.0038,-1.0641,-1.1198,-1.1628,-1.2217,-1.2766,-1.3222,-1.3264,-1.3157,-1.2921,-1.2896,-1.2782,-1.2637,-1.2802,-1.2477,-1.1456,-1.1151,-1.1094,-1.1225,-1.1113,-1.1218,-1.1546,-1.1715,-1.18,-1.1781,-1.1706,-1.161,-1.1409,-1.1409,-1.1285,-1.1063,-1.1063,-1.0716,-1.016,-1.016,-0.9775,-0.9254,-0.9254,-0.9254,-0.9254,-0.9289,-0.9325,-0.9325,-0.9344,-0.9368,-0.9368,-0.9351,-0.9346,-0.9346,-0.9346,-0.9368,-0.9395,-0.9395,-0.9395,-0.9395,-0.943,-0.9384,-0.9373,-0.9565,-0.9694,-0.9857,-1.0049,-1.0189,-1.0293,-1.0346,-1.0352,-1.0352,-1.0352,0.0,0.0,-1.0677,-1.0713,-1.084,-1.1081,-1.1111,-1.1111,-1.1111,-1.1111,-1.1111,-1.1111,-1.1111,-1.1111,-1.1111,-1.1074,-1.1074,-1.1074,-1.07,-1.0594,-1.0738,-1.0588,-1.0475,-1.0481,-1.0475,-1.0475,-1.0475,-1.07,-1.0775,-1.0775,-1.0962,-1.0962,-1.0812,-1.0999,-1.1186,-1.1372,-1.1186,-1.1446,-1.1929,-1.1781,-1.1966,-1.2268,-0.8612,-0.8612,-0.8652,-0.8828,-0.8872,-0.8915,-0.9087,-0.9345,-0.9563,-0.9733,-0.9871,-1.0036,-1.0211,-1.0129,-1.001,-0.9921,-0.9916,-0.9766,-0.9491,-0.9471,-1.0092,-1.1484,-1.1303,-1.1137,-1.094,-1.1097,-1.122,-1.1293,-1.1206,-1.0999,-1.0775,-1.0506,-1.0239,-0.9919,-1.0012,-0.9991,-0.9892,-0.9892,-0.9759,-0.955,-0.955,-0.941,-0.9206,-0.9206,-0.9206,-0.9206,-0.9206,-0.9206,-0.9179,-0.9039,-0.903,-0.9003,-0.8824,-0.8775,-0.8775,-0.8775,-0.8775,-0.8775,-0.8775,-0.9059,-0.9462,-0.9706,-0.9622,-0.9548,-0.9718,-0.9663,-0.9693,-0.9926,-1.0018,-1.0106,-1.0268,-1.0292,-1.0292,-1.0292,0.0,-1.0328,-1.043,-1.0442,-1.0478,-1.0581,-1.0587,-1.0653,-1.0852,-1.0833,-1.0936,-1.1099,-1.1111,-1.1111,-1.1111,-1.1111,-1.1111,-1.1111,-1.0962,-1.085,-1.0812,-1.085,-1.0812,-1.07,-1.0812,-1.0812,-1.07,-1.0887,-1.0925,-1.0812,-1.0999,-1.1074,-1.0999,-1.1074,-1.1223,-1.1409,-1.1446,-1.1706,-1.2003,-1.204,-1.215,-1.2305,-0.8612,-0.8612,-0.8612,-0.8612,-0.8563,-0.8522,-0.8522,-0.843,-0.848,-0.8609,-0.8496,-0.8497,-0.8623,-0.8504,-0.8401,-0.8346,-0.8282,-0.8115,-0.7799,-0.7667,-0.8369,-1.0122,-1.0241,-1.0143,-0.9931,-1.0402,-1.0647,-1.0719,-1.0578,-1.0329,-0.9995,-0.9726,-0.9383,-0.8979,-0.9063,-0.9055,-0.899,-0.899,-0.899,-0.899,-0.899,-0.899,-0.899,-0.899,-0.899,-0.899,-0.899,-0.899,-0.8964,-0.8807,-0.8787,-0.8727,-0.8565,-0.8517,-0.8517,-0.8517,-0.8517,-0.8517,-0.8517,-0.882,-0.9241,-0.9514,-0.945,-0.9357,-0.9517,-0.9447,-0.9397,-0.9673,-0.9748,-0.9835,-1.0015,-1.0051,-1.0051,-1.0051,-1.0051,-1.0075,-1.016,-1.0172,-1.0202,-1.0286,-1.0292,-1.0364,-1.0545,-1.0563,-1.0635,-1.0815,-1.0942,-1.1021,-1.1105,-1.1111,-1.1111,-1.1111,-1.1111,-1.1037,-1.0887,-1.1037,-1.0999,-1.0812,-1.0999,-1.0999,-1.0812,-1.0999,-1.1037,-1.0887,-1.1037,-1.1149,-1.1186,-1.1186,-1.1335,-1.1595,-1.1669,-1.1855,-1.2114,-1.2187,-1.2268,-1.2305,-0.8608,-0.8608,-0.8608,-0.8608,-0.841,-0.8288,-0.8288,-0.8134,-0.818,-0.8641,-0.8682,-0.8882,-0.9327,-0.9368,-0.9283,-0.9123,-0.8904,-0.8656,-0.8411,-0.8009,-0.7475,-0.6731,-0.7214,-0.7609,-0.7792,-0.8577,-0.9202,-0.9577,-0.9803,-0.9798,-0.9577,-0.9577,-0.9319,-0.8895,-0.8895,-0.8732,-0.8484,-0.8484,-0.8484,-0.8484,-0.8484,-0.8484,-0.8517,-0.8517,-0.8517,-0.8517,-0.8517,-0.8517,-0.8517,-0.8517,-0.8517,-0.8517,-0.8517,-0.8517,-0.8517,-0.8517,-0.8517,-0.8517,-0.8517,-0.8484,-0.8484,-0.8517,-0.8517,-0.8544,-0.877,-0.8894,-0.9049,-0.9274,-0.9408,-0.9484,-0.9484,-0.9484,-0.9484,-0.9484,-0.9484,-0.9574,-0.9832,-0.9901,-0.9997,-1.0256,-1.0286,-1.0286,-1.0292,-1.0292,-1.0292,-1.0292,-1.0539,-1.0834,-1.1093,-1.1105,-1.1111,-1.1105,-1.1111,-1.1111,-1.1111,-1.1111,-1.0999,-1.0812,-1.0999,-1.0999,-1.0812,-1.0999,-1.1111,-1.1111,-1.1111,-1.1223,-1.1409,-1.1409,-1.1632,-1.1966,-1.1781,-1.1966,-1.2268,-1.2077,-1.212,-1.2305,-0.8178,-0.8178,-0.8178,-0.8178,-0.8134,-0.8097,-0.8097,-0.8048,-0.8053,-0.818,-0.8117,-0.8119,-0.8279,-0.8155,-0.8,-0.7778,-0.771,-0.7594,-0.7438,-0.7168,-0.6991,-0.6906,-0.7394,-0.7841,-0.8212,-0.8444,-0.8621,-0.8768,-0.8832,-0.8607,-0.8184,-0.8278,-0.8103,-0.7729,-0.785,-0.7879,-0.7787,-0.7787,-0.7917,-0.8149,-0.8149,-0.8284,-0.8517,-0.8517,-0.8517,-0.8517,-0.8517,-0.8517,-0.8517,-0.8517,-0.8517,-0.8517,-0.8517,-0.8517,-0.8517,-0.8517,-0.8517,-0.8517,-0.8517,-0.8149,-0.7954,-0.8544,-0.8705,-0.8738,-0.8894,-0.8985,-0.9017,-0.9081,-0.9242,-0.9376,-0.9376,-0.9446,-0.935,-0.8888,-0.8786,-0.8646,-0.8194,-0.8597,-0.8952,-0.9025,-0.9443,-0.9823,-1.0003,-1.0021,-1.01,-1.028,-1.0539,-1.0641,-1.0533,-1.0912,-1.1027,-1.0846,-1.1015,-1.1111,-1.1111,-1.1111,-1.1074,-1.0999,-1.1074,-1.1074,-1.1037,-1.1223,-1.1298,-1.1298,-1.1298,-1.1409,-1.1595,-1.1446,-1.1632,-1.2003,-1.1929,-1.2077,-1.2298,-1.2224,-1.2268,-1.2271,-0.7345,-0.7514,-0.7724,-0.7971,-0.7959,-0.7914,-0.7914,-0.7849,-0.7805,-0.7805,-0.7715,-0.7661,-0.7557,-0.7508,-0.7415,-0.7203,-0.7187,-0.7147,-0.7,-0.6829,-0.6773,-0.698,-0.7199,-0.7555,-0.8056,-0.8139,-0.8212,-0.8314,-0.8314,-0.8098,-0.7687,-0.7775,-0.7633,-0.7339,-0.7447,-0.7489,-0.7489,-0.7489,-0.7624,-0.7787,-0.7787,-0.7922,-0.8117,-0.8117,-0.8117,-0.8084,-0.7857,-0.7819,-0.7819,-0.7624,-0.7591,-0.7652,-0.7591,-0.7591,-0.7652,-0.7652,-0.7652,-0.7652,-0.7652,-0.7391,-0.719,-0.7717,-0.7847,-0.7907,-0.8064,-0.8096,-0.8096,-0.8166,-0.8264,-0.8361,-0.8361,-0.8657,-0.8786,-0.8425,-0.8619,-0.8683,-0.8269,-0.8624,-0.8888,-0.8888,-0.9253,-0.9576,-0.9739,-0.9514,-0.9348,-0.9319,-0.9469,-0.9571,-0.9596,-0.9907,-1.0002,-0.985,-1.0123,-1.0216,-1.0063,-1.0194,-1.0582,-1.1223,-1.0812,-1.0663,-1.0738,-1.047,-1.0395,-1.047,-1.047,-1.0614,-1.0875,-1.0726,-1.0816,-1.1046,-1.0973,-1.1019,-1.1033,-1.1033,-1.1139,-1.1233,-0.6185,-0.6603,-0.7024,-0.7591,-0.7596,-0.7533,-0.7533,-0.7434,-0.7326,-0.7326,-0.7326,-0.7271,-0.7078,-0.7273,-0.7335,-0.7129,-0.7171,-0.7131,-0.7,-0.6841,-0.6824,-0.6984,-0.6837,-0.696,-0.75,-0.7648,-0.783,-0.8061,-0.8061,-0.7917,-0.7686,-0.7686,-0.7583,-0.7396,-0.7396,-0.7396,-0.7396,-0.7358,-0.7358,-0.7358,-0.7326,-0.7326,-0.7358,-0.7358,-0.7358,-0.7293,-0.6806,-0.6736,-0.6761,-0.6272,-0.6235,-0.6367,-0.6174,-0.6239,-0.64,-0.64,-0.64,-0.64,-0.64,-0.6367,-0.6301,-0.6301,-0.6268,-0.6297,-0.6588,-0.6687,-0.6719,-0.6826,-0.6859,-0.6892,-0.6892,-0.7442,-0.7929,-0.8004,-0.8587,-0.9049,-0.9119,-0.9183,-0.9221,-0.9221,-0.9285,-0.9318,-0.9318,-0.8759,-0.8216,-0.7783,-0.7778,-0.7971,-0.8399,-0.8483,-0.8493,-0.8478,-0.8795,-0.8833,-0.8536,-0.8842,-0.9712,-1.1186,-1.025,-0.9916,-1.0105,-0.9193,-0.8889,-0.9036,-0.9036,-0.9238,-0.9574,-0.9574,-0.9538,-0.9509,-0.9392,-0.9246,-0.912,-0.912,-0.9315,-0.965,-0.4833,-0.4912,-0.5033,-0.5148,-0.5406,-0.559,-0.559,-0.5837,-0.6009,-0.6009,-0.6009,-0.5999,-0.5966,-0.6458,-0.6725,-0.6522,-0.6835,-0.7033,-0.6992,-0.6955,-0.6951,-0.6988,-0.6951,-0.6917,-0.691,-0.7093,-0.7137,-0.7026,-0.7026,-0.6929,-0.6709,-0.6709,-0.6688,-0.6646,-0.6646,-0.6646,-0.6613,-0.6178,-0.6174,-0.6371,-0.5935,-0.5968,-0.6231,-0.6231,-0.6231,-0.6235,-0.6239,-0.6239,-0.6272,-0.6334,-0.6367,-0.6396,-0.6334,-0.6367,-0.64,-0.64,-0.64,-0.64,-0.64,-0.5968,-0.554,-0.554,-0.5153,-0.5057,-0.6203,-0.6461,-0.6461,-0.6498,-0.6625,-0.6752,-0.6752,-0.6953,-0.7022,-0.6629,-0.6699,-0.6666,-0.6342,-0.6732,-0.7088,-0.7088,-0.7549,-0.7842,-0.7842,-0.7712,-0.7601,-0.748,-0.7664,-0.7808,-0.7854,-0.828,-0.8459,-0.8426,-0.8704,-0.8821,-0.8745,-0.8796,-0.9067,-0.9528,-0.9301,-0.9301,-0.949,-0.9448,-0.941,-0.9485,-0.9485,-0.9469,-0.9417,-0.9275,-0.9098,-0.8975,-0.8958,-0.9071,-0.9259,-0.9259,-0.9421,-0.9691,-0.383,-0.4103,-0.4414,-0.488,-0.5154,-0.5273,-0.5273,-0.5467,-0.5583,-0.5583,-0.5583,-0.5559,-0.5501,-0.5857,-0.6071,-0.5918,-0.6133,-0.6273,-0.6241,-0.616,-0.6082,-0.6082,-0.6005,-0.5888,-0.5801,-0.5884,-0.6028,-0.6187,-0.6427,-0.6242,-0.565,-0.5881,-0.5881,-0.565,-0.565,-0.565,-0.5617,-0.5348,-0.5315,-0.5444,-0.5176,-0.5176,-0.5378,-0.5378,-0.5378,-0.5342,-0.515,-0.4987,-0.4888,-0.4984,-0.508,-0.5134,-0.5003,-0.5058,-0.5134,-0.5068,-0.5094,-0.5147,-0.5147,-0.4915,-0.4686,-0.4686,-0.4492,-0.4498,-0.5219,-0.5385,-0.5385,-0.5385,-0.5481,-0.5576,-0.5672,-0.6005,-0.6239,-0.6108,-0.6408,-0.6572,-0.6375,-0.6666,-0.6892,-0.6892,-0.7186,-0.7321,-0.7097,-0.7064,-0.6929,-0.6568,-0.6689,-0.673,-0.6699,-0.6949,-0.7154,-0.7192,-0.7512,-0.7616,-0.7512,-0.7676,-0.7794,-0.7853,-0.818,-0.8433,-0.8617,-0.8208,-0.8061,-0.8171,-0.8111,-0.8091,-0.8097,-0.8064,-0.7925,-0.7768,-0.7829,-0.7907,-0.7959,-0.7959,-0.8212,-0.8595,-0.286,-0.3366,-0.3873,-0.4727,-0.4921,-0.496,-0.496,-0.5038,-0.5079,-0.5079,-0.5118,-0.512,-0.4909,-0.5155,-0.5351,-0.5392,-0.5436,-0.5405,-0.5272,-0.5119,-0.5011,-0.4955,-0.4809,-0.4749,-0.4815,-0.4815,-0.5014,-0.5448,-0.5918,-0.5683,-0.4815,-0.5249,-0.5216,-0.4815,-0.4815,-0.4815,-0.4782,-0.4716,-0.4649,-0.4652,-0.455,-0.4517,-0.4517,-0.4517,-0.4517,-0.4486,-0.4059,-0.3763,-0.3563,-0.3563,-0.3649,-0.3718,-0.3535,-0.3619,-0.3753,-0.367,-0.3736,-0.3805,-0.3805,-0.3904,-0.3972,-0.3972,-0.4103,-0.4243,-0.4265,-0.4284,-0.43,-0.43,-0.43,-0.4367,-0.4558,-0.5054,-0.555,-0.5881,-0.6441,-0.6905,-0.7027,-0.706,-0.706,-0.706,-0.706,-0.6929,-0.6539,-0.6507,-0.6276,-0.5683,-0.565,-0.565,-0.5716,-0.5716,-0.5782,-0.5987,-0.6259,-0.6332,-0.6165,-0.6441,-0.6585,-0.6581,-0.7136,-0.7513,-0.7717,-0.6833,-0.6555,-0.6734,-0.6619,-0.6631,-0.6737,-0.6851,-0.6778,-0.6577,-0.6664,-0.6632,-0.6587,-0.6673,-0.7036,-0.7555,-0.157,-0.1649,-0.1727,-0.1845,-0.2155,-0.239,-0.239,-0.2704,-0.2901,-0.2901,-0.3215,-0.329,-0.2927,-0.3641,-0.4347,-0.4934,-0.5246,-0.5194,-0.4737,-0.4677,-0.4586,-0.4417,-0.4395,-0.4519,-0.4782,-0.4815,-0.4848,-0.4915,-0.4981,-0.4948,-0.4815,-0.4882,-0.4882,-0.4815,-0.4815,-0.4815,-0.4782,-0.4289,-0.4092,-0.4059,-0.3594,-0.3426,-0.3426,-0.3426,-0.3426,-0.3426,-0.3529,-0.3663,-0.3758,-0.3758,-0.3701,-0.3625,-0.3737,-0.3736,-0.373,-0.384,-0.3879,-0.3889,-0.3889,-0.3889,-0.392,-0.392,-0.392,-0.3981,-0.4086,-0.4224,-0.43,-0.43,-0.43,-0.4367,-0.4558,-0.4658,-0.4858,-0.5186,-0.5319,-0.5451,-0.5657,-0.5657,-0.5657,-0.5657,-0.5657,-0.5686,-0.5749,-0.5749,-0.5782,-0.5855,-0.5855,-0.5918,-0.6115,-0.6112,-0.6181,-0.6317,-0.6374,-0.6386,-0.6357,-0.6414,-0.6422,-0.6422,-0.6522,-0.6754,-0.7126,-0.6988,-0.7095,-0.738,-0.7354,-0.716,-0.6887,-0.6894,-0.6727,-0.6401,-0.6245,-0.6501,-0.6991,-0.7389,-0.7848,-0.8298,-0.1608,-0.1648,-0.1687,-0.1923,-0.2118,-0.2235,-0.2235,-0.2392,-0.2511,-0.2511,-0.2668,-0.2694,-0.2502,-0.2853,-0.316,-0.3407,-0.3583,-0.3624,-0.3555,-0.3549,-0.3599,-0.3694,-0.3692,-0.3756,-0.3889,-0.3923,-0.3923,-0.3923,-0.4519,-0.4483,-0.3923,-0.4223,-0.4189,-0.3923,-0.3923,-0.3923,-0.3889,-0.3658,-0.356,-0.3527,-0.3293,-0.3192,-0.3192,-0.3192,-0.3192,-0.3226,-0.3295,-0.3393,-0.3451,-0.3429,-0.3383,-0.3298,-0.325,-0.3282,-0.331,-0.3288,-0.3341,-0.3322,-0.2985,-0.2952,-0.3011,-0.3011,-0.2826,-0.2805,-0.3252,-0.3113,-0.3126,-0.4084,-0.43,-0.44,-0.4661,-0.4728,-0.4827,-0.5193,-0.519,-0.5156,-0.5362,-0.5292,-0.5259,-0.5395,-0.5395,-0.5458,-0.5583,-0.5617,-0.5683,-0.5888,-0.5888,-0.5921,-0.602,-0.602,-0.6119,-0.628,-0.628,-0.6317,-0.6387,-0.6387,-0.6387,-0.6387,-0.6083,-0.6197,-0.6652,-0.6652,-0.6758,-0.6886,-0.702,-0.6942,-0.6807,-0.7074,-0.7099,-0.6977,-0.7032,-0.7202,-0.7499,-0.8022,-0.8016,-0.7891]}]]